[[{"header":{"parameterUnit":"m.s-1","parameterCategory":1,"la1":30.6,"la2":28.766,"lo1":-90.7593,"lo2":-88.6598,"dy":0.0162,"dx":0.0183,"nx":116,"ny":114,"refTime":"2024-02-25T18:00:00:Z","depth":0,"parameterNumber":2,"parameterNumberName":"U-component_of_WINDS"},"data":[0.0,0.0,0.0,0.0,0.0,0.0,0.0,0.0,0.0,0.0,0.0,0.0,0.0,0.0,0.0,0.0,0.0,0.0,0.0,0.0,0.0,0.0,0.0,0.0,0.0,0.0,0.0,0.0,0.0,0.0,0.0,0.0,0.0,0.0,0.0,0.0,0.0,0.0,0.0,0.0,0.0,0.0,0.0,0.0,0.0,0.0,0.0,0.0,0.0,0.0,0.0,0.0,0.0,0.0,0.0,0.0,0.0,0.0,0.0,0.0,0.0,0.0,0.0,0.0,0.0,0.0,0.0,0.0,0.0,0.0,0.0,0.0,0.0,0.0,0.0,0.0,0.0,0.0,0.0,0.0,0.0,0.0,0.0,0.0,0.0,0.0,0.0,0.0,0.0,0.0,0.0,0.0,0.0,0.0,0.0,0.0,0.0,0.0,0.0,0.0,0.0,0.0,0.0,0.0,0.0,0.0,0.0,0.0,0.0,0.0,0.0,0.0,0.0,0.0,0.0,0.0,0.0,0.0,0.0,0.0,0.0,0.0,0.0,0.0,0.0,0.0,0.0,0.0,0.0,0.0,0.0,0.0,0.0,0.0,0.0,0.0,0.0,0.0,0.0,0.0,0.0,0.0,0.0,0.0,0.0,0.0,0.0,0.0,0.0,0.0,0.0,0.0,0.0,0.0,0.0,0.0,0.0,0.0,0.0,0.0,0.0,0.0,0.0,0.0,0.0,0.0,0.0,0.0,0.0,0.0,0.0,0.0,0.0,0.0,0.0,0.0,0.0,0.0,0.0,0.0,0.0,0.0,0.0,0.0,0.0,0.0,0.0,0.0,0.0,0.0,0.0,0.0,0.0,0.0,0.0,0.0,0.0,0.0,0.0,0.0,0.0,0.0,0.0,0.0,0.0,0.0,0.0,0.0,0.0,0.0,0.0,0.0,0.0,0.0,0.0,0.0,0.0,0.0,0.0,0.0,0.0,0.0,0.0,0.0,0.0,0.0,0.0,0.0,0.0,0.0,0.0,0.0,0.0,0.0,0.0,0.0,0.0,0.0,0.0,0.0,0.0,0.0,0.0,0.0,0.0,0.0,0.0,0.0,0.0,0.0,0.0,0.0,0.0,0.0,0.0,0.0,0.0,0.0,0.0,0.0,0.0,0.0,0.0,0.0,0.0,0.0,0.0,0.0,0.0,0.0,0.0,0.0,0.0,0.0,0.0,0.0,0.0,0.0,0.0,0.0,0.0,0.0,0.0,0.0,0.0,0.0,0.0,0.0,0.0,0.0,0.0,0.0,0.0,0.0,0.0,0.0,0.0,0.0,0.0,0.0,0.0,0.0,0.0,0.0,0.0,0.0,0.0,0.0,0.0,0.0,0.0,0.0,0.0,0.0,0.0,0.0,0.0,0.0,0.0,0.0,0.0,0.0,0.0,0.0,0.0,0.0,0.0,0.0,0.0,0.0,0.0,0.0,0.0,0.0,0.0,0.0,0.0,0.0,0.0,0.0,0.0,0.0,0.0,0.0,0.0,0.0,0.0,0.0,0.0,0.0,0.0,0.0,0.0,0.0,0.0,0.0,0.0,0.0,0.0,0.0,0.0,0.0,0.0,0.0,0.0,0.0,0.0,0.0,0.0,0.0,0.0,0.0,0.0,0.0,0.0,0.0,0.0,0.0,0.0,0.0,0.0,0.0,0.0,0.0,0.0,0.0,0.0,0.0,0.0,0.0,0.0,0.0,0.0,0.0,0.0,0.0,0.0,0.0,0.0,0.0,0.0,0.0,0.0,0.0,0.0,0.0,0.0,0.0,0.0,0.0,0.0,0.0,0.0,0.0,0.0,0.0,0.0,0.0,0.0,0.0,0.0,0.0,0.0,0.0,0.0,0.0,0.0,0.0,0.0,0.0,0.0,0.0,0.0,0.0,0.0,0.0,0.0,0.0,0.0,0.0,0.0,0.0,0.0,0.0,0.0,0.0,0.0,0.0,0.0,0.0,0.0,0.0,0.0,0.0,0.0,0.0,0.0,0.0,0.0,0.0,0.0,0.0,0.0,0.0,0.0,0.0,0.0,0.0,0.0,0.0,0.0,0.0,0.0,0.0,0.0,0.0,0.0,0.0,0.0,0.0,0.0,0.0,0.0,0.0,0.0,0.0,0.0,0.0,0.0,0.0,0.0,0.0,0.0,0.0,0.0,0.0,0.0,0.0,0.0,0.0,0.0,0.0,0.0,0.0,0.0,0.0,0.0,0.0,0.0,0.0,0.0,0.0,0.0,0.0,0.0,0.0,0.0,0.0,0.0,0.0,0.0,0.0,0.0,0.0,0.0,0.0,0.0,0.0,0.0,0.0,0.0,0.0,0.0,0.0,0.0,0.0,0.0,0.0,0.0,0.0,0.0,0.0,0.0,0.0,0.0,0.0,0.0,0.0,0.0,0.0,0.0,0.0,0.0,0.0,0.0,0.0,0.0,0.0,0.0,0.0,0.0,0.0,0.0,0.0,0.0,0.0,0.0,0.0,0.0,0.0,0.0,0.0,0.0,0.0,0.0,0.0,0.0,0.0,0.0,0.0,0.0,0.0,0.0,0.0,0.0,0.0,0.0,0.0,0.0,0.0,0.0,0.0,0.0,0.0,0.0,0.0,0.0,0.0,0.0,0.0,0.0,0.0,0.0,0.0,0.0,0.0,0.0,0.0,0.0,0.0,0.0,0.0,0.0,0.0,0.0,0.0,0.0,0.0,0.0,0.0,0.0,0.0,0.0,0.0,0.0,0.0,0.0,0.0,0.0,0.0,0.0,0.0,0.0,0.0,0.0,0.0,0.0,0.0,0.0,0.0,0.0,0.0,0.0,0.0,0.0,0.0,0.0,0.0,0.0,0.0,0.0,0.0,0.0,0.0,0.0,0.0,0.0,0.0,0.0,0.0,0.0,0.0,0.0,0.0,0.0,0.0,0.0,0.0,0.0,0.0,0.0,0.0,0.0,0.0,0.0,0.0,0.0,0.0,0.0,0.0,0.0,0.0,0.0,0.0,0.0,0.0,0.0,0.0,0.0,0.0,0.0,0.0,0.0,0.0,0.0,0.0,0.0,0.0,0.0,0.0,0.0,0.0,0.0,0.0,0.0,0.0,0.0,0.0,0.0,0.0,0.0,0.0,0.0,0.0,0.0,0.0,0.0,0.0,0.0,0.0,0.0,0.0,0.0,0.0,0.0,0.0,0.0,0.0,0.0,0.0,0.0,0.0,0.0,0.0,0.0,0.0,0.0,0.0,0.0,0.0,0.0,0.0,0.0,0.0,0.0,0.0,0.0,0.0,0.0,0.0,0.0,0.0,0.0,0.0,0.0,0.0,0.0,0.0,0.0,0.0,0.0,0.0,0.0,0.0,0.0,0.0,0.0,0.0,0.0,0.0,0.0,0.0,0.0,0.0,0.0,0.0,0.0,0.0,0.0,0.0,0.0,0.0,0.0,0.0,0.0,0.0,0.0,0.0,0.0,0.0,0.0,0.0,0.0,0.0,0.0,0.0,0.0,0.0,0.0,0.0,0.0,0.0,0.0,0.0,0.0,0.0,0.0,0.0,0.0,0.0,0.0,0.0,0.0,0.0,0.0,0.0,0.0,0.0,0.0,0.0,0.0,0.0,0.0,0.0,0.0,0.0,0.0,0.0,0.0,0.0,0.0,0.0,0.0,0.0,0.0,0.0,0.0,0.0,0.0,0.0,0.0,0.0,0.0,0.0,0.0,0.0,0.0,0.0,0.0,0.0,0.0,0.0,0.0,0.0,0.0,0.0,0.0,0.0,0.0,0.0,0.0,0.0,0.0,0.0,0.0,0.0,0.0,0.0,0.0,0.0,0.0,0.0,0.0,0.0,0.0,0.0,0.0,0.0,0.0,0.0,0.0,0.0,0.0,0.0,0.0,0.0,0.0,0.0,0.0,0.0,0.0,0.0,0.0,0.0,0.0,0.0,0.0,0.0,0.0,0.0,0.0,0.0,0.0,0.0,0.0,0.0,0.0,0.0,0.0,0.0,0.0,0.0,0.0,0.0,0.0,0.0,0.0,0.0,0.0,0.0,0.0,0.0,0.0,0.0,0.0,0.0,0.0,0.0,0.0,0.0,0.0,0.0,0.0,0.0,0.0,0.0,0.0,0.0,0.0,0.0,0.0,0.0,0.0,0.0,0.0,0.0,0.0,0.0,0.0,0.0,0.0,0.0,0.0,0.0,0.0,0.0,0.0,0.0,0.0,0.0,0.0,0.0,0.0,0.0,0.0,0.0,0.0,0.0,0.0,0.0,0.0,0.0,0.0,0.0,0.0,0.0,0.0,0.0,0.0,0.0,0.0,0.0,0.0,0.0,0.0,0.0,0.0,0.0,0.0,0.0,0.0,0.0,0.0,0.0,0.0,0.0,0.0,0.0,0.0,0.0,0.0,0.0,0.0,0.0,0.0,0.0,0.0,0.0,0.0,0.0,0.0,0.0,0.0,0.0,0.0,0.0,0.0,0.0,0.0,0.0,0.0,0.0,0.0,0.0,0.0,0.0,0.0,0.0,0.0,0.0,0.0,0.0,0.0,0.0,0.0,0.0,0.0,0.0,0.0,0.0,0.0,0.0,0.0,0.0,0.0,0.0,0.0,0.0,0.0,0.0,0.0,0.0,0.0,0.0,0.0,0.0,0.0,0.0,0.0,0.0,0.0,0.0,0.0,0.0,0.0,0.0,0.0,0.0,0.0,0.0,0.0,0.0,0.0,0.0,0.0,0.0,0.0,0.0,0.0,0.0,0.0,0.0,0.0,0.0,0.0,0.0,0.0,0.0,0.0,0.0,0.0,0.0,0.0,0.0,0.0,0.0,0.0,0.0,0.0,0.0,0.0,0.0,0.0,0.0,0.0,0.0,0.0,0.0,0.0,0.0,0.0,0.0,0.0,0.0,0.0,0.0,0.0,0.0,0.0,0.0,0.0,0.0,0.0,0.0,0.0,0.0,0.0,0.0,0.0,0.0,0.0,0.0,0.0,0.0,0.0,0.0,0.0,0.0,0.0,0.0,0.0,0.0,0.0,0.0,0.0,0.0,0.0,0.0,0.0,0.0,0.0,0.0,0.0,0.0,0.0,0.0,0.0,0.0,0.0,0.0,0.0,0.0,0.0,0.0,0.0,0.0,0.0,0.0,0.0,0.0,0.0,0.0,0.0,0.0,0.0,0.0,0.0,0.0,0.0,0.0,0.0,0.0,0.0,0.0,0.0,0.0,0.0,0.0,0.0,0.0,0.0,0.0,0.0,0.0,0.0,0.0,0.0,0.0,0.0,0.0,0.0,0.0,0.0,0.0,0.0,0.0,0.0,0.0,0.0,0.0,0.0,0.0,0.0,0.0,0.0,0.0,0.0,0.0,0.0,0.0,0.0,0.0,0.0,0.0,0.0,0.0,0.0,0.0,0.0,0.0,0.0,0.0,0.0,0.0,0.0,0.0,0.0,0.0,0.0,0.0,0.0,0.0,0.0,0.0,0.0,0.0,0.0,0.0,0.0,0.0,0.0,0.0,0.0,0.0,0.0,0.0,0.0,0.0,0.0,0.0,0.0,0.0,0.0,0.0,0.0,0.0,0.0,0.0,0.0,0.0,0.0,0.0,0.0,0.0,0.0,0.0,0.0,0.0,0.0,0.0,0.0,0.0,0.0,0.0,0.0,0.0,0.0,0.0,0.0,0.0,0.0,0.0,0.0,0.0,0.0,0.0,0.0,0.0,0.0,0.0,0.0,0.0,0.0,0.0,0.0,0.0,0.0,0.0,0.0,0.0,0.0,0.0,0.0,0.0,0.0,0.0,0.0,0.0,0.0,0.0,0.0,0.0,0.0,0.0,0.0,0.0,0.0,0.0,0.0,0.0,0.0,0.0,0.0,0.0,0.0,0.0,0.0,0.0,0.0,0.0,0.0,0.0,0.0,0.0,0.0,0.0,0.0,0.0,0.0,0.0,0.0,0.0,0.0,0.0,0.0,0.0,0.0,0.0,0.0,0.0,0.0,0.0,0.0,0.0,0.0,0.0,0.0,0.0,0.0,0.0,0.0,0.0,0.0,0.0,0.0,0.0,0.0,0.0,0.0,0.0,-4.6104,0.0,0.0,0.0,0.0,0.0,0.0,0.0,0.0,0.0,0.0,0.0,0.0,0.0,0.0,0.0,0.0,0.0,0.0,0.0,0.0,0.0,0.0,0.0,0.0,0.0,0.0,0.0,-4.968,-5.0438,-5.1606,-5.1354,-5.1732,-5.2998,-5.1759,-5.1216,-5.161,-5.0629,-5.0209,-5.0336,-4.9942,-4.9335,-4.8652,-5.0402,-5.1004,-5.0609,0.0,0.0,0.0,0.0,0.0,0.0,0.0,0.0,0.0,0.0,0.0,0.0,0.0,0.0,0.0,0.0,0.0,0.0,0.0,0.0,0.0,0.0,0.0,0.0,0.0,0.0,0.0,0.0,0.0,0.0,0.0,0.0,0.0,0.0,0.0,0.0,0.0,0.0,0.0,0.0,0.0,0.0,0.0,0.0,0.0,0.0,0.0,0.0,0.0,0.0,0.0,0.0,0.0,0.0,0.0,0.0,0.0,0.0,0.0,0.0,0.0,0.0,0.0,0.0,0.0,0.0,0.0,0.0,0.0,0.0,0.0,-4.8049,0.0,0.0,0.0,0.0,0.0,0.0,0.0,0.0,0.0,0.0,0.0,0.0,0.0,0.0,0.0,0.0,0.0,0.0,0.0,0.0,0.0,0.0,0.0,-4.9846,-4.9961,-4.9224,-4.9838,-5.0632,-5.143,-5.0818,-5.107,-5.2505,-5.1239,-5.0806,-5.1383,-5.0937,-5.055,-5.0159,-4.9516,-4.9458,-5.0018,-5.1441,-5.2083,0.0,0.0,0.0,0.0,0.0,0.0,0.0,0.0,0.0,0.0,0.0,0.0,0.0,0.0,0.0,0.0,0.0,0.0,0.0,0.0,0.0,0.0,0.0,0.0,0.0,0.0,0.0,0.0,0.0,0.0,0.0,0.0,0.0,0.0,0.0,0.0,0.0,0.0,0.0,0.0,0.0,0.0,0.0,0.0,0.0,0.0,0.0,0.0,0.0,0.0,0.0,0.0,0.0,0.0,0.0,0.0,0.0,0.0,0.0,0.0,0.0,0.0,0.0,0.0,0.0,-5.2858,-5.4179,-5.4436,-5.539,-5.5464,-5.473,-5.2711,-5.0472,-4.8287,-4.9774,0.0,0.0,0.0,0.0,0.0,0.0,0.0,0.0,0.0,0.0,0.0,0.0,0.0,0.0,0.0,0.0,0.0,0.0,0.0,0.0,0.0,-4.872,-4.8557,-4.9056,-4.928,-4.9723,-5.0604,-5.0609,-5.0678,-5.0919,-5.0689,-5.0954,-5.1721,-5.1628,-5.1168,-5.0457,-4.9677,-5.044,-5.2692,-5.2923,-5.3759,-5.4984,0.0,0.0,0.0,0.0,0.0,0.0,0.0,0.0,0.0,0.0,0.0,0.0,0.0,0.0,0.0,0.0,0.0,0.0,0.0,0.0,0.0,0.0,0.0,0.0,0.0,0.0,0.0,0.0,0.0,0.0,0.0,0.0,0.0,0.0,0.0,0.0,0.0,0.0,0.0,0.0,0.0,0.0,0.0,0.0,-4.6415,-4.5957,0.0,0.0,0.0,0.0,0.0,0.0,0.0,0.0,0.0,0.0,0.0,0.0,0.0,-5.2674,-5.3261,-5.4987,-5.517,-5.3775,-5.6198,-5.6345,-5.4436,-5.5978,-5.6602,-5.6492,-5.6161,0.0,-5.2176,-4.9664,0.0,0.0,0.0,0.0,0.0,0.0,0.0,0.0,0.0,0.0,0.0,0.0,0.0,0.0,0.0,0.0,0.0,0.0,0.0,0.0,0.0,-5.0144,-5.0821,-5.0632,-5.3625,-5.4506,-5.2027,-5.3663,-5.3433,-5.0593,-5.0457,-5.0648,-5.1075,-5.0511,-5.032,-5.05,-5.212,-5.349,-5.4626,-5.5626,-5.6472,-5.7088,-5.5626,-5.5192,-5.5314,-5.1919,0.0,0.0,0.0,0.0,0.0,0.0,0.0,0.0,0.0,0.0,0.0,0.0,0.0,0.0,0.0,0.0,0.0,0.0,0.0,0.0,0.0,0.0,0.0,0.0,0.0,0.0,0.0,0.0,0.0,0.0,0.0,0.0,0.0,0.0,0.0,0.0,0.0,0.0,0.0,-4.7462,-4.871,-4.559,-4.8196,-4.8967,0.0,0.0,0.0,0.0,0.0,0.0,0.0,0.0,0.0,-5.3482,-5.4179,-5.473,-5.506,-5.6675,-5.7373,-5.7152,-5.9538,-6.0419,-5.9869,-6.0566,-6.0896,-6.086,-5.9905,-5.84,-5.6322,-5.3078,-5.1096,-4.9994,0.0,0.0,0.0,0.0,-4.8196,-4.8526,0.0,0.0,0.0,0.0,0.0,0.0,0.0,0.0,0.0,0.0,0.0,0.0,-5.0197,-5.2142,-5.3382,-5.3403,-5.7379,-5.8285,-5.4491,-5.558,-5.4752,-5.1228,-5.0608,-5.0379,-5.0457,-5.0018,-5.0538,-5.211,-5.4726,-5.6242,-5.6703,-5.8473,-5.9281,-5.9281,-5.9511,-5.8396,-5.6242,-5.3392,-5.2034,0.0,0.0,0.0,0.0,0.0,0.0,0.0,0.0,0.0,0.0,0.0,0.0,0.0,0.0,0.0,0.0,0.0,0.0,0.0,0.0,0.0,0.0,0.0,0.0,0.0,0.0,0.0,0.0,0.0,0.0,0.0,0.0,0.0,0.0,0.0,0.0,0.0,0.0,-4.8673,-4.9701,-4.5223,-4.8857,-5.0105,0.0,0.0,0.0,0.0,0.0,0.0,-5.3151,-5.4766,-5.6014,-5.6785,-5.7226,-5.7556,-5.7799,-5.8951,-5.9869,-6.0493,-6.2071,-6.3135,-6.3759,-6.3759,-6.3759,-6.3686,-6.2218,-6.0786,-5.9258,-5.6014,-5.3151,-5.0785,-5.0381,-4.9921,-4.9627,-5.0031,-5.0198,-5.0381,0.0,0.0,0.0,0.0,0.0,0.0,0.0,0.0,0.0,0.0,0.0,-4.9586,-5.3501,-5.412,-5.5178,-5.7481,-5.7991,-5.8129,-5.7958,-5.4303,-5.2341,-5.2839,-5.1277,-5.0379,-5.0294,-5.1212,-5.3272,-5.6494,-5.6813,-5.7753,-5.9358,-6.1089,-6.1908,-6.1947,-6.2704,-6.2551,-6.1331,-5.5588,-5.4468,-5.613,0.0,0.0,0.0,0.0,0.0,0.0,0.0,0.0,0.0,0.0,0.0,0.0,0.0,0.0,0.0,0.0,0.0,0.0,0.0,0.0,0.0,0.0,0.0,0.0,0.0,0.0,0.0,0.0,0.0,0.0,0.0,0.0,0.0,0.0,0.0,0.0,0.0,0.0,0.0,-4.5112,-5.0325,0.0,0.0,0.0,0.0,-5.0655,-5.3518,-5.5647,-5.6528,-5.8084,-5.9355,-6.0126,-6.1667,-6.2842,-6.3649,-6.3723,-6.3796,-6.3833,-6.3135,-6.2817,-6.2879,-6.2879,-6.2879,-6.2842,-6.1961,-6.1117,-6.0089,-5.6859,-5.4987,-5.3995,-5.2491,-5.2307,-5.2894,-5.2123,-5.1887,-5.1756,0.0,0.0,0.0,0.0,0.0,0.0,0.0,0.0,-4.7945,-4.8751,-4.9852,-5.1954,-5.5617,-5.7581,-5.9803,-6.2571,-6.436,-6.4172,-6.1531,-5.8872,-5.6548,-5.468,-5.2391,-5.1403,-5.1888,-5.2943,-5.4572,-5.6801,-5.8569,-6.005,-6.1166,-6.1831,-6.2358,-6.2897,-6.3782,-6.3666,-6.2589,-5.8319,-5.6038,-5.5055,-5.1485,-5.0071,0.0,0.0,0.0,0.0,0.0,0.0,0.0,0.0,0.0,0.0,0.0,0.0,0.0,0.0,0.0,0.0,0.0,0.0,0.0,0.0,0.0,0.0,0.0,0.0,0.0,0.0,0.0,0.0,0.0,0.0,0.0,0.0,0.0,0.0,0.0,0.0,0.0,-5.183,-5.5133,0.0,-5.2087,-5.2821,-5.3628,-5.3849,-5.6381,-5.851,-5.9832,-6.1447,-6.2952,-6.4273,-6.4383,-6.4824,-6.5632,-6.5632,-6.5375,-6.4861,-6.5081,-6.4934,-6.4383,-6.387,-6.3649,-6.3576,-6.2732,-6.1924,-6.108,-5.9905,-5.7776,-5.506,-5.3959,-5.3408,-5.3203,-5.3445,-5.3555,-5.3482,0.0,0.0,0.0,0.0,0.0,0.0,0.0,0.0,-4.7719,-4.8083,-5.0674,-5.3896,-5.7586,-6.0871,-6.3883,-6.6566,-6.7874,-6.7113,-6.3794,-6.0329,-5.7276,-5.4733,-5.2406,-5.1708,-5.2803,-5.4373,-5.6157,-5.8129,-6.0195,-6.1524,-6.2101,-6.2358,-6.2781,-6.3346,-6.4205,-6.4282,-6.3589,-6.1358,-5.8627,-5.5511,-5.2702,-5.1895,-5.2,0.0,0.0,0.0,0.0,0.0,0.0,0.0,0.0,0.0,0.0,0.0,0.0,0.0,0.0,0.0,0.0,0.0,0.0,0.0,0.0,0.0,0.0,0.0,0.0,0.0,0.0,0.0,0.0,0.0,0.0,0.0,0.0,0.0,0.0,0.0,-5.6308,-5.6051,-5.8621,-5.9245,-5.6271,-5.6748,-5.7446,-5.7997,-6.0309,-6.2254,-6.3576,-6.4714,-6.5778,-6.688,-6.6402,-6.6256,-6.6512,-6.6219,-6.5705,-6.4897,-6.5154,-6.4971,-6.4457,-6.3906,-6.3649,-6.3613,-6.3062,-6.2181,-6.119,-6.119,-5.9281,-5.6381,-5.6124,-5.5537,-5.4876,-5.5427,-5.5427,-5.5133,0.0,0.0,0.0,0.0,0.0,0.0,0.0,-4.6713,-4.7857,-4.8555,-5.1476,-5.5192,-5.9555,-6.3723,-6.7136,-6.9321,-6.7965,-6.6241,-6.4603,-5.8064,-5.3825,-5.295,-5.1247,-5.1235,-5.3104,-5.5576,-5.8141,-6.0774,-6.168,-6.2101,-6.2139,-6.2897,-6.3281,-6.3308,-6.4205,-6.4589,-6.4589,-6.4589,-6.2243,-5.8204,-5.4741,-5.428,-5.5318,0.0,0.0,0.0,0.0,0.0,0.0,0.0,0.0,0.0,0.0,0.0,0.0,0.0,0.0,0.0,0.0,0.0,0.0,0.0,0.0,0.0,0.0,0.0,0.0,0.0,0.0,0.0,0.0,0.0,0.0,0.0,0.0,0.0,-5.0949,-5.5133,-5.7886,-5.7226,-6.0542,-6.1386,-5.7556,-6.0676,-6.2952,-6.2952,-6.5191,-6.688,-6.765,-6.7687,-6.7687,-6.7687,-6.7687,-6.7283,-6.6512,-6.5742,-6.4934,-6.409,-6.3246,-6.2817,-6.278,-6.278,-6.278,-6.278,-6.2743,-6.1887,-6.0456,-6.0419,-5.9465,-5.8107,-5.8877,-5.8694,-5.7997,-5.796,-5.7446,-5.6492,0.0,0.0,0.0,0.0,0.0,0.0,0.0,-4.7161,-4.8568,-4.906,-5.3242,-5.7959,-6.2597,-6.6745,-6.9966,-7.1849,-6.8295,-6.5545,-6.4523,-5.6913,-5.2631,-5.29,-5.194,0.0,-5.8298,-5.8002,-5.9367,-6.249,-6.2257,-6.2101,-6.2101,-6.232,-6.2435,-6.2474,-6.3935,-6.4589,-6.4589,-6.4589,-6.3935,-6.2512,-5.8511,-5.6088,-5.4664,0.0,0.0,0.0,0.0,0.0,0.0,0.0,0.0,0.0,0.0,0.0,0.0,0.0,0.0,0.0,0.0,0.0,0.0,0.0,0.0,0.0,0.0,0.0,0.0,0.0,0.0,0.0,0.0,0.0,0.0,0.0,-5.1977,-5.5317,-5.6712,-5.9061,-6.163,-6.4383,-6.5154,-6.5521,-6.5595,-6.6035,-6.6329,-6.6329,-6.754,-6.8091,-6.7724,-6.7687,-6.7687,-6.7687,-6.7687,-6.7283,-6.6512,-6.6292,-6.5485,-6.409,-6.387,-6.3429,-6.278,-6.278,-6.278,-6.2743,-6.2181,-6.1667,-6.1227,-6.0639,-5.9795,-5.8817,-5.8474,-5.818,-5.7923,-5.7336,-5.6271,-5.4987,0.0,0.0,0.0,0.0,0.0,0.0,0.0,-4.7453,-4.882,-4.9235,-5.4743,-5.9811,-6.2937,-6.7706,-7.0705,-7.0932,-6.7331,-6.411,-6.1927,-5.5827,0.0,0.0,0.0,-5.6033,-5.946,-6.0046,-6.144,-6.3809,-6.3346,-6.3128,-6.3166,-6.3512,-6.3678,-6.3755,-6.5051,-6.5859,-6.6205,-6.6167,-6.5756,-6.4974,-6.2822,-6.063,-5.8473,-5.6203,-5.5164,-5.4703,-5.3164,-5.3164,-5.3587,-5.1241,0.0,0.0,0.0,0.0,0.0,0.0,0.0,0.0,0.0,0.0,0.0,0.0,0.0,0.0,0.0,0.0,0.0,0.0,0.0,0.0,0.0,0.0,0.0,0.0,-5.528,-5.9245,-6.1887,-6.3062,-6.4897,-6.8274,-6.7981,-6.8017,-6.9265,-6.9265,-6.9082,-6.8715,-6.9155,-6.9045,-6.8238,-6.7871,-6.7687,-6.7687,-6.7687,-6.7136,-6.5999,-6.5999,-6.5191,-6.3576,-6.3576,-6.3282,-6.278,-6.278,-6.278,-6.2768,-6.1961,-6.141,-6.1043,-6.0236,-5.9428,0.0,0.0,0.0,0.0,0.0,-5.5721,-5.4803,0.0,0.0,0.0,0.0,0.0,0.0,0.0,-4.7618,-4.8891,-4.9196,-5.5708,-6.0623,-6.1525,-6.6976,-6.9773,-6.7822,-6.5264,-6.1937,-5.7695,0.0,0.0,-5.2401,-5.6237,-5.8563,-5.8892,-6.1927,-6.3911,-6.4743,-6.4666,-6.4666,-6.4743,-6.5436,-6.5859,-6.6051,-6.6782,-6.759,-6.8385,-6.8317,-6.7486,-6.6231,-6.6896,-6.6064,-6.4051,-6.0281,-5.9665,-6.0473,-5.805,-5.5895,-5.4049,-5.2846,0.0,0.0,0.0,0.0,0.0,0.0,0.0,0.0,0.0,0.0,0.0,0.0,0.0,0.0,0.0,0.0,0.0,0.0,0.0,0.0,0.0,0.0,0.0,0.0,-5.8804,-6.2438,-6.6219,-6.6916,-6.7797,-6.9853,-6.9486,-6.9339,-7.0146,-7.0807,-7.0881,-7.0146,-7.0,-6.9596,-6.8825,0.0,0.0,0.0,0.0,-6.6843,-6.5301,-6.5228,-6.4383,-6.278,-6.278,-6.278,-6.278,-6.2732,-6.2658,-6.2622,-6.1704,-6.0933,-6.0199,-5.9404,-5.8657,-5.807,-5.8804,-5.851,-5.7556,-5.6124,-5.5486,-5.5133,0.0,0.0,0.0,0.0,0.0,0.0,0.0,-4.7249,-4.8995,-4.8919,-5.482,-5.9246,-5.974,-6.4652,-6.7137,-6.5146,-6.2063,-5.822,0.0,0.0,0.0,0.0,-5.8664,-6.1172,-6.3233,-6.4667,-6.5462,-6.5628,-6.4936,-6.4974,-6.5628,-6.5089,-6.5551,-6.6859,-6.7013,-6.759,-6.8385,-6.8371,-6.8152,-6.7843,-6.805,-6.6308,-6.3474,-6.2627,-6.1704,-6.055,-5.8704,-5.905,-5.9946,-5.7011,-5.6588,-5.678,-5.3923,0.0,0.0,0.0,0.0,0.0,0.0,0.0,0.0,0.0,0.0,0.0,0.0,0.0,0.0,0.0,0.0,0.0,0.0,0.0,0.0,-5.7079,-6.1924,-6.6035,-6.8164,-6.9559,-7.0293,-7.011,-6.9963,-7.0183,-7.0991,-7.0624,-7.0257,-7.011,-6.9486,-6.8788,-6.7981,-6.776,-6.7687,-6.7687,-6.7063,-6.6256,-6.5301,-6.464,-6.3833,-6.278,0.0,0.0,-6.278,-6.2144,-6.1814,-6.1741,-6.0309,-5.9588,-5.9368,-5.8547,-5.8143,-5.8033,-5.818,-5.7336,-5.6014,-5.5706,-5.4766,-5.3628,0.0,0.0,0.0,0.0,0.0,0.0,0.0,-4.6652,-4.8087,-4.8704,-5.3701,-5.7248,-5.7446,-6.1595,-6.3328,-6.0623,-5.7392,0.0,0.0,-5.3887,0.0,0.0,0.0,0.0,0.0,0.0,0.0,0.0,0.0,0.0,0.0,-6.7167,-6.759,-6.8436,-6.8821,-6.9231,-6.9613,-6.9571,-6.926,-6.8887,-6.9333,-6.8262,-6.6346,-6.5987,-6.482,-6.3243,-6.2397,-6.182,-6.1139,-5.8973,-5.8242,-5.7896,-5.578,-5.3664,-5.1625,0.0,0.0,0.0,0.0,0.0,0.0,0.0,0.0,0.0,0.0,0.0,0.0,0.0,0.0,-4.9444,-5.1059,0.0,-5.7886,-6.1117,-6.4383,-6.7063,-6.8678,-6.9963,-7.0844,-7.1248,-7.0954,-7.0881,-7.1284,-7.0954,-7.0367,-6.9559,-6.9119,-6.8568,-6.7724,-6.7687,-6.7687,-6.7687,-6.6916,-6.6109,-6.5301,-6.4494,-6.3649,-6.278,-6.278,-6.278,-6.2805,-6.2401,-6.2218,-6.2108,-6.0493,-5.9795,-5.9722,-5.851,-5.7997,-5.7997,-5.7997,-5.7519,-5.6675,-5.5926,-5.5097,-5.4289,0.0,0.0,0.0,0.0,0.0,0.0,0.0,-4.603,-4.7021,-4.8248,-5.2273,-5.4964,-5.4748,-5.8121,-5.9185,-5.6155,-5.3448,0.0,0.0,0.0,0.0,0.0,0.0,0.0,0.0,0.0,0.0,0.0,0.0,0.0,0.0,0.0,0.0,0.0,-7.0437,-7.0703,-7.0787,-7.0729,-7.0301,-6.9681,-7.0364,-7.0256,-6.963,-6.8883,-6.7692,-6.632,-6.582,-6.3435,-6.0473,-6.0127,-5.8781,-5.7176,-5.6819,-5.6011,-5.478,-5.2356,-5.2049,0.0,0.0,0.0,0.0,0.0,0.0,0.0,0.0,0.0,-4.7315,-4.8103,-5.0362,-5.2931,-5.539,-5.8217,-6.1227,-6.453,-6.6145,-6.743,-6.8715,-6.9596,-7.0587,-7.1872,-7.1615,-7.1293,-7.1293,-7.1027,-7.0293,-6.9009,-6.8752,-6.8385,-6.7724,-6.7687,-6.7614,-6.7467,-6.6696,-6.5888,-6.5081,-6.4273,-6.3503,-6.278,-6.278,-6.278,-6.278,-6.2658,-6.2475,-6.2254,-6.0639,-5.9942,-5.9832,-5.8547,-5.7997,-5.7997,-5.7997,-5.7997,-5.7813,-5.6198,-5.5596,-5.5354,0.0,0.0,0.0,0.0,0.0,0.0,0.0,0.0,-4.6694,-4.6967,-5.0334,-5.2376,-5.1613,-5.4251,-5.5352,-5.3475,0.0,0.0,0.0,0.0,0.0,0.0,0.0,0.0,0.0,0.0,0.0,0.0,0.0,0.0,0.0,0.0,0.0,0.0,0.0,-7.0203,-7.0787,-7.0787,-7.0661,-7.0486,-7.0639,-7.0586,-7.0386,-6.9668,-6.8831,-6.7821,-6.5551,-6.2551,-5.9858,-6.132,-6.0165,-5.8396,-5.9781,-5.9165,-5.7511,-5.5665,0.0,-4.9548,-4.8202,-4.6905,-4.6071,-4.6683,-4.6769,-4.7357,0.0,0.0,-5.1536,-5.2344,-5.5023,-5.7079,-5.6748,-6.0456,-6.3686,-6.4163,-6.6696,-6.8678,-6.8862,-6.9596,-7.0183,-7.033,-7.0917,-7.1293,-7.1293,-7.0036,-6.9082,-6.8935,-6.8238,-6.7797,-6.7687,-6.7687,-6.7357,-6.6659,-6.5852,-6.5044,-6.4237,-6.3392,-6.2915,-6.278,-6.278,-6.278,-6.278,-6.2071,-6.1337,-6.0603,-5.8951,-5.8253,-5.8253,-5.807,-5.7997,-5.7997,-5.7997,-5.7997,-5.7813,-5.6198,-5.5596,-5.5354,0.0,0.0,0.0,0.0,0.0,0.0,0.0,0.0,0.0,-4.6158,-4.808,-4.9301,-4.892,-5.0139,-5.0677,0.0,0.0,0.0,0.0,0.0,0.0,0.0,0.0,0.0,0.0,0.0,0.0,0.0,0.0,0.0,0.0,0.0,0.0,0.0,0.0,0.0,0.0,-7.2134,-7.2071,-7.1959,-7.1472,-7.1296,-7.106,-6.8829,-6.6918,-6.5257,-6.4218,-6.1666,0.0,0.0,-5.8011,-5.7665,-5.8357,-5.8088,-5.7088,-5.4895,-5.2972,0.0,-4.9317,-4.7808,-4.6948,0.0,-4.8664,-4.9931,-5.1222,-5.3209,-5.4876,-5.5244,-5.785,-6.0272,-6.0933,-6.3099,-6.5264,0.0,-6.7614,-6.8385,-6.8825,-6.8788,-6.8348,-6.743,-6.7614,-6.8385,-6.9779,-6.9302,-6.8715,-6.8238,-6.7871,-6.7687,-6.7687,-6.7687,-6.732,-6.6512,-6.5742,-6.5154,-6.4787,-6.398,-6.3576,-6.3576,-6.3576,-6.3282,-6.2743,-6.1961,-6.0896,-5.9685,-5.8988,-5.8437,-5.7997,-5.7997,-5.7997,-5.7997,-5.7997,-5.7997,-5.785,-5.6712,-5.6308,-5.6088,0.0,0.0,0.0,0.0,0.0,0.0,0.0,0.0,0.0,0.0,-4.6529,-4.726,-4.7464,-4.809,0.0,0.0,0.0,0.0,0.0,0.0,0.0,0.0,0.0,0.0,0.0,0.0,0.0,0.0,0.0,0.0,0.0,0.0,0.0,0.0,0.0,0.0,0.0,0.0,-7.3216,-7.2996,-7.1802,-7.1239,-7.0707,-6.7018,-6.435,-6.2452,-6.2322,-5.9665,0.0,0.0,-5.5329,-5.5406,-5.6099,-5.6329,-5.5906,-5.3818,-5.2549,-5.1385,-4.9471,-4.8503,0.0,-4.9013,-5.0879,-5.2698,-5.3502,-5.5816,-5.7923,-5.8364,-6.0309,-6.2218,-6.3209,-6.4273,-6.5558,-6.7283,-6.7467,-6.7577,-6.8164,-6.754,-6.6439,-6.4824,-6.442,-6.4971,-6.6733,-6.732,-6.7504,-6.7357,-6.7357,-6.7467,-6.7687,-6.7467,-6.71,-6.6512,-6.5742,-6.5301,-6.5301,-6.4714,-6.442,-6.442,-6.42,-6.3759,-6.3135,-6.1851,-6.0529,-5.9184,-5.8964,-5.8547,-5.7997,-5.7997,-5.7997,-5.7997,-5.7997,-5.7997,-5.7923,-5.7336,-5.7152,-5.6859,0.0,0.0,0.0,0.0,0.0,0.0,0.0,0.0,0.0,0.0,0.0,0.0,0.0,0.0,0.0,0.0,0.0,0.0,0.0,0.0,0.0,0.0,0.0,0.0,0.0,0.0,0.0,0.0,0.0,0.0,0.0,0.0,0.0,0.0,0.0,0.0,0.0,0.0,0.0,0.0,-7.1164,-6.9927,-6.8798,-6.4264,-6.1773,-6.0585,-5.9888,0.0,0.0,0.0,-5.2895,-5.1327,-5.378,-5.4587,0.0,-5.3472,-5.0856,-4.824,-4.8154,0.0,-4.9352,-5.1471,-5.3495,-5.5487,-5.7471,-5.9168,-6.075,-6.2328,-6.267,-6.2548,-6.1814,-6.3025,-6.4163,-6.4237,-6.5521,-6.6549,-6.6586,-6.5888,-6.4751,-6.3074,-6.2181,-6.1741,0.0,-6.3282,-6.4861,-6.6402,-6.6549,-6.688,-6.765,-6.6953,-6.6512,-6.6512,-6.5742,-6.5301,-6.5301,-6.5301,-6.5264,-6.5264,-6.4457,-6.409,-6.398,-6.1557,-5.9979,-5.9148,-5.84,-5.8033,-5.7997,-5.7997,-5.7997,-5.7997,-5.7997,-5.7997,-5.7997,-5.796,-5.796,-5.7629,0.0,0.0,0.0,0.0,0.0,0.0,0.0,0.0,0.0,0.0,0.0,0.0,0.0,0.0,0.0,0.0,0.0,0.0,0.0,0.0,0.0,0.0,0.0,0.0,0.0,0.0,0.0,0.0,0.0,0.0,0.0,0.0,0.0,0.0,0.0,0.0,0.0,0.0,0.0,0.0,0.0,0.0,-6.7504,-6.3535,-5.9845,-5.6673,0.0,0.0,0.0,0.0,0.0,0.0,-4.9971,-5.024,-4.9971,-4.8586,-4.8548,-4.9,-4.9308,0.0,-5.3898,-5.59,-5.7992,-5.9825,-6.0956,-6.25,-6.3356,-6.2218,-6.1594,-6.097,-6.0162,-6.0015,-6.0566,-6.2181,-6.3833,-6.5081,-6.5632,-6.5925,-6.4677,-6.0835,-6.1117,0.0,0.0,0.0,0.0,-6.5558,-6.5705,-6.6292,-6.7614,-6.743,-6.7026,-6.6512,-6.5742,-6.5558,-6.6109,-6.5595,-6.5301,-6.5301,-6.3906,-6.2695,-6.163,-6.0786,-5.9685,-5.84,-5.8107,-5.7997,-5.7997,-5.7997,-5.7997,-5.7997,-5.7997,-5.7997,-5.7997,-5.7997,-5.7666,-5.7005,0.0,0.0,0.0,0.0,0.0,0.0,0.0,0.0,0.0,0.0,0.0,0.0,0.0,0.0,0.0,0.0,0.0,0.0,0.0,0.0,0.0,0.0,0.0,0.0,0.0,0.0,0.0,0.0,0.0,0.0,0.0,0.0,0.0,0.0,0.0,0.0,0.0,0.0,0.0,0.0,0.0,0.0,-6.3984,-5.9817,-5.6297,0.0,0.0,0.0,0.0,0.0,0.0,0.0,-4.7201,-4.7201,-4.7124,-4.6624,-4.8086,-5.021,-5.1777,-5.4579,-5.7589,-5.9814,-6.1491,-6.2818,-6.3564,-6.4053,-6.3723,-6.1263,-5.9648,-5.8253,-5.6895,-5.5978,-5.6418,-5.9391,-6.0786,-6.2291,-6.4567,-6.4567,-6.3246,-6.0419,-6.0199,-5.9612,0.0,0.0,0.0,-6.42,-6.4971,-6.5888,-6.7173,-6.7247,-6.7173,-6.6953,-6.6145,-6.6109,-6.6916,-6.6145,-6.5448,-6.4861,-6.3796,-6.2254,-6.0419,-6.0419,-5.9538,-5.7997,-5.7997,-5.7997,-5.7997,-5.7997,-5.7997,-5.7997,-5.7997,-5.7997,-5.7997,-5.7997,-5.7666,-5.7079,0.0,0.0,0.0,0.0,0.0,0.0,0.0,0.0,0.0,0.0,0.0,0.0,0.0,0.0,0.0,0.0,0.0,0.0,0.0,0.0,0.0,0.0,0.0,0.0,0.0,0.0,0.0,0.0,0.0,0.0,0.0,0.0,0.0,0.0,0.0,0.0,0.0,0.0,0.0,0.0,0.0,0.0,-5.859,-5.3736,0.0,0.0,0.0,0.0,0.0,0.0,0.0,0.0,0.0,-4.5671,-4.6056,-4.7778,-4.9625,-5.1851,-5.5448,-5.8126,-6.0471,-6.3035,-6.4029,-6.4499,-6.5107,-6.387,-6.1936,-5.9515,-5.7042,-5.4604,0.0,0.0,-5.205,-5.6051,-5.6859,-5.8657,-6.3429,-6.2181,-6.1006,0.0,0.0,0.0,0.0,0.0,0.0,-6.2658,0.0,-6.5632,-6.6512,-6.6586,-6.6953,-6.7677,-6.6916,-6.688,-6.7687,-6.6843,-6.5668,-6.4163,-6.4053,-6.2768,-6.0419,-6.0419,-5.9538,-5.7997,-5.7997,-5.7997,-5.7997,-5.7997,-5.7997,-5.7997,-5.7997,-5.7997,-5.7997,-5.7997,-5.796,-5.7703,0.0,0.0,0.0,0.0,0.0,0.0,0.0,0.0,0.0,0.0,0.0,0.0,0.0,0.0,0.0,0.0,0.0,0.0,0.0,0.0,0.0,0.0,0.0,0.0,0.0,0.0,0.0,0.0,0.0,0.0,0.0,0.0,0.0,0.0,0.0,0.0,0.0,0.0,0.0,0.0,0.0,0.0,-5.624,0.0,0.0,0.0,0.0,0.0,0.0,0.0,0.0,0.0,0.0,-4.6471,-4.7932,-5.0231,-5.351,-5.6848,-5.8963,-6.2198,-6.5098,-6.5858,-6.595,-6.5673,-6.4756,-6.2255,-5.9404,-5.7005,-5.365,-5.0749,0.0,0.0,0.0,-5.4473,-5.7519,0.0,-6.3649,-6.5081,0.0,-6.2768,0.0,-6.2805,-6.1153,-6.1924,0.0,0.0,-6.4163,-6.5264,-6.7283,-6.7944,-6.8128,-6.7687,-6.6916,-6.688,-6.7687,-6.6329,-6.5411,-6.4971,-6.3723,-6.2181,-6.0419,-6.0419,-5.9538,-5.7997,-5.7997,-5.7997,-5.7997,-5.7997,-5.7997,-5.7997,-5.7997,-5.7997,-5.7997,-5.7997,-5.7629,-5.6969,0.0,0.0,0.0,0.0,0.0,0.0,0.0,0.0,0.0,0.0,0.0,0.0,0.0,0.0,0.0,0.0,0.0,0.0,0.0,0.0,0.0,0.0,0.0,0.0,0.0,0.0,0.0,0.0,0.0,0.0,0.0,0.0,0.0,0.0,0.0,0.0,0.0,0.0,0.0,0.0,0.0,0.0,0.0,0.0,0.0,0.0,0.0,0.0,0.0,0.0,0.0,-4.6894,-4.8009,-4.9548,-5.1471,-5.4395,0.0,-6.0185,-6.2298,-6.4952,-6.7117,-6.7346,-6.6684,-6.5426,-6.3272,-6.0354,-5.7079,-5.3288,-5.0365,0.0,-4.6471,-4.6874,0.0,0.0,0.0,0.0,-6.2952,-6.4383,-6.4861,0.0,-6.464,0.0,-6.3319,-6.3759,-6.453,0.0,-6.5668,-6.6109,-6.71,-6.8274,-6.8531,-6.7724,-6.6916,-6.6549,-6.6659,-6.5742,-6.5118,-6.4751,-6.3429,-6.2144,-6.0933,-6.0933,-6.0052,-5.8547,0.0,-5.8327,-5.7997,-5.7997,-5.7997,-5.7997,-5.7997,-5.7997,-5.7997,-5.7997,-5.7703,-5.7262,0.0,0.0,0.0,0.0,0.0,0.0,0.0,0.0,0.0,0.0,0.0,0.0,0.0,0.0,0.0,0.0,0.0,0.0,0.0,0.0,0.0,0.0,0.0,0.0,0.0,0.0,0.0,0.0,0.0,0.0,0.0,0.0,0.0,0.0,0.0,0.0,0.0,0.0,0.0,0.0,0.0,0.0,0.0,0.0,0.0,0.0,0.0,0.0,0.0,0.0,-4.8366,-4.8798,-5.1403,-5.3524,-5.5669,-5.8942,-6.1029,-6.2763,-6.5275,-6.6892,-6.7924,-6.7963,-6.6563,-6.4375,-6.1228,-5.8179,-5.4553,-4.9377,0.0,-4.5975,-4.3864,-4.4232,-4.6214,-5.0288,0.0,-5.5721,-6.2108,-6.2475,-6.3209,-6.6292,-6.5411,-6.4861,-6.5558,-6.5081,-6.5558,-6.754,-6.7898,-6.765,-6.6843,-6.8164,-6.8531,-6.7724,-6.7026,-6.6329,-6.5632,-6.5411,-6.4971,-6.4237,-6.3282,-6.2401,-6.1594,-6.1594,-6.0713,-5.9184,-5.9184,-5.8767,-5.7997,-5.7997,-5.7997,-5.7997,-5.7997,-5.7997,-5.7997,-5.7997,-5.7997,-5.796,0.0,0.0,0.0,0.0,0.0,0.0,0.0,0.0,0.0,0.0,-4.7364,0.0,0.0,0.0,0.0,0.0,0.0,0.0,0.0,0.0,0.0,0.0,0.0,0.0,0.0,0.0,0.0,0.0,0.0,0.0,0.0,0.0,0.0,0.0,0.0,0.0,0.0,0.0,0.0,0.0,0.0,0.0,0.0,0.0,0.0,0.0,0.0,0.0,0.0,0.0,-5.0002,-5.0256,-5.3064,-5.5695,-5.8327,-6.1268,-6.4051,-6.6257,-6.6941,-6.8848,-7.0079,-6.7691,-6.5829,-6.3553,-5.9738,-5.5307,0.0,0.0,-4.5698,-4.3975,-4.3588,-4.4709,-4.7021,-5.1132,0.0,0.0,-6.3062,-6.4347,-6.5375,0.0,-6.7247,-6.7136,-6.7247,-6.776,0.0,0.0,-6.8935,-6.9339,-6.8531,-6.8752,-6.8531,-6.7724,-6.754,-6.7393,-6.7283,-6.5962,-6.5228,-6.5081,-6.3539,-6.2401,-6.1594,-6.1594,-6.0713,-5.9184,-5.9184,0.0,-5.7997,-5.7997,-5.7997,-5.7997,-5.7997,-5.7997,-5.7997,-5.7997,-5.7997,-5.7886,0.0,0.0,0.0,0.0,0.0,0.0,0.0,0.0,0.0,0.0,-5.2559,-5.0712,0.0,0.0,0.0,0.0,0.0,0.0,0.0,0.0,0.0,0.0,0.0,0.0,0.0,0.0,0.0,0.0,0.0,0.0,0.0,0.0,0.0,0.0,0.0,0.0,0.0,0.0,0.0,0.0,0.0,0.0,0.0,0.0,0.0,0.0,0.0,0.0,0.0,0.0,-4.9924,-5.104,-5.5796,-5.9048,-6.1578,-6.4158,-6.6162,-6.7642,-6.8556,-6.9859,-7.0462,-6.8173,-6.5386,-6.1888,-5.7163,0.0,0.0,0.0,-4.3767,-4.2873,-4.2873,0.0,0.0,0.0,0.0,0.0,0.0,0.0,0.0,-6.6109,-6.7173,-6.7687,0.0,-6.8054,-6.8274,-6.8311,-6.8641,-6.8678,-6.8311,-6.8274,-6.7907,-6.71,-6.7467,-6.7504,-6.7063,-6.5888,-6.5521,-6.5888,-6.3796,-6.2842,-6.2879,-6.2438,-6.1374,-5.9808,-5.9808,-5.9134,-5.7997,-5.7997,-5.7997,-5.7997,-5.7997,-5.7997,-5.7997,-5.7997,-5.7997,-5.7923,0.0,0.0,0.0,0.0,0.0,0.0,0.0,-5.1241,-5.1972,-5.7588,-5.7715,-5.5945,-5.2443,-4.9173,-4.6787,0.0,0.0,0.0,0.0,0.0,0.0,0.0,0.0,0.0,0.0,0.0,0.0,0.0,0.0,0.0,0.0,0.0,0.0,0.0,0.0,0.0,0.0,0.0,0.0,0.0,0.0,0.0,0.0,0.0,0.0,0.0,0.0,0.0,0.0,0.0,-4.9495,-5.102,-5.6677,-6.0501,-6.3332,-6.5049,-6.6657,-6.8174,-6.9369,-7.0289,-7.0469,-6.8506,-6.4879,-6.033,-5.4854,-5.0083,0.0,0.0,-4.2193,-4.2029,-4.2029,0.0,0.0,0.0,0.0,0.0,0.0,0.0,0.0,0.0,0.0,0.0,-6.7724,-6.7981,0.0,-6.8605,-6.8054,-6.7687,-6.7687,-6.7687,-6.7393,-6.6769,-6.7357,-6.7283,-6.6512,-6.5705,-6.5521,-6.5962,-6.3833,-6.3172,-6.3796,-6.3135,-6.1924,-6.0419,-6.0419,-5.9501,-5.7997,-5.7997,-5.7997,-5.7997,-5.7997,-5.7997,-5.7997,-5.7997,-5.7997,-5.7997,0.0,0.0,0.0,0.0,0.0,0.0,0.0,-5.1808,-5.4308,-6.1743,-6.0089,-5.7742,-5.656,-5.4087,-5.0625,0.0,0.0,0.0,0.0,0.0,0.0,0.0,0.0,0.0,0.0,0.0,0.0,0.0,0.0,0.0,0.0,0.0,0.0,0.0,0.0,0.0,0.0,0.0,0.0,0.0,0.0,0.0,0.0,0.0,0.0,0.0,0.0,0.0,0.0,0.0,0.0,-4.9603,-5.2482,-5.7001,-6.1199,-6.0973,0.0,0.0,-6.8271,-6.9895,-7.0893,-6.7926,-6.4099,-5.9594,-5.4203,0.0,0.0,-4.2247,-4.1465,-4.1205,-4.1205,0.0,0.0,0.0,0.0,0.0,0.0,0.0,0.0,0.0,0.0,0.0,0.0,-6.9009,0.0,-6.7907,-6.7724,-6.7687,-6.7687,-6.7687,-6.765,-6.7577,-6.765,-6.7283,-6.6512,-6.5705,-6.4971,-6.431,-6.3282,-6.2842,-6.289,-6.2842,-6.1924,-6.0419,-6.0419,-5.9501,0.0,-5.7997,-5.7997,-5.7997,-5.7997,-5.7997,-5.7997,-5.7997,-5.7997,-5.7997,0.0,0.0,0.0,0.0,0.0,0.0,0.0,-5.2049,-5.3703,-6.2897,-6.2474,-6.0781,-5.9435,-5.7896,-5.3933,0.0,0.0,0.0,0.0,0.0,0.0,0.0,0.0,0.0,0.0,0.0,0.0,0.0,0.0,0.0,0.0,0.0,0.0,0.0,0.0,0.0,0.0,0.0,0.0,0.0,0.0,0.0,0.0,0.0,0.0,0.0,0.0,0.0,0.0,0.0,0.0,0.0,-4.7048,-5.0491,0.0,0.0,-6.2382,-6.5817,-6.8103,-7.0196,-7.0914,-6.7675,-6.3131,-5.8164,-5.3197,0.0,0.0,-4.1949,-4.0984,-4.0377,-4.0377,0.0,0.0,0.0,0.0,0.0,0.0,0.0,0.0,0.0,0.0,0.0,0.0,0.0,-6.9633,-6.8495,-6.7944,-6.7467,-6.699,-6.743,-6.7687,-6.7687,-6.7687,-6.7283,-6.6512,-6.5705,-6.5154,-6.4824,-6.3466,-6.3062,-6.3539,-6.2548,-6.1447,-6.0382,-5.9905,-5.9061,0.0,-5.7997,-5.7997,-5.7997,-5.7997,-5.7997,-5.7997,-5.7997,-5.7997,-5.7997,0.0,0.0,0.0,0.0,0.0,0.0,-5.3664,-5.2472,-5.3933,-6.2358,-6.2935,-6.2204,-6.1281,-5.8819,-5.4703,-4.8394,0.0,0.0,0.0,0.0,0.0,0.0,0.0,0.0,0.0,0.0,-4.8394,-4.9009,-5.0115,-5.0594,0.0,0.0,0.0,0.0,0.0,0.0,0.0,0.0,0.0,0.0,0.0,0.0,0.0,0.0,0.0,0.0,0.0,0.0,0.0,0.0,0.0,0.0,0.0,0.0,0.0,0.0,-5.9005,-6.2875,-6.6109,-6.8541,-6.9616,-6.7197,-6.2188,-5.6742,0.0,0.0,0.0,-4.1808,-4.071,-3.99,-3.99,0.0,0.0,0.0,0.0,0.0,0.0,0.0,0.0,0.0,0.0,-6.4163,0.0,-6.8862,-6.9522,-6.8935,-6.8128,-6.7357,-6.6549,-6.7026,-6.7247,-6.699,-6.699,-6.6586,-6.5815,-6.5228,-6.4824,-6.4567,-6.3356,-6.3135,-6.3649,-6.2254,-6.1153,-6.0382,-5.9551,-5.8767,0.0,-5.7997,-5.7997,-5.7997,-5.7997,-5.7997,-5.7997,-5.7997,-5.7997,-5.7997,0.0,0.0,0.0,0.0,0.0,0.0,0.0,-5.3356,-5.5972,-6.0281,-6.0819,-6.1127,-6.1985,-5.6049,-5.2269,-5.3049,0.0,0.0,0.0,0.0,0.0,0.0,0.0,0.0,0.0,0.0,-4.8086,-4.8125,-4.9759,-5.0553,-5.05,-5.0435,-5.0379,0.0,0.0,0.0,0.0,0.0,0.0,0.0,0.0,0.0,0.0,0.0,0.0,0.0,0.0,0.0,0.0,0.0,0.0,0.0,0.0,0.0,0.0,0.0,-5.3785,-5.9899,-6.1503,-6.4216,-6.6511,-6.6356,-6.1225,-5.549,0.0,0.0,0.0,-4.1785,-4.0695,-3.99,-3.99,0.0,0.0,0.0,0.0,0.0,0.0,0.0,0.0,0.0,0.0,0.0,-6.3906,-6.7026,-6.8898,-6.8898,-6.8128,0.0,-6.6549,-6.6512,-6.6145,-6.5375,-6.5338,-6.4934,-6.4127,-6.4127,-6.3686,-6.2817,-6.278,-6.278,-6.2805,-6.1961,-6.1153,-6.0382,-5.9551,-5.8767,0.0,-5.7997,-5.7997,-5.7997,-5.7997,-5.7997,-5.7997,-5.7997,-5.7997,-5.7997,0.0,0.0,0.0,0.0,0.0,0.0,0.0,-4.8817,-5.0164,-5.4972,-5.5088,-5.5703,-5.833,-5.4587,-5.2,-5.2269,0.0,0.0,0.0,0.0,0.0,0.0,0.0,0.0,0.0,0.0,-4.924,-5.1587,-5.2064,-5.2587,-5.308,-5.1863,-5.1258,-5.1111,-4.9895,0.0,0.0,0.0,0.0,0.0,0.0,0.0,0.0,0.0,0.0,0.0,0.0,0.0,0.0,0.0,0.0,0.0,0.0,0.0,0.0,-4.4154,-4.8676,-5.4028,-5.6213,-5.8444,-5.9753,-5.8025,-5.5007,-5.1819,-4.9737,0.0,0.0,-4.23,-4.0606,-3.9239,0.0,0.0,0.0,0.0,0.0,0.0,0.0,0.0,0.0,0.0,0.0,0.0,0.0,0.0,-6.8678,-6.8128,-6.732,-6.6292,-6.4934,-6.4861,-6.5007,-6.5301,-6.5301,-6.4897,-6.409,-6.409,-6.3649,-6.278,-6.278,-6.278,-6.2743,-6.141,-6.0639,-6.0309,-5.8988,-5.8253,-5.7997,-5.7997,-5.7997,-5.7997,-5.7997,-5.7997,-5.7997,-5.7997,-5.7997,-5.7997,0.0,0.0,0.0,0.0,0.0,0.0,0.0,-4.6817,-4.7663,-5.0856,-5.0808,-5.201,-5.606,-5.2318,-5.0317,-5.2231,0.0,0.0,0.0,0.0,0.0,0.0,0.0,0.0,0.0,-4.8279,-5.0413,-5.4122,-5.4397,-5.5109,-5.6139,-5.5375,-5.3948,-5.204,-5.1314,0.0,0.0,0.0,0.0,0.0,0.0,0.0,-4.8969,0.0,0.0,0.0,0.0,0.0,0.0,0.0,0.0,0.0,0.0,0.0,0.0,0.0,-4.511,-4.8271,0.0,-5.3649,-5.5003,-5.4037,-5.1921,0.0,0.0,0.0,0.0,0.0,0.0,0.0,0.0,0.0,0.0,0.0,0.0,0.0,0.0,0.0,0.0,0.0,0.0,0.0,0.0,-6.9155,-6.8568,-6.776,-6.6953,-6.5815,-6.4163,-6.409,-6.4163,-6.4347,-6.4383,-6.4127,-6.3613,-6.3613,-6.3356,-6.278,-6.278,-6.2658,-6.2291,-6.1006,-6.0236,-5.9869,-5.8584,-5.7997,0.0,-5.7997,-5.7997,-5.7997,-5.7997,-5.7997,-5.7997,-5.7997,-5.7997,-5.7997,0.0,0.0,0.0,0.0,0.0,0.0,0.0,0.0,0.0,0.0,-4.7932,-4.9702,-5.4472,-4.9365,-4.7509,0.0,0.0,0.0,0.0,0.0,0.0,0.0,0.0,0.0,-4.7077,-4.8663,-5.1508,-5.5581,-5.6602,-5.7848,-5.9395,-6.0263,-5.7966,-5.3187,-5.3887,-5.2728,-5.0224,-4.957,-4.9161,-4.8973,-4.8605,-4.8641,0.0,0.0,0.0,0.0,0.0,0.0,0.0,0.0,0.0,0.0,0.0,0.0,0.0,0.0,0.0,0.0,0.0,-4.9502,-5.1576,-5.2891,-5.1035,-4.8423,-4.6972,0.0,0.0,0.0,0.0,0.0,0.0,0.0,0.0,0.0,0.0,0.0,0.0,0.0,0.0,0.0,-6.3649,0.0,-6.6439,-6.7907,-6.8458,-6.7577,-6.6843,-6.5705,-6.409,-6.4016,-6.3649,-6.2817,-6.278,-6.278,-6.278,-6.278,-6.278,-6.278,-6.278,-6.2401,-6.1557,-6.0786,-5.9979,0.0,-5.8364,-5.7997,-5.7997,-5.7997,-5.7997,-5.7997,-5.7997,-5.7997,-5.7997,-5.7997,-5.7997,-5.7997,0.0,0.0,0.0,0.0,0.0,0.0,0.0,0.0,0.0,0.0,0.0,-4.6633,-4.7826,-4.6556,0.0,0.0,0.0,0.0,0.0,0.0,0.0,0.0,0.0,0.0,-4.8779,-4.9856,-5.2095,-5.5593,-5.7707,-5.9562,-6.1117,-6.2011,-6.0376,-5.6664,-5.5632,-5.3226,-4.9884,-4.9483,-4.9161,-4.8973,-4.8532,-4.8071,0.0,0.0,0.0,0.0,-4.5828,-4.526,0.0,0.0,0.0,0.0,0.0,0.0,0.0,0.0,-4.2691,-4.2721,-4.3029,0.0,-4.4206,-4.3929,-4.4537,-4.4872,0.0,0.0,0.0,0.0,0.0,0.0,0.0,0.0,0.0,0.0,0.0,0.0,0.0,0.0,0.0,-6.3686,-6.699,-6.8311,-6.6659,-6.7393,-6.7393,-6.5962,-6.5705,-6.4861,-6.3209,-6.3099,-6.3025,-6.278,-6.278,-6.278,-6.278,-6.278,-6.278,-6.278,-6.278,-6.2401,-6.1557,-6.0786,-5.9979,-5.9148,-5.8364,-5.7997,-5.7997,-5.7997,-5.7997,-5.7997,-5.7997,-5.7997,-5.7997,-5.7997,-5.7997,-5.7997,0.0,0.0,0.0,0.0,0.0,0.0,0.0,0.0,0.0,0.0,0.0,0.0,0.0,0.0,0.0,0.0,0.0,0.0,0.0,0.0,0.0,0.0,0.0,0.0,-4.9394,-5.0625,-5.3227,-5.7311,-5.9088,-6.1134,-6.3408,-6.391,-6.1907,-5.7772,-5.4956,-5.2373,-5.0122,-4.9544,-4.891,-4.8227,-4.7942,0.0,0.0,0.0,0.0,0.0,-4.4968,-4.4573,0.0,-4.4406,-4.4246,-4.4019,0.0,0.0,0.0,0.0,-4.2918,-4.2672,-4.2203,-4.2277,-4.2485,-4.2121,-4.3232,-4.4057,-4.2774,0.0,0.0,0.0,0.0,0.0,0.0,0.0,0.0,0.0,-4.5718,0.0,0.0,0.0,0.0,-6.5411,-6.7393,-6.8238,0.0,-6.732,-6.6623,-6.5411,-6.4971,-6.42,-6.2879,-6.278,-6.278,-6.278,-6.278,-6.278,-6.278,-6.278,-6.278,-6.278,-6.2438,-6.1814,-6.1006,-6.0236,-5.9428,-5.8621,-5.818,-5.7997,-5.7997,-5.7997,-5.7997,-5.7997,-5.7997,-5.7997,-5.7997,-5.7997,-5.7997,-5.7997,0.0,0.0,0.0,0.0,0.0,0.0,0.0,0.0,0.0,0.0,0.0,0.0,0.0,0.0,0.0,0.0,0.0,0.0,0.0,0.0,0.0,0.0,0.0,-4.9625,-5.0154,-5.1298,-5.4194,-5.8898,-6.0469,-6.2667,-6.5413,-6.6283,-6.3695,-5.8156,-5.4269,-5.1811,-5.0409,-4.9536,-4.8504,-4.7475,-4.7241,0.0,0.0,0.0,0.0,0.0,0.0,0.0,0.0,-4.4857,-4.4602,-4.4103,-4.4862,0.0,0.0,0.0,0.0,0.0,-4.2992,-4.3366,-4.3731,-4.35,-4.409,-4.4421,-4.325,0.0,0.0,0.0,0.0,0.0,0.0,-4.3681,0.0,0.0,0.0,0.0,0.0,0.0,-6.2328,-6.6072,-6.6843,0.0,-6.8091,-6.7173,-6.6109,-6.5191,-6.4494,-6.3649,-6.2695,-6.2732,-6.267,-6.2413,-6.267,-6.267,-6.2438,-6.2585,-6.2622,-6.2622,-6.1814,-6.1006,-6.0199,-5.9515,-5.8767,-5.7997,0.0,0.0,-5.7997,-5.7997,-5.7997,-5.7997,-5.7997,-5.7997,-5.7997,-5.7997,-5.7997,-5.7997,0.0,0.0,0.0,0.0,0.0,0.0,0.0,0.0,0.0,0.0,0.0,0.0,0.0,0.0,0.0,0.0,0.0,0.0,0.0,0.0,0.0,0.0,-4.9683,-5.0711,-5.358,-5.2438,-5.3563,-5.7111,-6.1565,-6.4317,-6.549,-6.9927,-6.7779,-6.0073,-5.7914,-5.4316,-4.9848,-4.8871,-4.8205,-4.7756,-4.6752,0.0,0.0,0.0,0.0,0.0,0.0,0.0,0.0,-4.4212,-4.404,-4.3853,-4.4045,0.0,0.0,0.0,0.0,0.0,-4.4223,-4.5141,-4.553,-4.3232,-4.3217,-4.3502,0.0,0.0,0.0,0.0,0.0,0.0,0.0,0.0,-4.5553,0.0,0.0,-5.3555,0.0,0.0,-6.4273,-6.6256,0.0,-6.8311,-6.5118,-6.5852,-6.5888,-6.4383,-6.4163,-6.3429,-6.1851,-6.2438,-6.2181,-6.0823,-6.2108,-6.2144,-6.0786,-6.1447,-6.1777,-6.1777,-6.097,-6.0162,-5.9368,-5.9258,-5.8767,-5.7997,0.0,-5.7997,-5.7997,-5.7997,-5.7997,-5.7997,-5.7997,-5.7997,-5.7997,-5.7997,-5.7997,-5.7997,0.0,0.0,0.0,0.0,0.0,0.0,0.0,0.0,0.0,0.0,0.0,0.0,0.0,0.0,0.0,0.0,0.0,0.0,0.0,0.0,0.0,-5.3223,-5.2033,-5.2071,-5.3646,-5.4682,-5.6824,-6.0175,-6.3848,-6.6736,-6.8776,-6.8503,-6.5322,-5.9703,-5.6382,-5.3283,-5.0434,-4.9213,-4.8119,-4.7202,0.0,0.0,0.0,0.0,0.0,0.0,0.0,0.0,0.0,0.0,-4.4316,-4.3943,-4.4399,0.0,0.0,0.0,0.0,0.0,-4.3799,-4.402,-4.3984,-4.3312,-4.4075,-4.4675,0.0,0.0,0.0,0.0,0.0,0.0,0.0,0.0,-4.7572,-5.0618,0.0,-5.7373,-6.1557,-6.2879,-6.4016,0.0,0.0,-6.6476,-6.5485,-6.5264,-6.4714,-6.3503,-6.2989,-6.2218,-6.1006,-6.13,-6.1153,-6.0419,-6.1117,-6.1153,-6.0419,-6.0346,-6.0529,-6.0933,-6.0162,-5.9551,-5.9184,-5.8767,-5.8364,-5.7997,0.0,-5.7997,-5.7997,-5.7997,-5.7997,-5.7997,-5.7997,-5.7997,-5.7997,-5.7997,-5.7997,-5.7997,0.0,0.0,0.0,0.0,0.0,0.0,0.0,0.0,0.0,0.0,0.0,0.0,0.0,0.0,0.0,0.0,0.0,0.0,0.0,0.0,-5.183,-5.4572,-5.3962,-5.4242,-5.5708,-5.7668,-6.0508,-6.4263,-6.6934,-6.9773,-7.2549,-6.835,-6.3925,-5.9305,-5.5358,-5.2541,-5.0643,-4.9212,-4.7863,-4.6688,0.0,0.0,0.0,0.0,0.0,0.0,0.0,0.0,0.0,0.0,0.0,0.0,0.0,0.0,0.0,-4.382,-4.3383,-4.3005,-4.3417,-4.2974,-4.2611,-4.3542,0.0,0.0,0.0,0.0,0.0,0.0,0.0,0.0,0.0,-4.6892,0.0,-5.5537,-5.8327,-6.0529,-6.2732,-6.3576,-6.442,-6.5705,-6.5301,-6.5118,-6.5595,-6.453,-6.3356,-6.2328,-6.1667,-6.097,-6.0162,-6.0309,-6.0236,-5.9869,-6.0199,-6.0236,-5.9832,-5.9428,-5.9515,-6.0126,-5.9318,-5.8914,-5.8914,-5.829,-5.7997,-5.7997,-5.7997,-5.7997,-5.7997,-5.7997,-5.7997,-5.7997,-5.7997,-5.7997,-5.7997,-5.7997,-5.7997,-5.7997,0.0,0.0,0.0,0.0,0.0,0.0,0.0,0.0,0.0,0.0,0.0,0.0,0.0,0.0,0.0,0.0,0.0,0.0,0.0,0.0,-5.0992,-5.1928,-5.412,-5.7901,-6.3461,-6.1425,-6.2738,-6.7729,-7.0964,-7.3521,-7.5354,-7.3437,-6.8165,-6.0127,-5.813,-5.4416,-4.9594,-4.7998,-4.7118,-4.6645,-4.5152,0.0,0.0,0.0,0.0,0.0,0.0,0.0,0.0,0.0,0.0,0.0,0.0,0.0,-4.3667,-4.3832,-4.3475,-4.316,-4.4003,-4.3796,-4.3425,-4.3863,-4.3558,0.0,-4.6797,-4.7126,0.0,-4.8839,0.0,0.0,0.0,-4.9517,-5.3261,-5.8143,-6.0346,-6.2768,-6.6696,0.0,-6.7393,-6.7504,-6.7467,-6.6292,-6.3356,-6.2989,-6.2254,-6.0713,-6.0529,-6.0162,-5.9331,-6.0015,-5.9722,-5.8217,-5.9612,-5.9685,-5.818,-5.8877,-5.9221,-5.9258,-5.8474,-5.8107,-5.807,-5.8033,-5.7997,-5.7997,-5.7997,-5.7997,-5.7997,-5.7997,-5.7997,-5.7997,-5.7997,-5.7997,-5.7997,-5.7997,-5.7997,-5.7997,0.0,0.0,0.0,0.0,0.0,0.0,0.0,0.0,0.0,0.0,0.0,0.0,0.0,0.0,0.0,0.0,0.0,0.0,0.0,0.0,-5.1574,-5.3896,-5.4905,-5.7762,-6.2665,-6.4346,-6.7661,-7.2751,-7.4533,-7.4982,-7.4106,-6.9256,-6.4139,-5.8834,-5.5088,-5.2689,-5.123,-4.8573,-4.7788,-4.8166,-4.5774,-4.4463,0.0,0.0,0.0,0.0,0.0,0.0,0.0,0.0,-4.3923,0.0,0.0,0.0,0.0,0.0,-4.3336,-4.2723,-4.2706,-4.2708,-4.2738,-4.25,-4.3246,0.0,0.0,-4.8034,-4.8967,-5.0105,-5.1132,0.0,0.0,0.0,-5.55,-5.9318,-6.1741,-6.4016,-6.6586,-6.6953,-6.6953,-6.6953,-6.6072,-6.4751,-6.2964,-6.2365,-6.141,-5.9795,-5.9625,-5.9318,-5.851,-5.8731,-5.8621,-5.8033,-5.8584,-5.8621,-5.7997,-5.829,-5.8437,-5.8437,-5.8143,-5.7997,-5.7997,-5.7997,-5.7997,-5.796,-5.7483,-5.7262,-5.7226,-5.6712,-5.6492,-5.6565,-5.7042,-5.6932,-5.6638,-5.7629,-5.7666,-5.7336,0.0,0.0,0.0,0.0,0.0,0.0,0.0,0.0,0.0,0.0,0.0,0.0,0.0,0.0,0.0,0.0,0.0,0.0,0.0,-5.0082,-5.1639,-5.4125,-5.4727,-5.7009,-6.1256,-6.5718,-7.0232,-7.4817,-7.6727,-7.5622,-7.1617,-6.6715,-6.2862,-5.9881,-5.478,-5.3185,-5.4019,-4.991,-4.8373,-4.8562,-4.5935,-4.4506,0.0,0.0,0.0,0.0,0.0,0.0,0.0,0.0,0.0,0.0,0.0,0.0,0.0,0.0,0.0,-4.2162,-4.1683,-4.1591,-4.1588,0.0,0.0,0.0,-4.7719,-4.9738,-5.1536,-5.3151,-5.3518,0.0,-5.4583,0.0,0.0,0.0,-6.2475,-6.4567,-6.5925,-6.6109,-6.5925,-6.5411,-6.4347,-6.3172,-6.1814,-6.119,-6.0272,-5.8914,-5.8841,-5.8584,-5.8033,-5.7997,-5.7997,-5.7997,-5.7997,-5.7997,-5.7997,-5.7997,-5.7886,-5.7629,-5.7629,-5.7629,-5.7629,-5.7629,-5.7483,-5.7226,-5.6932,-5.6675,-5.6381,-5.5831,-5.5596,-5.5706,-5.6492,-5.6308,-5.5816,-5.7409,-5.7336,-5.6565,0.0,0.0,0.0,0.0,0.0,0.0,0.0,0.0,0.0,0.0,0.0,0.0,0.0,0.0,0.0,0.0,0.0,0.0,-4.9306,-5.0113,-5.0916,-5.1649,-5.3271,-5.6116,-6.0231,-6.5276,-6.955,-7.3111,-7.733,-7.5571,-6.8224,-6.7435,-6.5985,-6.3872,-5.8432,-5.6819,-5.7757,-5.1813,-4.8669,-4.7512,-4.5304,-4.4236,-4.3971,0.0,0.0,0.0,0.0,0.0,0.0,0.0,-4.3081,0.0,0.0,0.0,0.0,0.0,-4.2707,-4.148,-4.1288,-4.0636,-4.0215,0.0,0.0,0.0,0.0,0.0,-5.5317,-5.8561,0.0,-5.517,-5.7556,0.0,0.0,-5.9869,-6.2475,-6.4347,-6.5191,-6.5301,-6.4677,-6.3,-6.2805,-6.1826,-5.9404,-5.9184,-5.8877,-5.807,-5.7997,-5.7997,-5.7997,-5.7997,-5.7997,-5.7997,-5.7997,-5.7997,-5.7997,-5.7997,-5.7593,-5.6822,-5.6785,-5.6785,-5.6785,-5.6785,-5.6345,-5.5647,-5.6418,-5.6308,-5.5574,-5.5596,-5.5596,-5.5647,-5.6455,-5.6308,-5.5757,-5.7373,-5.6969,-5.5816,0.0,0.0,0.0,0.0,0.0,0.0,0.0,0.0,0.0,0.0,0.0,0.0,0.0,0.0,0.0,0.0,0.0,0.0,-4.9345,-5.0113,-5.0647,-5.0795,-5.2391,-5.3821,-5.5033,-6.0067,-6.6145,-7.3153,-7.2671,-6.9793,-6.4744,-6.3346,-6.1104,-5.8177,-5.7301,-5.5845,-5.3777,-4.9851,-4.7971,-4.7516,-4.5733,-4.4606,-4.4003,0.0,0.0,0.0,0.0,0.0,0.0,0.0,0.0,0.0,0.0,0.0,0.0,0.0,-4.3488,-4.2971,-4.223,-4.2664,0.0,0.0,0.0,0.0,0.0,0.0,0.0,0.0,0.0,-5.7813,-5.796,0.0,0.0,-5.9404,-6.1594,-6.3503,-6.4347,-6.3943,-6.3356,-6.2853,-6.1814,-6.0603,-5.9294,-5.9184,-5.8877,-5.807,-5.7997,-5.7997,-5.7997,-5.7997,-5.774,-5.7189,-5.7703,-5.774,-5.7152,-5.7152,-5.7042,-5.6785,-5.5647,-5.5427,-5.5941,-5.5941,-5.5831,-5.5574,-5.5244,-5.4987,-5.4693,-5.4142,-5.3922,-5.3995,-5.4803,-5.462,-5.4106,-5.5721,-5.5647,-5.4913,0.0,0.0,0.0,0.0,0.0,0.0,0.0,0.0,0.0,0.0,-4.6778,-4.7625,0.0,0.0,0.0,0.0,0.0,0.0,0.0,0.0,-5.0685,-5.091,-5.1867,-5.3183,-5.4829,-5.8871,-6.3034,-6.7194,-6.7041,-6.4832,-6.0819,-6.182,-6.155,-6.0258,-6.1264,-5.9912,-5.6558,-5.2721,-4.9968,-4.8036,-4.6401,-4.544,-4.4999,0.0,0.0,0.0,0.0,0.0,0.0,0.0,0.0,0.0,0.0,0.0,0.0,-4.3078,-4.3205,-4.3037,-4.2128,0.0,0.0,0.0,0.0,0.0,0.0,0.0,0.0,0.0,0.0,-5.9722,-5.9869,-5.9538,0.0,-6.0052,-6.1667,-6.2879,-6.3062,-6.2658,-6.2108,-6.1423,-6.0529,-5.9501,-5.834,-5.823,-5.7923,-5.7116,-5.7042,-5.7042,-5.7042,-5.7042,-5.6822,-5.6345,-5.6785,-5.6822,-5.6345,-5.6308,-5.6161,-5.5831,-5.4876,-5.4473,-5.4656,-5.4987,-5.495,-5.462,-5.4142,-5.3922,-5.3885,-5.3387,-5.3203,-5.3277,-5.4106,-5.3922,-5.3408,-5.4987,-5.4876,-5.4069,0.0,0.0,-4.5594,-4.5594,0.0,0.0,0.0,0.0,0.0,0.0,-4.6355,-4.6923,0.0,0.0,0.0,0.0,0.0,0.0,0.0,0.0,-5.0905,-5.1687,-5.1905,-5.3845,-5.7711,-5.993,-5.992,-5.7627,-6.1006,-6.0621,-5.6868,-6.1897,-6.5,-6.6409,-6.7385,-6.5965,-6.2428,-5.7604,-5.2828,-4.8384,-4.7078,-4.6499,-4.635,-4.6644,0.0,0.0,0.0,0.0,0.0,0.0,0.0,0.0,0.0,0.0,0.0,-4.243,-4.2463,-4.2366,0.0,0.0,0.0,0.0,0.0,0.0,0.0,0.0,-6.2964,-6.4457,0.0,-6.0933,-6.223,-6.0725,-5.9735,-6.1153,-6.2071,-6.2328,-6.1594,-6.141,-6.086,-5.9368,-5.9148,-5.8487,-5.6969,-5.6822,-5.6455,-5.5647,-5.5596,-5.5596,-5.5596,-5.5596,-5.5596,-5.5486,-5.5537,-5.5537,-5.5486,-5.5486,-5.5097,-5.4399,-5.4252,-5.3849,-5.3203,-5.3959,-5.3885,-5.3203,-5.3203,-5.3203,-5.3203,-5.3203,-5.3203,-5.3298,-5.3995,-5.3849,-5.3408,-5.484,-5.4473,-5.3408,0.0,0.0,-4.5594,-4.5594,0.0,0.0,0.0,0.0,0.0,0.0,0.0,0.0,0.0,0.0,0.0,0.0,0.0,0.0,0.0,0.0,-5.0873,-5.1687,-5.358,-5.5071,-5.6013,-5.5935,-5.5343,-5.4194,-5.6886,-5.7152,-5.5126,-5.955,-6.1275,-6.0742,-6.2801,-6.061,-5.5157,-5.1431,-4.8128,-4.5461,-4.6643,-4.6321,-4.5248,-4.6529,-4.5881,0.0,0.0,0.0,0.0,0.0,0.0,0.0,-4.2103,-4.2353,-4.2513,-4.3091,-4.3309,-4.3416,0.0,-4.5095,0.0,0.0,0.0,0.0,0.0,0.0,0.0,-6.0542,-6.097,-6.1043,-6.0138,-6.0089,-6.0052,-5.9735,-6.0382,-6.086,-6.0676,-6.0126,-5.9588,-5.9221,-5.8657,-5.7886,-5.6895,-5.6822,-5.6455,-5.5647,-5.5596,-5.5596,-5.5596,-5.5596,-5.5317,-5.4693,-5.5244,-5.528,-5.4656,-5.4656,-5.4583,0.0,-5.3115,-5.2747,-5.3203,-5.3408,-5.3371,-5.3203,-5.3203,-5.3203,-5.3203,-5.3203,-5.3203,-5.3203,-5.3408,-5.3371,-5.3261,-5.3592,-5.3518,-5.324,0.0,0.0,0.0,0.0,0.0,0.0,0.0,0.0,0.0,0.0,0.0,0.0,0.0,0.0,0.0,0.0,-5.0363,0.0,0.0,0.0,-5.1173,-5.2824,-5.4892,-5.5695,-5.4986,-5.4526,-5.3525,-5.1931,-5.2871,-5.3507,-5.3972,-5.8204,-6.0175,-6.0251,-6.2651,-6.0221,-5.4155,-5.1682,-4.8679,-4.5688,-4.683,-4.6758,-4.6063,-4.7024,-4.6215,-4.4533,-4.4479,0.0,0.0,0.0,0.0,0.0,0.0,0.0,-4.2426,-4.2817,-4.3238,-4.3549,0.0,0.0,0.0,0.0,0.0,0.0,0.0,0.0,0.0,0.0,-5.9905,-6.0786,-5.9942,-6.0126,-6.0272,-5.9832,-6.0126,-6.0272,-5.9905,-5.9441,-5.9038,-5.8694,-5.7923,-5.7116,-5.6308,-5.5868,-5.5317,-5.4509,-5.4436,-5.4436,-5.4436,-5.4436,-5.4252,-5.3849,-5.4216,-5.4252,-5.3849,-5.3849,-5.3628,-5.3225,-5.238,-5.2013,-5.2087,-5.2837,-5.3203,-5.3203,-5.3203,-5.3203,-5.3203,-5.3203,-5.3203,-5.3203,-5.3203,-5.3203,-5.3203,-5.3203,-5.3203,-5.3203,0.0,0.0,0.0,0.0,0.0,0.0,0.0,0.0,0.0,0.0,0.0,0.0,0.0,0.0,-4.8644,0.0,0.0,0.0,0.0,-5.0566,-5.1637,-5.3881,-5.549,-5.5768,-5.4644,-5.4254,-5.3135,-5.1135,-5.0125,-5.0933,-5.351,-5.7319,-5.9868,-6.1363,-6.2985,-6.0592,-5.5169,-5.3082,-5.0029,-4.6656,-4.7074,-4.7137,-4.7035,-4.7426,-4.637,-4.4751,-4.4872,-4.4546,-4.4048,-4.3939,0.0,0.0,0.0,0.0,-4.2523,-4.2506,-4.2983,-4.3404,0.0,0.0,0.0,0.0,0.0,0.0,0.0,0.0,0.0,0.0,0.0,-6.0162,-6.0015,-5.9979,-5.9979,-5.9979,-5.9979,-5.9758,-5.9098,-5.8854,-5.8547,-5.7886,-5.7079,-5.6271,-5.5464,-5.4803,-5.4069,-5.324,-5.3203,-5.3151,-5.3004,-5.3004,-5.2931,-5.2763,-5.2784,-5.2784,-5.2784,-5.2784,-5.2454,-5.1793,-5.1793,-5.1353,-5.0655,-5.2123,-5.2858,-5.3004,-5.3004,-5.3057,-5.3203,-5.3203,-5.3203,-5.3203,-5.3203,-5.3203,-5.3203,-5.3203,-5.3203,-5.3203,0.0,0.0,0.0,0.0,0.0,0.0,0.0,0.0,0.0,0.0,-4.8048,-4.8971,0.0,0.0,0.0,-5.0423,-5.0576,0.0,-5.0489,0.0,0.0,-5.3096,-5.4093,-5.4883,-5.5439,-5.4019,-5.3129,-5.2856,-5.1279,-5.1818,-5.4357,-5.6395,-5.8436,-6.0299,-5.8536,-5.6259,-5.352,-4.9188,-4.6591,-4.5508,-4.6531,-4.6503,-4.5927,-4.6638,-4.6234,-4.5232,-4.4751,-4.4465,-4.4294,-4.3747,-4.351,0.0,0.0,0.0,-4.3399,-4.3385,-4.3441,0.0,0.0,0.0,0.0,0.0,0.0,0.0,0.0,0.0,0.0,0.0,0.0,0.0,-5.8437,-5.8327,-5.8327,-5.8327,-5.8327,-5.829,-5.818,-5.7556,-5.7079,-5.6969,-5.6235,-5.5427,-5.462,-5.4473,-5.4069,-5.324,-5.3203,-5.2894,-5.2197,-5.216,-5.183,-5.1132,-5.1132,-5.1132,-5.1132,-5.1132,-5.1059,-5.0949,-5.0949,-5.0545,-4.9794,-5.0692,-5.1499,-5.216,-5.216,-5.2564,-5.3203,-5.3203,-5.3203,-5.3203,-5.3203,-5.3203,-5.3203,-5.3203,-5.3203,-5.3203,0.0,0.0,0.0,0.0,0.0,0.0,0.0,0.0,0.0,0.0,0.0,-4.8856,0.0,0.0,0.0,0.0,0.0,0.0,-5.0511,-5.1278,0.0,0.0,-5.3421,-5.3827,-5.4227,-5.3014,-5.2179,-5.1779,0.0,0.0,0.0,-5.6445,-5.7911,-5.9387,-5.6127,-5.3989,-5.2532,-4.7925,-4.5658,-4.526,-4.5898,-4.5932,-4.5624,-4.5991,-4.584,-4.541,-4.4977,-4.4701,-4.4438,-4.4042,-4.3902,-4.3902,-4.386,0.0,0.0,0.0,-4.3667,0.0,0.0,0.0,0.0,0.0,0.0,0.0,0.0,0.0,0.0,0.0,0.0,0.0,0.0,-5.7997,-5.7997,-5.7997,-5.7997,-5.785,-5.7409,-5.7042,-5.6638,-5.6161,-5.5427,-5.4803,-5.4436,-5.3995,-5.3408,-5.2601,-5.2527,-5.2197,-5.1353,-5.1316,-5.1169,-5.0802,-5.0802,-5.0802,-5.0802,-5.0802,-5.0582,-5.0105,-4.9627,-4.9224,-4.8893,-4.926,-5.0105,-5.1316,-5.1316,-5.1536,-5.1903,-5.2344,-5.2527,-5.2564,-5.3041,-5.3203,-5.3203,-5.3203,-5.3203,-5.3203,0.0,0.0,0.0,0.0,0.0,0.0,0.0,0.0,0.0,0.0,0.0,0.0,0.0,0.0,0.0,0.0,0.0,0.0,-5.0553,0.0,0.0,0.0,0.0,-5.2497,-5.2549,-5.1893,-5.1239,0.0,0.0,0.0,-5.5703,-5.6368,-5.7689,0.0,-5.573,-5.343,-5.1942,-4.7941,-4.6234,-4.6222,-4.5763,-4.5594,-4.5594,-4.5594,-4.5559,-4.5457,-4.5201,-4.4919,-4.465,-4.4383,-4.4308,-4.4279,-4.4117,-4.4035,0.0,0.0,0.0,0.0,0.0,0.0,0.0,0.0,0.0,0.0,0.0,0.0,0.0,0.0,0.0,0.0,0.0,0.0,0.0,-5.774,-5.7703,-5.7409,-5.6602,-5.6308,-5.5978,-5.5354,-5.4399,-5.3775,-5.3775,-5.3078,-5.2344,-5.172,-5.1683,-5.1353,-5.0545,-5.0508,-5.0398,-5.0178,-5.0178,-5.0178,-5.0178,-4.9958,-4.9554,-4.893,-4.8086,-4.7792,-4.8012,-4.8012,-4.8783,-5.0178,-5.0398,-5.0618,-5.0875,-5.1683,-5.1977,-5.2087,-5.2894,-5.3203,-5.3203,-5.3203,-5.3203,-5.3203,0.0,0.0,0.0,0.0,0.0,0.0,0.0,0.0,0.0,0.0,0.0,0.0,0.0,0.0,-5.0635,-5.0625,0.0,0.0,0.0,0.0,0.0,0.0,0.0,0.0,0.0,-5.0779,0.0,0.0,0.0,0.0,-5.5703,-5.5742,-5.755,-6.0577,-5.7973,-5.4962,-5.1739,-4.9077,-4.8423,-4.8962,-4.6586,-4.5594,-4.5594,-4.5594,-4.5559,-4.5457,-4.5201,-4.5071,-4.4931,-4.4676,-4.4572,-4.4506,-4.4117,-4.4035,-4.4033,0.0,0.0,0.0,0.0,0.0,0.0,0.0,0.0,0.0,0.0,0.0,0.0,0.0,0.0,0.0,0.0,0.0,0.0,0.0,0.0,0.0,-5.5757,-5.5023,-5.4509,-5.4473,-5.3078,-5.2123,0.0,0.0,0.0,0.0,-5.0875,-5.0508,-4.9721,-4.9647,-4.926,-4.8453,-4.8453,-4.8453,-4.8453,-4.7663,-4.7259,-4.7223,-4.6434,-4.6434,-4.7149,-4.7149,-4.7626,-4.8489,-4.9297,-5.0105,-5.0875,-5.1683,-5.1977,-5.2087,-5.2894,-5.3203,-5.3203,-5.3203,-5.3203,-5.3203,0.0,0.0,0.0,0.0,0.0,0.0,0.0,0.0,0.0,0.0,0.0,0.0,0.0,-5.0712,-5.0712,-5.0712,-5.0712,0.0,0.0,0.0,0.0,0.0,0.0,0.0,0.0,0.0,0.0,0.0,0.0,-5.1327,-5.252,-5.4164,-5.4972,-5.5088,-5.4703,-5.3895,-5.2472,-4.8279,-4.6663,-4.6903,-4.5979,-4.5594,-4.5594,-4.5594,-4.5586,-4.5541,-4.5253,-4.5159,-4.5105,-4.4812,-4.4701,-4.4624,-4.4452,-4.4227,-4.3958,-4.3597,-4.3515,0.0,0.0,0.0,0.0,0.0,0.0,0.0,0.0,0.0,0.0,0.0,0.0,0.0,0.0,0.0,0.0,0.0,0.0,0.0,0.0,0.0,0.0,0.0,0.0,0.0,0.0,0.0,0.0,0.0,0.0,-4.9591,-4.882,-4.8783,-4.8636,-4.8306,-4.7773,-4.7259,-4.6764,-4.6471,-4.6324,-4.6324,-4.603,-4.6324,-4.7113,-4.7113,-4.7553,-4.8343,-4.8636,-4.893,-4.926,-5.0105,-5.0765,-5.1316,-5.2123,-5.2747,-5.3203,-5.3203,-5.3203,-5.3203,0.0,0.0,0.0,0.0,0.0,0.0,0.0,0.0,0.0,0.0,0.0,0.0,0.0,0.0,-5.0712,-5.0712,-5.0712,-5.0712,-5.0712,-5.0712,0.0,0.0,0.0,0.0,0.0,0.0,0.0,0.0,0.0,0.0,0.0,-5.2433,-5.2895,-5.2308,-5.2049,-5.2241,0.0,0.0,-4.7326,-4.721,-4.6056,-4.5941,-4.6471,-4.6749,-4.6701,-4.6462,-4.655,-4.6232,-4.5753,-4.5557,-4.5278,-4.5007,-4.5129,-4.4705,-4.408,-4.3812,-4.3779,0.0,-4.4345,0.0,0.0,0.0,0.0,0.0,0.0,0.0,0.0,0.0,0.0,0.0,0.0,0.0,0.0,0.0,0.0,0.0,0.0,0.0,0.0,0.0,0.0,0.0,0.0,0.0,0.0,0.0,0.0,0.0,-4.792,-4.7883,-4.7792,-4.7498,-4.6966,-4.6434,-4.592,-4.5626,-4.5516,-4.548,-4.5223,-4.5663,-4.6709,-4.6709,-4.7259,-4.8306,-4.8306,-4.8306,-4.8379,-4.9243,-4.9904,-5.0508,-5.1573,-5.2344,-5.2821,-5.3093,-5.3203,-5.3203,0.0,0.0,0.0,0.0,0.0,0.0,0.0,0.0,0.0,0.0,0.0,0.0,0.0,0.0,0.0,-5.0789,-5.0789,-5.075,-5.0712,-5.0712,0.0,0.0,0.0,0.0,0.0,0.0,0.0,0.0,0.0,0.0,0.0,0.0,-5.1471,-5.2933,-5.0471,-5.0279,-5.1731,0.0,-5.0635,-5.0366,-4.7018,-4.6663,-4.824,-4.9009,-4.8817,-4.8202,-4.9048,-4.8317,-4.6962,-4.6923,-4.6319,-4.5621,-4.6118,-4.5382,-4.4355,-4.4162,-4.4308,0.0,0.0,0.0,0.0,0.0,0.0,0.0,-4.6636,0.0,0.0,0.0,0.0,0.0,0.0,0.0,0.0,0.0,0.0,0.0,0.0,0.0,0.0,0.0,0.0,0.0,0.0,0.0,0.0,0.0,-4.8269,-4.7883,-4.7113,-4.7076,-4.6709,-4.5883,-4.5847,-4.5847,-4.581,-4.5039,-4.4654,-4.4672,-4.3864,-4.4342,-4.5883,-4.5883,-4.6764,-4.8306,-4.8306,-4.8306,-4.8379,-4.9206,-4.961,-4.9794,-5.1353,-5.1977,-5.2123,-5.2931,-5.3203,-5.3203,0.0,0.0,0.0,0.0,0.0,0.0,0.0,0.0,0.0,0.0,0.0,0.0,-5.0673,-5.1779,-5.251,-5.251,-5.251,-5.1972,-5.0789,-5.0712,-5.0712,-5.0712,0.0,0.0,0.0,0.0,0.0,0.0,0.0,0.0,0.0,0.0,0.0,0.0,-4.9433,-4.9317,-4.9086,-4.8279,0.0,-4.9625,-4.8048,-4.8048,-4.8933,-4.7971,-4.7817,-4.8125,-4.8355,-4.8586,-4.8625,-4.7971,-4.7424,-4.6784,-4.5481,-4.4839,-4.4533,-4.4411,-4.4438,-4.4425,-4.4094,0.0,0.0,0.0,0.0,0.0,-4.4378,-4.4966,-4.5645,0.0,0.0,0.0,0.0,0.0,0.0,0.0,0.0,0.0,0.0,0.0,0.0,0.0,0.0,0.0,0.0,0.0,0.0,0.0,-4.7443,-4.7076,-4.6287,-4.625,-4.5883,-4.5076,-4.5039,-4.4745,-4.4158,-4.3938,-4.3828,-4.3828,-4.3625,-4.4342,-4.5883,-4.5883,-4.6764,-4.8306,-4.8306,-4.8306,-4.8343,-4.8563,-4.937,-5.0508,-5.0949,-5.183,-5.2894,-5.3093,-5.3203,-5.3203,0.0,0.0,0.0,0.0,0.0,0.0,0.0,0.0,0.0,0.0,0.0,0.0,-5.1664,-5.3895,-5.4895,-5.3857,-5.3741,-5.301,-5.1318,-5.1202,-5.1048,-5.0712,0.0,0.0,0.0,0.0,0.0,0.0,0.0,0.0,0.0,0.0,0.0,0.0,-4.7586,-4.774,-4.7586,0.0,0.0,0.0,-4.825,-4.9029,-5.0394,-4.9779,-4.9817,-5.0279,-5.0625,-5.0856,-5.0818,-4.9586,-4.8557,-4.7526,-4.5905,-4.5162,-4.4896,-4.465,-4.465,-4.4612,-4.4147,-4.414,0.0,0.0,0.0,0.0,-4.3973,-4.4085,-4.4415,0.0,0.0,0.0,0.0,0.0,0.0,0.0,0.0,0.0,0.0,0.0,0.0,0.0,0.0,0.0,0.0,-4.7498,-4.7095,-4.6654,-4.6599,-4.625,-4.5443,-4.5076,-4.4672,-4.4195,-4.4195,-4.3975,-4.3515,-4.3515,-4.3515,-4.3515,-4.3515,-4.4342,-4.5883,-4.5883,-4.6764,-4.8306,-4.8306,-4.8306,-4.8306,-4.8306,-4.8893,-4.9811,-5.0141,-5.1096,-5.2234,-5.2601,-5.2931,-5.3203,0.0,0.0,-4.6172,-4.7932,0.0,0.0,0.0,0.0,0.0,0.0,0.0,0.0,0.0,-5.678,-5.7511,-5.5126,-5.4741,-5.3895,-5.2154,-5.2038,0.0,0.0,0.0,0.0,0.0,0.0,0.0,0.0,0.0,0.0,0.0,0.0,0.0,0.0,-4.5586,-4.6077,-4.6962,-4.776,0.0,-4.8115,-4.827,-4.9817,-5.2115,-5.2702,-5.3049,-5.3318,-5.4087,-5.3933,-5.3087,-5.1395,-4.9673,-4.8077,-4.7016,-4.6232,-4.5581,-4.5098,-4.5036,-4.4998,-4.4351,-4.4327,-4.4529,-4.4583,-4.4391,0.0,-4.4485,-4.4085,-4.3791,-4.4452,0.0,0.0,0.0,0.0,0.0,0.0,0.0,0.0,0.0,0.0,0.0,0.0,0.0,0.0,-4.6966,-4.6324,-4.5847,-4.5773,-4.5663,-4.5333,-4.4599,-4.3901,-4.3515,-4.3515,-4.3515,-4.3515,-4.3515,-4.3515,-4.3515,-4.3515,-4.3515,-4.4305,-4.5773,-4.5847,-4.6728,-4.8196,-4.8269,-4.8306,-4.8306,-4.8306,-4.8379,-4.8526,-4.9317,-5.0161,-5.1022,-5.172,-5.2527,-5.3203,-4.5594,-4.5594,-4.6364,-4.874,0.0,0.0,0.0,0.0,0.0,0.0,0.0,0.0,0.0,0.0,0.0,0.0,-5.628,-5.4741,-5.3049,-5.2972,0.0,0.0,0.0,0.0,0.0,0.0,0.0,0.0,0.0,0.0,0.0,0.0,0.0,0.0,-4.5532,-4.5993,-4.6868,0.0,0.0,-4.824,-4.9615,-5.1269,-5.2818,-5.1625,-5.201,-5.3241,-5.3395,-5.3818,-5.3972,-5.2241,-5.0538,-4.899,-4.8078,-4.7693,-4.7424,-4.6617,-4.6254,-4.591,-4.5002,-4.4624,-4.4435,-4.4188,-4.457,0.0,-4.3914,-4.4121,-4.4342,0.0,0.0,0.0,0.0,0.0,0.0,0.0,0.0,0.0,0.0,0.0,0.0,0.0,0.0,0.0,-4.614,-4.5993,-4.5626,-4.5002,-4.4342,-4.3919,-4.3718,-4.3571,-4.3515,-4.3515,-4.3515,-4.3515,-4.3515,-4.3515,-4.3515,-4.3515,-4.3515,-4.4011,-4.4966,-4.559,-4.6434,-4.7369,-4.7993,-4.8306,-4.8306,-4.8306,-4.871,-4.9353,-4.9537,-5.0492,-5.1756,-5.194,-5.2527,-5.3203,-4.571,-4.5932,-4.7163,-5.0125,0.0,0.0,0.0,0.0,0.0,0.0,0.0,0.0,0.0,0.0,0.0,0.0,0.0,0.0,0.0,0.0,0.0,0.0,0.0,0.0,0.0,0.0,0.0,0.0,0.0,0.0,0.0,0.0,0.0,0.0,0.0,0.0,0.0,0.0,-4.8702,-4.8856,-5.0134,0.0,-5.25,-5.2087,-5.2972,-5.4434,-5.4434,-5.4472,-5.4357,-5.351,-5.2049,-5.051,-4.9663,-4.9067,-4.8519,-4.7537,-4.674,-4.5961,-4.504,-4.4847,-4.4863,-4.4653,-4.491,0.0,0.0,-4.4085,-4.3975,-4.3588,0.0,0.0,0.0,0.0,0.0,0.0,0.0,0.0,0.0,0.0,0.0,0.0,0.0,0.0,-4.5296,-4.4929,-4.4525,-4.4121,-4.3718,-4.3515,-4.3515,-4.3515,-4.3515,-4.3515,-4.3515,-4.3515,-4.3515,-4.3515,-4.3515,-4.3515,-4.3515,-4.3901,-4.4709,-4.5112,-4.5938,-4.7113,-4.7516,-4.792,-4.8306,-4.8306,-4.8563,-4.8967,-4.9427,-5.0345,-5.1463,-5.183,-5.2527,-5.3203,-4.5787,-4.6163,-4.7702,-5.1077,0.0,0.0,0.0,0.0,0.0,0.0,0.0,0.0,0.0,-6.2512,-6.2012,-5.9935,0.0,0.0,-5.5972,-5.5049,0.0,0.0,0.0,-5.2385,0.0,0.0,0.0,0.0,0.0,0.0,0.0,0.0,0.0,0.0,0.0,0.0,0.0,0.0,0.0,-4.9471,0.0,-5.1124,-5.2,-5.2856,-5.4126,-5.5472,-5.5626,-5.528,-5.4664,-5.4357,-5.3318,-5.2,-5.1202,-5.0403,0.0,-4.875,-4.7765,-4.6771,-4.5799,-4.5851,-4.6098,-4.5593,-4.5733,-4.5769,0.0,0.0,0.0,0.0,0.0,0.0,0.0,0.0,0.0,0.0,0.0,0.0,0.0,0.0,0.0,0.0,0.0,0.0,-4.4488,-4.3864,-4.3515,-4.3515,-4.3515,-4.3515,-4.3515,-4.3515,-4.3515,-4.3515,-4.3515,-4.3515,-4.3515,-4.3515,-4.3515,-4.3515,-4.3515,-4.3828,-4.4488,-4.4635,-4.5388,-4.6672,-4.6966,-4.748,-4.8067,-4.8233,-4.8306,-4.8379,-4.926,-5.0088,-5.0912,-5.1683,-5.2527,-5.3203,-4.5787,-4.5671,-4.6826,-5.025,0.0,0.0,0.0,0.0,0.0,0.0,0.0,0.0,-6.6244,-6.3205,-6.2166,-6.482,-5.8742,-5.6626,-6.0947,-5.7011,0.0,0.0,0.0,0.0,-5.2038,0.0,0.0,0.0,0.0,0.0,0.0,0.0,0.0,0.0,-4.5506,0.0,0.0,0.0,-4.8693,0.0,-5.0356,-5.1192,0.0,-5.2856,-5.3818,-5.4741,-5.5434,-5.5626,-5.5318,0.0,-5.3241,-5.2895,0.0,-5.1692,-5.1567,-5.147,0.0,0.0,0.0,0.0,0.0,0.0,-4.7601,-4.8124,-4.5308,0.0,-4.5223,-4.3808,0.0,0.0,0.0,0.0,0.0,0.0,0.0,0.0,0.0,0.0,0.0,0.0,0.0,0.0,0.0,-4.3551,-4.3515,-4.3515,-4.3515,-4.3515,-4.3515,-4.3515,-4.3515,-4.3515,-4.3515,-4.3515,-4.3515,-4.3515,-4.3515,-4.3515,-4.3515,-4.3551,-4.3644,-4.4378,-4.4801,-4.5058,-4.6489,-4.7149,-4.7296,-4.8012,-4.8306,-4.8379,-4.926,-5.0088,-5.0912,-5.1683,-5.2527,-5.3203,-4.5671,-4.6009,-4.7278,-5.0212,0.0,0.0,0.0,0.0,0.0,0.0,0.0,0.0,-6.9167,-6.5974,-6.432,-6.5782,-6.1589,-5.9396,-6.0512,-5.7665,0.0,0.0,0.0,-5.328,0.0,0.0,0.0,0.0,-5.0202,0.0,0.0,0.0,0.0,0.0,-4.6855,0.0,-4.8058,0.0,-4.9769,0.0,0.0,0.0,0.0,-5.2308,-5.3318,-5.4626,-5.5395,-5.5703,-5.5511,0.0,-5.4241,0.0,0.0,0.0,0.0,-5.2028,0.0,0.0,0.0,0.0,0.0,0.0,0.0,0.0,-4.6618,0.0,-4.5718,0.0,0.0,0.0,0.0,0.0,0.0,0.0,-4.3647,0.0,0.0,0.0,0.0,0.0,0.0,0.0,0.0,0.0,0.0,0.0,-4.3515,-4.3515,-4.3515,-4.3515,-4.3515,-4.3515,-4.3515,-4.3515,-4.3515,-4.3515,-4.3515,-4.3515,-4.3975,-4.3938,-4.3551,-4.4342,-4.4691,-4.4764,-4.592,-4.6672,-4.7149,-4.7957,-4.8306,-4.8379,-4.926,-4.9831,-5.0251,-5.1536,-5.2197,-5.2564,-4.597,-4.6471,-4.7625,0.0,0.0,0.0,0.0,0.0,0.0,0.0,0.0,-6.7744,-6.9975,-6.7436,-6.6397,-6.8475,-6.5051,-6.2551,-6.1973,-5.9281,-5.7165,-5.6022,-5.4626,-5.3857,-5.378,0.0,0.0,0.0,0.0,0.0,0.0,0.0,0.0,0.0,0.0,-4.8304,-4.8471,0.0,-5.0778,-5.1048,-5.1433,-5.1587,-5.1587,-5.1808,-5.2818,-5.4203,-5.4818,-5.5164,-5.5241,-5.4434,-5.4703,0.0,-5.4664,-5.4028,-5.3381,0.0,0.0,0.0,-4.9353,0.0,0.0,0.0,0.0,0.0,0.0,0.0,0.0,0.0,0.0,0.0,0.0,0.0,0.0,0.0,0.0,-4.3578,0.0,0.0,0.0,0.0,0.0,0.0,0.0,0.0,0.0,-4.3515,-4.3515,-4.3515,-4.3515,-4.3515,-4.3515,-4.3515,-4.3515,-4.3515,-4.3515,-4.3515,-4.3608,-4.3828,-4.4195,-4.4195,-4.3828,-4.4195,-4.4488,-4.4745,-4.5553,-4.6361,-4.7149,-4.7957,-4.8306,-4.8379,-4.9003,-4.9243,-4.9463,-5.1316,-5.1977,-5.2123,-4.6846,-4.6885,0.0,0.0,0.0,0.0,0.0,0.0,0.0,-6.0627,-6.0281,-6.205,-6.7859,-6.6167,-6.7628,-7.5014,-6.8821,-6.5551,-6.7975,-6.2666,-5.7588,-5.351,-5.478,-5.4472,-5.2038,-5.1885,0.0,0.0,0.0,0.0,0.0,0.0,0.0,0.0,0.0,-4.9199,-4.9326,-5.0298,-5.1164,-5.1808,-5.1048,-5.075,-5.0827,0.0,-5.2462,-5.3241,-5.328,0.0,0.0,-5.3549,-5.3818,0.0,0.0,0.0,0.0,0.0,0.0,0.0,0.0,0.0,0.0,-4.9934,0.0,0.0,0.0,0.0,-4.7868,0.0,0.0,0.0,0.0,0.0,0.0,0.0,0.0,0.0,0.0,0.0,0.0,0.0,0.0,0.0,0.0,0.0,-4.3515,-4.3515,-4.3515,-4.3515,-4.3515,-4.3515,-4.3515,-4.3515,-4.3515,-4.3515,-4.3515,-4.3515,-4.3901,-4.4654,-4.3901,-4.3938,-4.4635,-4.3864,-4.3975,-4.4745,-4.5553,-4.6361,-4.7149,-4.7957,-4.8306,-4.8306,-4.8343,-4.8343,-4.8636,-5.1096,-5.1977,-5.2123,-4.7586,-4.8163,0.0,-4.9317,-4.9625,-5.1048,0.0,-5.7703,-6.1012,-6.5282,-6.609,-6.8513,-7.4437,-7.3322,-7.3437,-7.6592,-7.3437,-7.0475,-6.8552,-6.4936,-6.1473,-5.8357,-5.7165,-5.5626,-5.3664,-5.3049,-5.2087,0.0,0.0,0.0,0.0,0.0,0.0,0.0,0.0,-4.9296,0.0,0.0,0.0,0.0,0.0,-5.2356,-5.2318,0.0,-5.2077,-5.2423,-5.301,-5.3395,0.0,-5.3972,-5.4241,-5.4587,-5.5126,-5.4934,-5.4511,-5.4511,-5.428,0.0,0.0,0.0,-5.4206,-5.1264,0.0,0.0,0.0,0.0,0.0,0.0,0.0,0.0,0.0,0.0,0.0,0.0,0.0,0.0,0.0,0.0,0.0,0.0,0.0,0.0,0.0,0.0,0.0,-4.3515,-4.3515,-4.3515,-4.3515,-4.3515,-4.3515,-4.3515,-4.3515,-4.3754,-4.4305,-4.4305,-4.4709,-4.548,-4.5223,-4.4966,-4.4709,-4.4966,-4.4966,-4.4764,-4.6085,-4.6856,-4.7149,-4.7957,-4.8306,-4.8379,-4.893,-4.882,-4.8526,-5.0508,-5.1206,-5.1389,-4.8971,-4.9471,-4.9856,-4.9856,-5.0356,-5.1779,-5.4818,-5.8665,-6.2551,-6.6128,-6.8398,-7.1706,-7.7015,-7.663,-7.6707,-7.8515,-7.6784,-7.3707,-6.9167,-6.759,-6.4782,-6.0127,-5.9473,-5.7742,-5.4549,-5.4511,-5.328,-5.0712,0.0,-5.1741,0.0,0.0,0.0,0.0,0.0,-5.0046,-4.9884,-5.1077,-5.1702,0.0,0.0,-5.2741,0.0,0.0,-5.1856,-5.2346,0.0,-5.251,-5.2818,-5.3395,-5.378,-5.4126,-5.4664,-5.4664,-5.4434,-5.4126,-5.4049,-5.3972,-5.3356,-5.4035,0.0,-5.2272,-5.2588,0.0,-5.0085,0.0,-5.1564,0.0,0.0,0.0,0.0,0.0,0.0,0.0,0.0,0.0,0.0,-4.2727,0.0,0.0,0.0,0.0,0.0,0.0,-4.3515,-4.3515,-4.3515,-4.3515,0.0,0.0,-4.3515,-4.3515,-4.3515,-4.3901,-4.4691,-4.4691,-4.5259,-4.6324,-4.603,-4.5773,-4.5572,-4.581,-4.5773,-4.5608,-4.6636,-4.7259,-4.7553,-4.8086,-4.8489,-4.8783,-4.904,-4.915,-4.937,-5.0729,-5.1426,-5.1793,-5.0856,-5.0789,-5.0827,-5.0866,-5.2202,-5.3549,-5.4434,-5.8869,-6.2474,-6.3474,-6.7321,-7.1552,-7.5784,-7.6245,-7.7553,-8.0823,-7.89,-7.5361,-7.036,-7.0706,-6.7398,-5.9165,-6.1781,-6.0742,-5.4934,-5.6291,-5.506,-5.0904,0.0,0.0,0.0,0.0,0.0,0.0,-5.1834,0.0,-5.0866,-5.2433,-5.2587,-5.1846,-5.1923,-5.1962,-5.1885,-5.101,-5.1741,-5.2972,-5.1279,-5.1202,-5.1846,-5.1885,-5.2462,-5.3126,-5.3203,-5.3818,-5.4357,-5.351,-5.4434,-5.5357,-5.378,-5.3902,-5.4139,-5.2921,-5.2549,0.0,0.0,0.0,-5.1372,0.0,0.0,0.0,0.0,0.0,0.0,0.0,0.0,0.0,0.0,0.0,-4.3515,0.0,0.0,0.0,0.0,-4.3515,-4.3515,-4.3515,-4.3515,0.0,0.0,0.0,-4.3515,-4.3515,-4.3551,-4.3938,-4.4728,-4.4801,-4.5608,-4.7149,-4.6361,-4.6361,-4.7076,-4.6324,-4.6397,-4.7113,-4.7149,-4.759,-4.8306,-4.8306,-4.882,-4.9537,-4.8673,-4.9407,-5.0949,-5.172,-5.2527,-5.324,-5.075,-5.1702,-5.2741,-5.3395,-5.3895,-5.4434,-5.528,-5.9215,-6.3512,-6.7513,-7.1206,-7.5053,-7.9323,-7.9785,-8.0131,-8.1016,-8.0516,-7.8477,-7.463,-7.3976,-7.136,-6.6051,-6.5436,-6.332,-5.9281,-5.8396,-5.6511,-5.351,-5.3549,0.0,-5.2856,0.0,0.0,0.0,0.0,0.0,-5.1587,-5.1395,-5.1202,-5.1125,-5.2356,-5.2856,-5.2702,0.0,-5.1741,-5.2972,-5.1279,-5.0827,-5.1087,-5.1692,-5.2038,-5.2346,-5.301,-5.3818,-5.4472,-5.4241,-5.4895,-5.5588,-5.5164,-5.516,-5.5066,-5.4143,-5.4078,-5.3846,0.0,0.0,0.0,0.0,0.0,0.0,0.0,0.0,0.0,0.0,0.0,0.0,0.0,0.0,0.0,-4.3515,0.0,-4.3515,-4.3515,-4.3515,-4.3515,-4.3515,-4.3515,0.0,0.0,0.0,0.0,-4.3515,-4.4085,-4.4782,-4.559,-4.6214,-4.7003,-4.7976,-4.7186,-4.6892,-4.7076,-4.6892,-4.6892,-4.7113,-4.7736,-4.8122,-4.8306,-4.8306,-4.882,-4.9574,-4.9353,-5.0251,-5.172,-5.1903,-5.2894,-5.4106,-5.2433,-5.401,-5.5357,-5.5049,-5.7165,-5.8819,-5.855,-6.1166,-6.4628,-6.8629,-7.2706,-7.6053,-7.8092,-7.9977,-8.1093,-8.1093,-8.0746,-7.9092,-7.5668,-7.5707,-7.363,-6.8615,-6.7859,-6.5628,-6.1447,-5.9704,-5.7588,-5.5011,-5.4164,0.0,-5.3741,0.0,0.0,0.0,0.0,-5.1395,0.0,-5.1279,-5.1856,-5.2895,-5.3126,-5.3433,0.0,-5.1856,-5.1818,-5.2472,-5.1164,-5.0712,-5.0789,-5.1202,-5.1395,-5.1471,-5.1933,-5.2702,-5.3433,-5.3818,-5.4511,-5.5241,-5.5588,-5.5682,-5.5533,-5.5017,-5.502,-5.4802,-5.3453,-5.384,-5.4101,0.0,-5.2825,-5.2567,0.0,0.0,0.0,0.0,0.0,0.0,0.0,0.0,0.0,0.0,-4.3515,-4.3515,-4.3515,-4.3515,-4.3515,-4.3515,-4.3515,0.0,0.0,0.0,0.0,-4.4011,-4.4819,-4.5626,-4.6434,-4.7223,-4.7846,-4.8306,-4.7846,-4.7626,-4.7626,-4.7626,-4.7626,-4.7626,-4.8122,-4.8306,-4.8306,-4.8306,-4.9003,-5.0178,-5.0912,-5.1499,-5.205,-5.238,-5.3335,-5.4399,-5.4626,-5.6626,-5.7896,-5.6165,-6.0627,-6.4128,-6.3217,-6.4705,-6.6705,-6.8936,-7.3591,-7.6399,-7.563,-7.8861,-8.1093,-8.1093,-8.0285,-7.8477,-7.5399,-7.6399,-7.4707,-6.9308,-6.9475,-6.7475,-6.2716,-6.0666,-5.8473,-5.6049,-5.5126,0.0,0.0,0.0,0.0,0.0,0.0,0.0,0.0,-5.1972,-5.3472,-5.5088,-5.3857,-5.378,-5.4164,-5.25,-5.1962,-5.1962,-5.101,-5.0712,-5.0712,-5.0712,-5.0789,-5.0866,-5.0866,-5.1433,-5.2231,-5.3126,-5.3895,-5.4664,-5.5472,-5.5671,-5.5577,-5.5393,-5.5373,-5.5159,-5.4154,-5.3288,-5.2831,-5.331,-5.2174,-5.1277,0.0,0.0,0.0,0.0,0.0,0.0,0.0,0.0,-4.3772,-4.3644,0.0,0.0,-4.3515,-4.3515,-4.3515,-4.3515,0.0,0.0,0.0,0.0,0.0,-4.4654,-4.548,-4.6361,-4.7259,0.0,-4.8379,-4.8489,-4.8343,-4.8306,-4.8306,-4.8306,-4.8306,-4.8306,-4.8306,-4.8306,-4.8306,-4.8306,-4.9224,-5.0802,-5.2527,-5.2711,-5.2087,-5.3041,-5.3885,-5.4546,-5.4511,-5.7088,-5.8742,-5.706,-6.0512,-6.4628,-6.7859,-7.0975,-7.3091,-7.3553,-7.7476,-8.0131,-8.0015,-8.0631,-8.1093,-8.1093,-8.0285,-7.9246,-7.79,-7.6823,-7.513,-7.2706,-7.0744,-6.8282,-6.5282,-6.2166,-5.9665,-5.7857,0.0,0.0,0.0,0.0,0.0,0.0,0.0,0.0,-5.1846,-5.4087,0.0,-5.2654,-5.3818,-5.3933,-5.3318,-5.2269,-5.2346,-5.2779,-5.1241,-5.0712,-5.0712,-5.0712,-5.1125,-5.1692,-5.1692,-5.2269,-5.3126,-5.401,-5.4395,-5.4664,-5.5472,-5.5411,-5.5007,-5.4606,-5.4702,-5.46,-5.3328,-5.4002,-5.4486,-5.3201,-5.329,-5.3124,-5.1671,0.0,0.0,0.0,0.0,0.0,0.0,0.0,-4.5223,-4.4562,-4.4488,-4.4232,-4.3534,-4.3515,-4.3515,0.0,0.0,0.0,0.0,0.0,0.0,0.0,-4.548,0.0,0.0,0.0,-4.8673,-4.9353,-4.8636,-4.8306,-4.8306,-4.8306,-4.8306,-4.8306,-4.8306,-4.8306,-4.8306,-4.8306,-4.8893,-5.0051,-5.2307,-5.2711,-5.216,-5.3665,-5.4693,-5.539,-5.7011,-5.8396,-5.9819,-6.0781,-6.4436,-6.8398,-7.1783,-7.5553,-7.7207,-7.4976,-7.6899,-7.8284,-7.7823,-7.9785,-8.1093,-8.1093,-8.0285,-7.9438,-7.8554,-7.6938,-7.5053,-7.2937,-7.0821,-6.8513,-6.5974,-6.2089,-5.9935,-5.9588,0.0,0.0,0.0,0.0,0.0,0.0,0.0,-5.3626,0.0,0.0,0.0,-5.3933,-5.478,-5.4857,-5.4395,-5.3587,-5.351,-5.3664,-5.1933,-5.1625,-5.1933,-5.1471,-5.1587,-5.1962,-5.2423,-5.2856,-5.3356,-5.4241,-5.4511,-5.4664,-5.5472,-5.552,-5.5261,-5.5001,-5.5008,-5.4928,-5.4308,-5.4434,-5.4485,-5.3658,-5.3479,-5.2933,-5.1197,-4.9695,0.0,0.0,0.0,0.0,0.0,0.0,-4.6379,-4.5975,-4.5205,-4.4562,-4.4158,0.0,0.0,0.0,0.0,0.0,0.0,0.0,0.0,0.0,0.0,0.0,0.0,0.0,0.0,-4.961,-4.9591,-4.915,-4.8306,-4.8783,-4.871,-4.8306,-4.8306,-4.8306,-4.8379,-4.926,-5.0105,-5.1006,-5.2601,-5.2968,-5.2711,-5.3482,-5.4289,-5.5023,-6.0127,-6.0742,-6.2089,-6.5166,-6.9167,-7.2668,-7.4668,-7.8284,-7.9631,-7.6245,-7.6553,-7.6746,-7.5899,-7.8977,-8.1093,-8.1093,-8.0131,-7.9169,-7.8284,-7.6515,-7.4476,-7.2283,-7.0437,-6.8398,-6.6205,-6.2166,-6.0204,-6.0512,-5.6319,0.0,0.0,0.0,0.0,0.0,0.0,0.0,0.0,0.0,-5.5011,-5.5472,-5.5626,-5.5703,-5.5588,-5.4818,-5.4511,-5.428,-5.2741,-5.2615,-5.3126,-5.2615,-5.2462,-5.2577,-5.328,-5.3472,-5.3626,-5.4511,-5.4626,-5.4664,-5.5462,-5.5566,-5.5435,-5.527,-5.5261,-5.5199,-5.4906,-5.4448,-5.3989,-5.3645,-5.2856,-5.1839,-5.0568,-4.9821,0.0,0.0,0.0,0.0,0.0,0.0,-4.7296,0.0,-4.5828,-4.4819,-4.4488,0.0,0.0,0.0,0.0,0.0,-4.3515,0.0,0.0,0.0,0.0,-4.7902,-4.9574,0.0,-5.0398,-5.0124,-5.0398,-4.9958,-4.8857,-4.9517,-4.9481,-4.882,-4.882,-4.882,-4.8967,-5.0435,-5.1426,-5.2087,-5.3078,-5.3482,-5.3518,-5.3827,-5.4252,-5.4766,-6.2627,-6.4782,-6.6974,-6.8898,0.0,-7.5592,-7.5822,-7.8169,-7.9785,-7.94,-8.0092,-8.0285,-7.9438,-8.04,-8.1093,-8.1093,-7.9592,-7.8284,-7.7476,-7.5091,-7.3283,-7.2245,-6.986,-6.8052,-6.7013,-6.364,-6.1127,-5.9627,0.0,-5.6703,0.0,0.0,0.0,0.0,0.0,0.0,0.0,-5.528,-5.5203,-5.4664,-5.5395,-5.5703,-5.5588,-5.4818,-5.4511,-5.4395,-5.3433,-5.3126,-5.3318,-5.401,-5.4241,-5.428,-5.4357,-5.4395,-5.4549,-5.5357,-5.5049,-5.4654,-5.5407,-5.5338,-5.4941,-5.4446,-5.4585,-5.4544,-5.3328,-5.3569,-5.3683,-5.2155,-5.0977,-5.0096,-4.9544,-4.9204,-4.9148,0.0,0.0,0.0,0.0,0.0,-4.7939,-4.7186,0.0,0.0,-4.3754,-4.3551,0.0,0.0,-4.3515,0.0,0.0,0.0,0.0,-4.4764,0.0,-4.7902,-4.9574,-4.9684,-5.0418,-5.1756,-5.0381,-4.9994,-5.0582,-5.0655,-5.0655,-5.0582,-5.0582,-5.0582,-5.0618,-5.1499,-5.194,-5.216,-5.3702,-5.4289,-5.4473,-5.5941,-5.6051,-5.5574,-6.6898,0.0,0.0,0.0,0.0,0.0,0.0,-7.8707,-7.8861,-7.8361,-7.9477,-7.9977,-7.9092,-7.9785,-8.0092,-7.9592,-7.8438,-7.763,-7.7323,-7.5361,-7.3399,-7.1514,-6.9975,-6.8282,-6.6397,-6.3563,-6.1755,0.0,0.0,0.0,0.0,0.0,0.0,0.0,0.0,-5.5511,-5.5241,-5.5549,-5.5511,-5.5241,-5.5549,-5.5703,-5.5665,-5.5318,-5.5203,-5.5126,-5.428,-5.428,-5.4664,-5.4549,-5.4511,-5.4587,-5.5049,-5.5203,-5.528,-5.5588,-5.5472,-5.5269,-5.5522,-5.5461,-5.5224,-5.4994,-5.502,-5.5029,-5.4499,-5.4639,-5.4409,-5.2652,-5.1116,-4.9973,-4.9679,-4.9853,-5.0177,-5.0546,0.0,0.0,0.0,0.0,0.0,-4.8636,0.0,-4.5443,-4.4342,-4.3791,0.0,0.0,0.0,0.0,0.0,0.0,0.0,-4.5406,0.0,-4.8636,-5.0288,-5.0802,-5.1373,-5.1977,-5.183,-5.1426,-5.0839,-5.1316,-5.1242,-5.0802,-5.0802,-5.1059,-5.1536,-5.1867,-5.227,-5.2821,-5.3959,-5.4399,-5.4546,-5.5647,-5.5868,-5.5721,-7.0821,0.0,-7.1783,0.0,-7.6322,-7.6361,-7.9361,-7.8861,-7.7938,-7.7361,-7.8554,-7.9092,-7.8246,-7.9131,-7.9438,-7.8592,-7.7746,-7.7169,-7.6938,-7.5515,-7.3668,-7.136,-7.0475,0.0,-6.6705,-6.4397,-6.287,-6.2101,-6.005,0.0,0.0,0.0,0.0,0.0,-5.6368,-5.5934,-5.5703,-5.5703,-5.5703,-5.5703,-5.5703,-5.5703,-5.5703,-5.5703,-5.5549,-5.528,-5.4972,-5.5049,-5.5318,-5.5241,-5.5049,-5.4934,-5.5511,-5.5703,-5.5703,-5.5703,-5.5703,-5.5692,-5.5638,-5.5531,-5.5461,-5.5439,-5.5415,-5.5403,-5.5403,-5.5212,-5.4524,-5.2805,-5.1254,-5.0089,-4.9762,-5.0287,-5.067,-5.0508,0.0,0.0,0.0,-5.1169,0.0,-4.893,-4.7095,-4.559,-4.4764,-4.4195,0.0,0.0,0.0,0.0,0.0,0.0,0.0,0.0,0.0,0.0,0.0,-5.161,-5.2123,-5.2344,-5.2711,-5.238,-5.1536,-5.2087,-5.205,-5.1499,-5.1499,-5.183,-5.238,-5.2601,-5.3041,-5.3665,-5.4693,-5.5097,-5.5207,-5.6014,-5.6161,-5.6051,-7.3822,-7.463,-7.5976,-8.0285,-8.0323,-7.9746,-7.9785,-7.84,-7.7323,-7.7284,-7.8015,-7.8207,-7.74,-7.8784,-7.9438,-7.8592,-7.7746,-7.6938,-7.6053,-7.5207,-7.3937,0.0,0.0,-7.009,-6.8398,-6.6705,-6.4628,-6.2101,0.0,0.0,-5.7022,0.0,-5.7022,-5.6983,-5.6983,-5.6522,-5.5703,-5.5703,-5.5703,-5.5703,-5.5703,-5.5703,-5.5703,-5.5703,-5.5203,-5.4626,-5.5395,-5.5164,-5.478,-5.6406,-5.6406,-5.5703,-5.5703,-5.5703,-5.5703,-5.5703,-5.5703,-5.5692,-5.5638,-5.5531,-5.5461,-5.5439,-5.5415,-5.5403,-5.5403,-5.4715,-5.3645,-5.1964,-5.0967,-5.0212,-4.9617,-5.0101,-5.0129,-4.8772,0.0,0.0,0.0,-4.9647,0.0,-4.7333,-4.6397,-4.559,-4.4764,-4.4691,0.0,0.0,0.0,0.0,0.0,0.0,0.0,-4.7076,-4.9461,0.0,-5.0802,-5.161,-5.2417,-5.3167,-5.238,-5.2417,-5.3167,-5.3167,-5.3167,-5.3167,-5.3167,-5.3167,-5.3261,-5.4032,-5.4363,-5.4546,-5.6161,-5.6785,-5.6859,-5.7666,-5.7483,-5.6895,-7.6899,-7.7784,-7.8784,-8.0746,-7.99,-7.89,-7.89,-7.7476,-7.6399,-7.6399,-7.713,-7.7361,-7.6515,-7.79,-7.8592,0.0,-7.6899,-7.6284,0.0,-7.5745,-7.4553,-7.2283,-7.1937,-7.0437,-6.759,-6.6436,-6.4936,-6.2935,0.0,0.0,0.0,-5.8973,-5.8704,-5.8665,-5.8127,-5.7396,-5.6599,-5.6599,-5.6252,-5.5703,-5.5703,-5.5703,-5.5703,-5.5703,-5.5549,-5.5357,-5.5588,-5.5549,-5.5395,-5.5934,-5.5934,-5.578,-5.6406,-5.6599,-5.6714,-5.728,-5.7027,-5.6483,-5.6452,-5.5933,-5.5554,-5.6104,-5.6218,-5.6205,-5.6205,-5.4639,-5.3225,-5.3301,-5.2276,-5.1388,-5.1419,-5.1934,-5.1931,-5.0619,-5.1074,0.0,-5.0508,0.0,-4.9187,-4.8049,-4.7186,-4.6379,-4.559,-4.5516,0.0,0.0,0.0,0.0,0.0,0.0,0.0,0.0,-5.0325,0.0,-5.161,-5.2417,-5.2968,-5.3203,-5.3518,-5.3775,-5.3995,-5.3445,-5.3203,-5.3203,-5.3203,-5.3203,-5.324,-5.4069,-5.4399,-5.4546,-5.6161,-5.6822,-5.6895,-5.7703,-5.785,-5.7666,-7.79,-7.8477,-7.9131,-7.9977,-7.8977,-7.8054,-7.8054,-7.7169,-7.6476,-7.6476,-7.7207,-7.7553,-7.7015,-7.7592,0.0,-7.6861,-7.6322,-7.6015,-7.6015,-7.5707,-7.4668,-7.2783,-7.2052,-7.0398,-6.7667,-6.6782,0.0,-6.3782,-6.232,-6.1166,-6.0281,-5.9435,-5.9204,-5.9473,-5.8665,-5.8011,-5.7473,-5.7473,-5.7165,-5.6665,-5.6319,-5.6214,-5.6126,-5.5818,-5.5703,-5.5703,-5.5703,-5.5703,-5.5742,-5.6088,-5.5972,-5.5895,-5.7088,-5.7462,-5.7555,-5.8093,-5.7609,-5.6883,-5.6836,-5.6381,-5.6001,-5.655,-5.6894,-5.7008,-5.6664,-5.5135,-5.3836,-5.4065,-5.2996,-5.2056,-5.2119,-5.2564,-5.2439,-5.0935,-5.1443,-5.1499,-5.0068,0.0,-4.917,0.0,0.0,0.0,0.0,-4.6801,-4.6581,0.0,0.0,0.0,0.0,0.0,0.0,-5.0105,-5.194,0.0,-5.2894,-5.3408,-5.3665,-5.3665,-5.4179,-5.4399,-5.4363,-5.3885,-5.3665,-5.3665,-5.3665,-5.3812,-5.4142,-5.462,-5.5023,-5.5427,-5.6748,-5.7262,-5.7299,-5.7813,-5.7997,-5.7997,-7.7207,-7.7361,-7.763,0.0,-7.7861,0.0,-7.7284,-7.7246,-7.7207,-7.7207,-7.7861,-7.8323,-7.8323,-7.7669,-7.6861,-7.6053,0.0,0.0,0.0,-7.5168,-7.4361,-7.3538,-7.1898,-7.0167,-6.8423,-6.7628,-6.632,-6.4512,-6.2089,-6.0435,-5.9588,-5.8819,-5.8858,-5.955,-5.8819,-5.8434,-5.8396,-5.8396,-5.8357,-5.8242,-5.7434,-5.706,-5.6907,-5.6165,-5.5818,-5.5703,-5.5818,-5.5818,-5.5934,-5.6791,-5.656,-5.6165,-5.778,-5.8274,-5.8265,-5.8265,-5.7651,-5.6986,-5.6986,-5.6827,-5.6703,-5.6841,-5.7405,-5.7695,-5.6855,-5.5976,-5.5084,-5.4384,-5.3299,-5.2404,-5.215,-5.2367,-5.1955,-5.0099,-5.0936,-5.1022,-4.8636,-4.893,-4.8893,0.0,0.0,0.0,-4.8489,-4.8489,-4.8453,0.0,0.0,0.0,0.0,0.0,-5.0875,-5.3151,-5.4032,-5.4473,-5.4473,-5.4473,-5.4473,-5.4473,-5.4436,-5.4436,-5.4473,-5.4436,-5.4436,-5.4473,-5.4436,-5.484,-5.5596,-5.5596,-5.6051,-5.6895,-5.7703,-5.7997,-5.7997,-5.7997,-5.7997,-5.7997,0.0,0.0,-7.8477,-7.9323,-7.8284,-7.7284,-7.7284,-7.6746,-7.6322,-7.6322,-7.6476,-7.6592,-7.6592,-7.6438,-7.6207,-7.6015,-7.6015,-7.6015,-7.6015,-7.5168,-7.4361,-7.3538,-7.2476,-7.0783,-6.8462,-6.8205,-6.6628,-6.3628,-6.2397,-6.137,-6.0473,-6.0281,-6.0319,-6.0473,-6.0281,-5.9858,-5.9204,-5.9204,-5.8858,-5.828,-5.8088,-5.7588,-5.706,-5.7511,-5.6857,-5.5857,-5.7203,-5.7242,-5.683,-5.7703,-5.7857,-5.778,-5.8165,-5.8696,-5.911,-5.911,-5.8462,-5.7748,-5.7798,-5.7213,-5.6792,-5.7532,-5.78,-5.7848,-5.7619,-5.5938,-5.4613,-5.5394,-5.4363,-5.3505,-5.4091,-5.3833,-5.2846,-5.0848,-5.0345,-4.9738,-4.8489,-4.7976,-4.8012,0.0,-4.915,-4.9517,-5.0141,-5.0215,-4.9701,0.0,0.0,0.0,0.0,-5.1242,-5.2601,-5.3167,-5.4583,-5.5317,-5.5317,-5.5317,-5.5317,-5.5317,-5.4693,-5.473,-5.528,-5.4693,-5.473,-5.528,-5.4656,-5.484,-5.5596,-5.5596,-5.6051,-5.6895,-5.7703,-5.7997,-5.7997,-5.7997,-5.7997,-5.7997,-7.84,-7.8207,-7.8092,-7.8554,-7.7592,-7.6707,-7.6707,-7.663,-7.6592,-7.6592,-7.6592,-7.6592,-7.6592,-7.6245,-7.6015,-7.6015,-7.6015,-7.6015,-7.6015,-7.4861,-7.3976,-7.3514,-7.1937,-7.0206,-6.8423,-6.8013,-6.6513,-6.3897,-6.2704,-6.187,-6.1408,-6.0973,-6.0781,-6.0781,-6.0781,-6.055,-6.0089,-6.0089,-5.9858,-5.9396,-5.9011,-5.8588,-5.8165,-5.8242,-5.7703,-5.7011,-5.7973,-5.8011,-5.7665,-5.8127,-5.8319,-5.8319,-5.8319,-5.8788,-5.9369,-5.9369,-5.8949,-5.8579,-5.8604,-5.8195,-5.7976,-5.8857,-5.8754,-5.8459,-5.8459,-5.6778,-5.544,-5.614,-5.5011,-5.4059,-5.4556,-5.4017,-5.2947,-5.1099,-5.0435,-4.9701,-4.8489,-4.8269,-4.8563,-4.9444,-5.0235,-5.0896,-5.1316,-5.1353,-5.0986,-5.0068,-5.0839,0.0,-5.1242,-5.3188,-5.4289,-5.4289,-5.55,-5.6161,-5.6161,-5.6161,-5.6161,-5.6124,-5.5721,-5.5721,-5.6124,-5.5684,-5.5757,-5.6124,-5.5684,-5.5941,-5.6675,-5.6308,-5.6638,-5.7409,-5.7813,-5.7997,-5.7997,-5.7997,-5.7997,-5.7997,-7.8284,-7.7669,-7.713,-7.7284,-7.6592,-7.6015,-7.6015,-7.663,-7.713,-7.7284,-7.7284,-7.7284,-7.7284,-7.6746,-7.6322,-7.6207,-7.6207,-7.613,-7.6015,-7.4437,-7.3514,-7.3514,-7.1168,-6.9436,-6.8436,-6.7436,-6.6167,-6.4589,-6.3166,-6.2397,-6.2255,-6.1396,-6.1012,-6.0973,-6.0858,-6.0781,-6.0781,-6.0781,-6.0781,-6.0742,-5.9973,-5.9627,-5.9435,-5.8896,-5.8511,-5.8319,-5.8588,-5.8588,-5.8511,-5.8627,-5.8665,-5.8665,-5.8511,-5.8957,-5.946,-5.9345,-5.9332,-5.9356,-5.9241,-5.9163,-5.9314,-6.0193,-5.9759,-5.9095,-5.9095,-5.7925,-5.6765,-5.6633,-5.5473,-5.445,-5.4328,-5.3714,-5.2674,-5.1059,-5.0692,-5.0068,-4.8526,0.0,-4.95,-4.9757,-5.1116,-5.205,-5.216,-5.216,-5.2123,-5.2013,-5.2234,-5.2601,-5.3167,-5.484,-5.5757,-5.5757,-5.6565,-5.6969,-5.6969,-5.6969,-5.6932,-5.6822,-5.6822,-5.6822,-5.6822,-5.6822,-5.6859,-5.6969,-5.6859,-5.7262,-5.7923,-5.7152,-5.7262,-5.7997,-5.7997,-5.7997,-5.7997,-5.7997,-5.7997,-5.7997,-7.7323,-7.6784,-7.6438,-7.7169,-7.6592,-7.6015,-7.6015,-7.6092,-7.6476,-7.7207,-7.7284,-7.7284,-7.7284,-7.7784,-7.7823,-7.7169,-7.7092,-7.6784,-7.6053,-7.4437,-7.3514,-7.3514,-7.1706,-6.9975,-6.8423,-6.6898,-6.559,-6.4589,-6.4359,-6.3858,-6.3089,-6.2281,-6.1908,-6.187,-6.1127,-6.0781,-6.0781,-6.0781,-6.0781,-6.0781,-6.0666,-6.0165,-5.9588,-6.0165,-5.9511,-5.8511,-5.9896,-5.9935,-5.9435,-6.0165,-6.0396,-6.0281,-5.955,-5.9802,-6.0227,-5.9537,-5.9727,-6.0067,-5.9381,-5.9203,-5.9368,-6.0193,-5.9759,-5.9095,-5.9095,-5.8383,-5.752,-5.684,-5.596,-5.5134,-5.4498,-5.375,-5.2674,-5.1059,-5.0215,-4.9444,-4.8453,0.0,-4.904,-5.0435,-5.1426,-5.227,-5.2968,-5.3004,-5.2747,-5.205,-5.3261,-5.3775,-5.3203,-5.539,-5.6602,-5.6602,-5.7373,-5.7813,-5.7813,-5.7813,-5.7483,-5.6822,-5.6822,-5.6822,-5.6822,-5.6822,-5.7189,-5.7776,-5.7116,-5.7262,-5.7923,-5.7152,-5.7262,-5.7997,-5.7997,-5.7997,-5.7997,-5.7997,-5.7997,-5.7997,-7.8477,-7.7938,-7.763,-7.8477,-7.7553,-7.6707,-7.6707,-7.6284,-7.6322,-7.7169,-7.7284,-7.7476,-7.79,-7.8284,-7.8361,-7.7977,-7.7553,-7.713,-7.6746,-7.4707,-7.3514,-7.3514,-7.1822,-7.0129,-6.8423,-6.632,-6.5243,-6.5282,-6.4359,-6.3935,-6.3974,-6.3128,-6.2512,-6.2101,-6.2127,-6.1666,-6.0858,-6.1743,-6.1627,-6.0819,-6.132,-6.0973,-6.0242,-6.0666,-6.0319,-5.9742,-6.0512,-6.055,-6.0242,-6.0666,-6.0781,-6.0742,-6.0319,-6.0414,-6.0559,-6.0125,-6.0173,-6.0307,-5.9953,-5.9852,-5.9953,-6.0307,-5.9759,-5.9224,-5.9682,-5.8803,-5.7877,-5.7694,-5.6517,-5.5319,-5.4768,-5.385,-5.2821,-5.1646,-5.1132,0.0,0.0,-5.0031,-5.0582,-5.1353,-5.216,-5.2784,-5.3188,-5.3203,-5.3078,-5.2674,-5.3739,-5.4436,-5.4473,-5.5978,-5.7005,-5.7446,-5.7813,-5.7997,-5.7997,-5.7997,-5.7813,-5.7446,-5.7446,-5.7446,-5.7446,-5.7446,-5.7666,-5.796,-5.7593,-5.7666,-5.796,-5.7593,-5.7666,-5.7997,-5.7997,-5.7997,-5.7997,-5.7997,-5.7997,-5.7997,-7.9361,-7.8977,-7.8631,-7.9131,-7.813,-7.7284,-7.7284,-7.6746,-7.6669,-7.7746,-7.7861,-7.813,-7.8707,-7.8977,-7.9015,-7.8823,-7.8054,-7.7592,-7.7592,-7.5207,-7.3707,-7.3514,-7.1668,-7.0014,-6.8744,-6.659,-6.5705,-6.6167,-6.4859,-6.4436,-6.4897,-6.4012,-6.3281,-6.2666,-6.2935,-6.2397,-6.1435,-6.2551,-6.2397,-6.1435,-6.1908,-6.1716,-6.1089,-6.0858,-6.0781,-6.0781,-6.0781,-6.0781,-6.0781,-6.0781,-6.0781,-6.0781,-6.0781,-6.0746,-6.0685,-6.061,-6.0531,-6.0436,-6.0384,-6.0422,-6.0422,-6.0422,-5.9911,-5.9568,-6.0255,-5.9321,-5.8339,-5.8359,-5.7082,-5.5715,-5.4941,-5.408,-5.3151,-5.216,0.0,0.0,0.0,-5.1646,-5.2197,-5.2013,-5.2711,-5.3203,-5.3203,-5.335,-5.3482,-5.3482,-5.4399,-5.5244,-5.5831,-5.6638,-5.7373,-5.796,-5.7997,-5.7997,-5.7997,-5.7997,-5.7997,-5.7997,-5.7997,-5.7997,-5.7997,-5.7997,-5.7997,-5.7997,-5.7997,-5.7997,-5.7997,-5.7997,-5.7997,-5.7997,-5.7997,-5.8107,-5.829,-5.829,-5.84,-5.8547,-7.8592,-7.8515,-7.8284,-7.7592,-7.7361,-7.7284,-7.7284,-7.7246,-7.7784,-7.94,-7.9631,-7.9631,-7.9708,-8.0439,-8.0592,-7.9785,-7.89,-7.84,-7.84,-7.6015,-7.4284,-7.3538,-7.1129,-6.9744,-6.9629,-6.8629,-6.7744,-6.7013,-6.6859,-6.6474,-6.5782,-6.4897,-6.4474,-6.4359,-6.2858,-6.2512,-6.3089,-6.2435,-6.2551,-6.3051,-6.2358,-6.2062,-6.1908,-6.1089,-6.0781,-6.0781,-6.0781,-6.0781,-6.0781,-6.0781,-6.0781,-6.0781,-6.0781,-6.0746,-6.0685,-6.061,-6.0533,-6.0466,-6.0436,-6.0422,-6.0422,-6.0422,-6.0346,-6.0332,-6.0384,-6.0038,-5.9344,-5.8269,-5.7622,-5.6705,-5.4807,-5.4384,-5.3812,-5.2234,0.0,0.0,-5.1022,-5.2123,-5.2858,-5.2087,-5.2711,-5.3203,-5.3203,-5.3885,-5.4326,-5.4326,-5.5757,-5.6638,-5.6712,-5.7483,-5.7923,-5.7997,-5.7997,-5.7997,-5.7997,-5.7997,-5.7997,-5.7997,-5.7997,-5.7997,-5.7997,-5.7997,-5.7997,-5.7997,-5.7997,-5.7997,-5.7997,-5.7997,-5.7997,-5.7997,-5.7997,-5.8474,-5.9111,-5.9111,-5.9575,-6.0236,-7.84,-7.8477,-7.8746,-7.9515,-7.9208,-7.8861,-7.8861,-7.84,-7.8477,-7.9669,-7.9823,-8.0015,-8.0554,-8.09,-8.0977,-8.0631,-7.9823,-7.9092,-7.8515,-7.713,-7.5245,-7.2783,-7.0783,-6.9706,-6.9706,-6.8859,-6.8244,-6.7898,-6.7359,-6.6936,-6.6628,-6.5782,-6.5128,-6.4589,-6.4512,-6.4012,-6.3346,-6.4128,-6.4012,-6.3281,-6.2974,-6.2551,-6.2062,-6.1716,-6.1281,-6.0858,-6.1408,-6.1243,-6.0781,-6.0781,-6.0781,-6.0896,-6.1435,-6.1577,-6.1668,-6.2094,-6.1786,-6.1351,-6.1324,-6.0901,-6.0439,-6.0439,-6.045,-6.0422,-6.0422,-6.0099,-5.9597,-5.8893,-5.8051,-5.7089,-5.6066,-5.5464,-5.4913,-5.4347,0.0,-5.4473,-5.3849,-5.4289,-5.4583,-5.4252,-5.4509,-5.4693,-5.4693,-5.495,-5.5133,-5.5133,-5.6161,-5.6822,-5.6822,-5.7556,-5.7997,-5.7997,-5.7997,-5.7997,-5.7997,-5.7997,-5.7997,-5.7997,-5.7997,-5.7997,-5.7997,-5.7997,-5.7997,-5.7997,-5.7997,-5.7997,-5.7997,-5.7997,-5.7997,-5.8033,-5.8547,-5.8927,-5.9258,-5.9735,-6.0162,-6.0419,-7.9208,-7.9323,-7.9592,-8.0516,-8.0208,-7.9823,-7.9823,-7.9285,-7.9208,-8.0092,-8.0208,-8.0439,-8.1016,-8.1093,-8.1093,-8.1093,-8.0285,-7.9554,-7.8938,-7.763,-7.5592,-7.2745,-7.0975,-7.009,-7.009,-6.9475,-6.9052,-6.8821,-6.8205,-6.7782,-6.7513,-6.6936,-6.6359,-6.582,-6.5859,-6.5397,-6.4551,-6.5205,-6.4974,-6.4089,-6.382,-6.3397,-6.2858,-6.2589,-6.2089,-6.1666,-6.2243,-6.2089,-6.1589,-6.1589,-6.1589,-6.1704,-6.2281,-6.2462,-6.2565,-6.3066,-6.2785,-6.2311,-6.2311,-6.1837,-6.1196,-6.0646,-6.0464,-6.0422,-6.0422,-5.9969,-5.9537,-5.927,-5.8343,-5.7439,-5.6904,-5.6345,-5.5868,-5.5647,-5.5794,-5.5868,-5.5633,-5.5794,-5.5868,-5.5633,-5.5596,-5.5596,-5.5596,-5.5831,-5.5978,-5.5978,-5.6712,-5.7189,-5.7189,-5.7703,-5.7997,-5.7997,-5.7997,-5.7997,-5.7997,-5.7997,-5.7997,-5.7997,-5.8253,-5.8253,-5.8033,-5.851,-5.8621,-5.84,-5.8657,-5.8731,-5.8731,-5.8731,-5.8731,-5.8804,-5.9355,-5.9735,-6.0015,-6.0566,-6.1117,-6.1581,-8.1093,-8.1093,-8.0823,-7.9977,-7.9823,-7.9823,-7.9823,-7.9823,-8.0131,-8.0977,-8.1093,-8.1093,-8.1093,-8.1093,-8.1093,-8.1093,-8.0323,-7.9823,-7.9785,-7.74,-7.5245,-7.3591,-7.186,-7.0898,-7.0898,-7.0898,-7.0514,-6.9706,-6.9706,-6.9244,-6.8398,-6.8385,-6.8385,-6.8308,-6.6667,-6.6359,-6.7013,-6.532,-6.5128,-6.582,-6.4936,-6.4589,-6.4512,-6.3628,-6.3308,-6.3308,-6.332,-6.3308,-6.3308,-6.3308,-6.3308,-6.3308,-6.3308,-6.3271,-6.3233,-6.3295,-6.3271,-6.322,-6.322,-6.3168,-6.2667,-6.0952,-6.0464,-6.0422,-6.0422,-5.9793,-5.9215,-5.9215,-5.8545,-5.774,-5.6969,-5.6822,-5.6565,-5.5757,-5.6308,-5.6528,-5.5721,-5.6308,-5.6528,-5.5684,-5.5611,-5.5611,-5.5611,-5.6345,-5.6822,-5.6822,-5.7556,-5.7997,-5.7997,-5.7997,-5.7997,-5.7997,-5.7997,-5.7997,-5.7997,-5.7997,-5.7997,-5.7997,-5.8841,-5.8804,-5.807,-5.9685,-5.9979,-5.9281,-6.0052,-6.0419,-6.0419,-6.0419,-6.0419,-6.0419,-6.0419,-6.0896,-6.1594,-6.163,-6.2658,-6.4191,-8.0208,-8.0208,-8.0285,-8.0669,-8.0708,-8.0708,-8.0708,-8.0708,-8.0823,-8.1054,-8.1093,-8.1093,-8.1093,-8.1093,-8.1093,-8.1093,-8.0862,-8.0208,-7.8977,-7.6515,-7.4861,-7.4361,-7.2706,-7.1822,-7.1822,-7.1206,-7.0783,-7.0552,-6.9975,-6.959,-6.9321,-6.8706,-6.8385,-6.8385,-6.7898,-6.7782,-6.7936,-6.6821,-6.6513,-6.6628,-6.5166,-6.4589,-6.4589,-6.432,-6.382,-6.3474,-6.4705,-6.4359,-6.3397,-6.4012,-6.382,-6.3423,-6.4012,-6.5,-6.5833,-6.5282,-6.5077,-6.4872,-6.4296,-6.3589,-6.2881,-6.2369,-6.2185,-6.1975,-6.1363,-6.0858,-6.0217,-5.9383,-5.8791,-5.8252,-5.7735,-5.7629,-5.7556,-5.7299,-5.7483,-5.7556,-5.7299,-5.7483,-5.7556,-5.7299,-5.7262,-5.7262,-5.7262,-5.7483,-5.7629,-5.7629,-5.785,-5.8253,-5.8804,-5.8327,-5.8253,-5.8841,-5.8841,-5.8584,-5.7997,-5.7997,-5.7997,-5.7997,-5.8841,-5.9074,-5.8877,-5.9942,-6.0461,-6.0522,-6.0415,-6.0595,-6.0892,-6.0525,-6.0419,-6.0456,-6.1006,-6.1741,-6.2511,-6.3135,-6.4255,-6.5443,-8.0323,-8.0323,-8.0477,-8.1016,-8.1093,-8.1093,-8.1093,-8.1093,-8.1093,-8.1093,-8.1093,-8.1093,-8.1093,-8.1093,-8.1093,-8.1093,-8.1093,-8.0362,-7.8592,-7.74,-7.6284,-7.5245,-7.4245,-7.3245,-7.2206,-7.1668,-7.1245,-7.0898,-7.0398,-7.0167,-7.0167,-6.9975,-6.9706,-6.9398,-6.9398,-6.9206,-6.8859,-6.7975,-6.7628,-6.7513,-6.6513,-6.5897,-6.5628,-6.5974,-6.5551,-6.4974,-6.6397,-6.6205,-6.5346,-6.5513,-6.5243,-6.4974,-6.582,-6.6821,-6.7513,-6.7013,-6.6872,-6.6627,-6.569,-6.4994,-6.4451,-6.4049,-6.3418,-6.2777,-6.2242,-6.1811,-6.1313,-6.0559,-6.0,-5.9414,-5.8873,-5.8612,-5.8364,-5.8033,-5.7997,-5.7997,-5.7997,-5.7997,-5.7997,-5.7997,-5.7997,-5.7997,-5.7997,-5.7997,-5.8143,-5.8437,-5.8474,-5.8841,-5.9648,-5.8914,-5.8841,-5.9625,-5.9368,-5.9134,-5.8951,-5.8951,-5.8804,-5.8474,-5.9281,-5.9661,-5.9698,-6.086,-6.1624,-6.2004,-6.1553,-6.1808,-6.2465,-6.1664,-6.1557,-6.1924,-6.2401,-6.3062,-6.3895,-6.4598,-6.552,-6.6519,-8.1093,-8.1093,-8.1093,-8.1093,-8.1093,-8.1093,-8.1093,-8.1093,-8.1093,-8.1093,-8.1093,-8.1093,-8.1093,-8.1093,-8.1093,-8.1093,-8.1016,-8.0323,-7.8707,-7.9285,-7.8669,-7.6322,-7.613,-7.4976,-7.2591,-7.2399,-7.1937,-7.1129,-7.1052,-7.1052,-7.1168,-7.186,-7.1822,-7.1129,-7.1129,-7.0667,-6.986,-6.9013,-6.859,-6.85,-6.8436,-6.7936,-6.7282,-6.809,-6.7898,-6.7321,-6.8205,-6.8475,-6.8282,-6.7475,-6.7205,-6.7359,-6.8167,-6.8462,-6.85,-6.8436,-6.8462,-6.8281,-6.7184,-6.695,-6.6754,-6.5765,-6.442,-6.3312,-6.3083,-6.2718,-6.2454,-6.2273,-6.1674,-6.0917,-6.011,-5.9604,-5.9074,-5.8327,-5.8143,-5.8107,-5.8107,-5.8033,-5.7997,-5.7997,-5.807,-5.8107,-5.8107,-5.818,-5.851,-5.9258,-5.9294,-5.9685,-6.0456,-5.9758,-5.9661,-6.0493,-5.9795,-5.9735,-6.0382,-6.0456,-6.0126,-5.9294,-6.0126,-6.0529,-6.0676,-6.2267,-6.3281,-6.3743,-6.3307,-6.3785,-6.4762,-6.353,-6.3503,-6.42,-6.42,-6.4703,-6.5503,-6.5949,-6.6668,-6.756,-8.1093,-8.1093,-8.1093,-8.1093,-8.1093,-8.1093,-8.1093,-8.1093,-8.1093,-8.1093,-8.1093,-8.1093,-8.1093,-8.1093,-8.1093,-8.1093,-8.0477,-7.9939,-7.9554,-7.9054,-7.8554,-7.7977,-7.7361,-7.6438,-7.5207,-7.3899,-7.3129,-7.2937,-7.2245,-7.2283,-7.2937,-7.2437,-7.2476,-7.2937,-7.2937,-7.2476,-7.1591,-7.0744,-6.9975,-6.936,-6.8667,-6.8282,-6.8129,-6.8321,-6.8282,-6.8244,-6.9129,-6.8975,-6.8359,-6.8167,-6.8129,-6.8167,-6.8346,-6.8859,-6.9283,-6.859,-6.8819,-6.8905,-6.7323,-6.7367,-6.7614,-6.6667,-6.6636,-6.6292,-6.4344,-6.384,-6.3426,-6.2107,-6.1693,-6.1317,-6.043,-6.0197,-6.0089,-5.9905,-5.9355,-5.8927,-5.8927,-5.84,-5.7997,-5.7997,-5.8547,-5.8927,-5.8927,-5.9501,-5.9942,-6.0126,-6.0162,-6.0493,-6.13,-6.0566,-6.0529,-6.13,-6.1153,-6.086,-6.0419,-6.1006,-6.0933,-6.0162,-6.097,-6.1667,-6.2328,-6.3648,-6.489,-6.5881,-6.5514,-6.5634,-6.6122,-6.5152,-6.4897,-6.5044,-6.5044,-6.5741,-6.6802,-6.6922,-6.7897,-6.928,-8.1093,-8.1093,-8.1093,-8.1093,-8.1093,-8.1093,-8.1093,-8.1093,-8.1093,-8.1093,-8.1093,-8.1093,-8.1093,-8.1093,-8.1093,-8.1093,-8.0669,-8.0246,-7.9823,-7.9746,-7.9361,-7.8515,-7.8515,-7.8092,-7.7207,-7.5976,-7.4707,-7.3514,-7.3053,-7.2822,-7.2899,-7.3245,-7.3206,-7.2899,-7.3707,-7.363,-7.2783,-7.2322,-7.1668,-7.086,-7.0398,-6.9744,-6.9052,-6.9436,-6.936,-6.9167,-7.0437,-7.0321,-6.959,-6.959,-6.936,-6.909,-6.9475,-6.9898,-7.0244,-7.0206,-7.0486,-7.0483,-6.9145,-6.9021,-6.9023,-6.7707,-6.7623,-6.7553,-6.6254,-6.5681,-6.5245,-6.4769,-6.3672,-6.2718,-6.2278,-6.1546,-6.086,-6.0456,-6.0052,-5.9795,-5.9795,-5.9428,-5.9134,-5.9134,-5.9538,-5.9795,-5.9795,-6.0162,-6.0566,-6.0933,-6.1337,-6.1741,-6.2144,-6.1777,-6.1741,-6.2144,-6.1777,-6.1594,-6.1557,-6.1961,-6.2181,-6.2181,-6.2411,-6.2936,-6.3772,-6.5024,-6.6287,-6.7444,-6.6657,-6.6646,-6.7133,-6.6057,-6.5741,-6.5888,-6.5888,-6.6628,-6.781,-6.8008,-6.8838,-6.9759,-8.1093,-8.1093,-8.1093,-8.1093,-8.1093,-8.1093,-8.1093,-8.1093,-8.1093,-8.1093,-8.1093,-8.1093,-8.1093,-8.1093,-8.1093,-8.1093,-8.1093,-8.0785,-8.0092,-8.0708,-8.0477,-7.9015,-7.9477,-7.9477,-7.8746,-7.79,-7.6399,-7.4168,-7.386,-7.3399,-7.286,-7.413,-7.4053,-7.2899,-7.4284,-7.4476,-7.3707,-7.3707,-7.3206,-7.2399,-7.2399,-7.1591,-7.0437,-7.1091,-7.0937,-7.0514,-7.1937,-7.1975,-7.136,-7.136,-7.0898,-7.0475,-7.1129,-7.136,-7.1475,-7.2206,-7.2399,-7.2192,-7.1122,-7.0844,-7.0501,-6.874,-6.8304,-6.8301,-6.8253,-6.7544,-6.7063,-6.7561,-6.6011,-6.4527,-6.4486,-6.3251,-6.1961,-6.1153,-6.1043,-6.0933,-6.0639,-6.0603,-6.0566,-6.0419,-6.0639,-6.0823,-6.0823,-6.108,-6.141,-6.1777,-6.2695,-6.3172,-6.3025,-6.3172,-6.3246,-6.3246,-6.2585,-6.2548,-6.322,-6.3246,-6.3626,-6.4425,-6.4462,-6.4704,-6.5171,-6.6378,-6.7579,-6.8659,-6.7595,-6.7546,-6.8124,-6.6926,-6.6556,-6.6817,-6.6817,-6.7518,-6.8586,-6.9047,-6.9484,-6.974,-8.1093,-8.1093,-8.1093,-8.1093,-8.1093,-8.1093,-8.1093,-8.1093,-8.1093,-8.1093,-8.1093,-8.1093,-8.1093,-8.1093,-8.1093,-8.1093,-8.1093,-8.1054,-8.0939,-8.1016,-8.0977,-8.0746,-8.0131,-7.9746,-7.9631,-7.8784,-7.7823,-7.6784,-7.5284,-7.4861,-7.5476,-7.4938,-7.4976,-7.5515,-7.5707,-7.5361,-7.4553,-7.4553,-7.4091,-7.3322,-7.3322,-7.3206,-7.3014,-7.3129,-7.3091,-7.3014,-7.3245,-7.3245,-7.3168,-7.3168,-7.3091,-7.3014,-7.3129,-7.3168,-7.3168,-7.3283,-7.3322,-7.2962,-7.1276,-7.1304,-7.1383,-6.9567,-6.9604,-6.9955,-6.9623,-6.86,-6.7545,-6.6898,-6.6507,-6.617,-6.5814,-6.5213,-6.453,-6.3723,-6.3576,-6.3099,-6.163,-6.1447,-6.119,-6.0493,-6.163,-6.245,-6.245,-6.3796,-6.409,-6.2768,-6.409,-6.4677,-6.3943,-6.4567,-6.4971,-6.4971,-6.4861,-6.4861,-6.4971,-6.4971,-6.5225,-6.5784,-6.7516,-6.7815,-6.6881,-6.7816,-6.8736,-6.9588,-6.9417,-6.9436,-6.9492,-6.8496,-6.811,-6.8148,-6.8148,-6.8497,-6.9047,-6.9544,-6.9778,-6.9682,-8.1093,-8.1093,-8.1093,-8.1093,-8.1093,-8.1093,-8.1093,-8.1093,-8.1093,-8.1093,-8.1093,-8.1093,-8.1093,-8.1093,-8.1093,-8.1093,-8.1093,-8.1093,-8.1093,-8.1093,-8.1093,-8.1093,-8.0746,-8.0516,-8.0516,-7.9669,-7.9054,-7.8707,-7.7438,-7.6553,-7.6015,-7.6553,-7.6784,-7.6746,-7.7207,-7.7169,-7.6784,-7.6322,-7.5668,-7.4861,-7.4361,-7.3899,-7.3514,-7.3514,-7.3514,-7.3514,-7.3514,-7.3783,-7.4091,-7.3654,-7.3514,-7.3514,-7.3514,-7.3514,-7.3591,-7.4053,-7.4139,-7.3957,-7.3188,-7.3176,-7.3069,-7.1812,-7.1711,-7.1646,-7.0687,-7.0241,-6.9645,-6.8265,-6.7251,-6.6636,-6.6654,-6.594,-6.5191,-6.4824,-6.4787,-6.453,-6.3759,-6.3686,-6.3539,-6.3172,-6.3759,-6.42,-6.42,-6.4897,-6.5007,-6.4273,-6.5301,-6.5632,-6.4824,-6.5521,-6.5778,-6.5301,-6.5301,-6.5301,-6.5301,-6.5301,-6.5766,-6.6672,-6.8316,-6.8951,-6.8713,-7.0308,-7.1228,-7.1591,-7.1591,-7.1444,-7.1161,-7.042,-6.9961,-6.9694,-6.896,-6.9136,-6.9874,-7.0573,-7.0704,-7.0517]},{"header":{"parameterUnit":"m.s-1","parameterCategory":1,"la1":30.6,"la2":28.766,"lo1":-90.7593,"lo2":-88.6598,"dy":0.0162,"dx":0.0183,"nx":116,"ny":114,"refTime":"2024-02-25T18:00:00:Z","depth":0,"parameterNumber":3,"parameterNumberName":"V-component_of_WINDS"},"data":[0.0,0.0,0.0,0.0,0.0,0.0,0.0,0.0,0.0,0.0,0.0,0.0,0.0,0.0,0.0,0.0,0.0,0.0,0.0,0.0,0.0,0.0,0.0,0.0,0.0,0.0,0.0,0.0,0.0,0.0,0.0,0.0,0.0,0.0,0.0,0.0,0.0,0.0,0.0,0.0,0.0,0.0,0.0,0.0,0.0,0.0,0.0,0.0,0.0,0.0,0.0,0.0,0.0,0.0,0.0,0.0,0.0,0.0,0.0,0.0,0.0,0.0,0.0,0.0,0.0,0.0,0.0,0.0,0.0,0.0,0.0,0.0,0.0,0.0,0.0,0.0,0.0,0.0,0.0,0.0,0.0,0.0,0.0,0.0,0.0,0.0,0.0,0.0,0.0,0.0,0.0,0.0,0.0,0.0,0.0,0.0,0.0,0.0,0.0,0.0,0.0,0.0,0.0,0.0,0.0,0.0,0.0,0.0,0.0,0.0,0.0,0.0,0.0,0.0,0.0,0.0,0.0,0.0,0.0,0.0,0.0,0.0,0.0,0.0,0.0,0.0,0.0,0.0,0.0,0.0,0.0,0.0,0.0,0.0,0.0,0.0,0.0,0.0,0.0,0.0,0.0,0.0,0.0,0.0,0.0,0.0,0.0,0.0,0.0,0.0,0.0,0.0,0.0,0.0,0.0,0.0,0.0,0.0,0.0,0.0,0.0,0.0,0.0,0.0,0.0,0.0,0.0,0.0,0.0,0.0,0.0,0.0,0.0,0.0,0.0,0.0,0.0,0.0,0.0,0.0,0.0,0.0,0.0,0.0,0.0,0.0,0.0,0.0,0.0,0.0,0.0,0.0,0.0,0.0,0.0,0.0,0.0,0.0,0.0,0.0,0.0,0.0,0.0,0.0,0.0,0.0,0.0,0.0,0.0,0.0,0.0,0.0,0.0,0.0,0.0,0.0,0.0,0.0,0.0,0.0,0.0,0.0,0.0,0.0,0.0,0.0,0.0,0.0,0.0,0.0,0.0,0.0,0.0,0.0,0.0,0.0,0.0,0.0,0.0,0.0,0.0,0.0,0.0,0.0,0.0,0.0,0.0,0.0,0.0,0.0,0.0,0.0,0.0,0.0,0.0,0.0,0.0,0.0,0.0,0.0,0.0,0.0,0.0,0.0,0.0,0.0,0.0,0.0,0.0,0.0,0.0,0.0,0.0,0.0,0.0,0.0,0.0,0.0,0.0,0.0,0.0,0.0,0.0,0.0,0.0,0.0,0.0,0.0,0.0,0.0,0.0,0.0,0.0,0.0,0.0,0.0,0.0,0.0,0.0,0.0,0.0,0.0,0.0,0.0,0.0,0.0,0.0,0.0,0.0,0.0,0.0,0.0,0.0,0.0,0.0,0.0,0.0,0.0,0.0,0.0,0.0,0.0,0.0,0.0,0.0,0.0,0.0,0.0,0.0,0.0,0.0,0.0,0.0,0.0,0.0,0.0,0.0,0.0,0.0,0.0,0.0,0.0,0.0,0.0,0.0,0.0,0.0,0.0,0.0,0.0,0.0,0.0,0.0,0.0,0.0,0.0,0.0,0.0,0.0,0.0,0.0,0.0,0.0,0.0,0.0,0.0,0.0,0.0,0.0,0.0,0.0,0.0,0.0,0.0,0.0,0.0,0.0,0.0,0.0,0.0,0.0,0.0,0.0,0.0,0.0,0.0,0.0,0.0,0.0,0.0,0.0,0.0,0.0,0.0,0.0,0.0,0.0,0.0,0.0,0.0,0.0,0.0,0.0,0.0,0.0,0.0,0.0,0.0,0.0,0.0,0.0,0.0,0.0,0.0,0.0,0.0,0.0,0.0,0.0,0.0,0.0,0.0,0.0,0.0,0.0,0.0,0.0,0.0,0.0,0.0,0.0,0.0,0.0,0.0,0.0,0.0,0.0,0.0,0.0,0.0,0.0,0.0,0.0,0.0,0.0,0.0,0.0,0.0,0.0,0.0,0.0,0.0,0.0,0.0,0.0,0.0,0.0,0.0,0.0,0.0,0.0,0.0,0.0,0.0,0.0,0.0,0.0,0.0,0.0,0.0,0.0,0.0,0.0,0.0,0.0,0.0,0.0,0.0,0.0,0.0,0.0,0.0,0.0,0.0,0.0,0.0,0.0,0.0,0.0,0.0,0.0,0.0,0.0,0.0,0.0,0.0,0.0,0.0,0.0,0.0,0.0,0.0,0.0,0.0,0.0,0.0,0.0,0.0,0.0,0.0,0.0,0.0,0.0,0.0,0.0,0.0,0.0,0.0,0.0,0.0,0.0,0.0,0.0,0.0,0.0,0.0,0.0,0.0,0.0,0.0,0.0,0.0,0.0,0.0,0.0,0.0,0.0,0.0,0.0,0.0,0.0,0.0,0.0,0.0,0.0,0.0,0.0,0.0,0.0,0.0,0.0,0.0,0.0,0.0,0.0,0.0,0.0,0.0,0.0,0.0,0.0,0.0,0.0,0.0,0.0,0.0,0.0,0.0,0.0,0.0,0.0,0.0,0.0,0.0,0.0,0.0,0.0,0.0,0.0,0.0,0.0,0.0,0.0,0.0,0.0,0.0,0.0,0.0,0.0,0.0,0.0,0.0,0.0,0.0,0.0,0.0,0.0,0.0,0.0,0.0,0.0,0.0,0.0,0.0,0.0,0.0,0.0,0.0,0.0,0.0,0.0,0.0,0.0,0.0,0.0,0.0,0.0,0.0,0.0,0.0,0.0,0.0,0.0,0.0,0.0,0.0,0.0,0.0,0.0,0.0,0.0,0.0,0.0,0.0,0.0,0.0,0.0,0.0,0.0,0.0,0.0,0.0,0.0,0.0,0.0,0.0,0.0,0.0,0.0,0.0,0.0,0.0,0.0,0.0,0.0,0.0,0.0,0.0,0.0,0.0,0.0,0.0,0.0,0.0,0.0,0.0,0.0,0.0,0.0,0.0,0.0,0.0,0.0,0.0,0.0,0.0,0.0,0.0,0.0,0.0,0.0,0.0,0.0,0.0,0.0,0.0,0.0,0.0,0.0,0.0,0.0,0.0,0.0,0.0,0.0,0.0,0.0,0.0,0.0,0.0,0.0,0.0,0.0,0.0,0.0,0.0,0.0,0.0,0.0,0.0,0.0,0.0,0.0,0.0,0.0,0.0,0.0,0.0,0.0,0.0,0.0,0.0,0.0,0.0,0.0,0.0,0.0,0.0,0.0,0.0,0.0,0.0,0.0,0.0,0.0,0.0,0.0,0.0,0.0,0.0,0.0,0.0,0.0,0.0,0.0,0.0,0.0,0.0,0.0,0.0,0.0,0.0,0.0,0.0,0.0,0.0,0.0,0.0,0.0,0.0,0.0,0.0,0.0,0.0,0.0,0.0,0.0,0.0,0.0,0.0,0.0,0.0,0.0,0.0,0.0,0.0,0.0,0.0,0.0,0.0,0.0,0.0,0.0,0.0,0.0,0.0,0.0,0.0,0.0,0.0,0.0,0.0,0.0,0.0,0.0,0.0,0.0,0.0,0.0,0.0,0.0,0.0,0.0,0.0,0.0,0.0,0.0,0.0,0.0,0.0,0.0,0.0,0.0,0.0,0.0,0.0,0.0,0.0,0.0,0.0,0.0,0.0,0.0,0.0,0.0,0.0,0.0,0.0,0.0,0.0,0.0,0.0,0.0,0.0,0.0,0.0,0.0,0.0,0.0,0.0,0.0,0.0,0.0,0.0,0.0,0.0,0.0,0.0,0.0,0.0,0.0,0.0,0.0,0.0,0.0,0.0,0.0,0.0,0.0,0.0,0.0,0.0,0.0,0.0,0.0,0.0,0.0,0.0,0.0,0.0,0.0,0.0,0.0,0.0,0.0,0.0,0.0,0.0,0.0,0.0,0.0,0.0,0.0,0.0,0.0,0.0,0.0,0.0,0.0,0.0,0.0,0.0,0.0,0.0,0.0,0.0,0.0,0.0,0.0,0.0,0.0,0.0,0.0,0.0,0.0,0.0,0.0,0.0,0.0,0.0,0.0,0.0,0.0,0.0,0.0,0.0,0.0,0.0,0.0,0.0,0.0,0.0,0.0,0.0,0.0,0.0,0.0,0.0,0.0,0.0,0.0,0.0,0.0,0.0,0.0,0.0,0.0,0.0,0.0,0.0,0.0,0.0,0.0,0.0,0.0,0.0,0.0,0.0,0.0,0.0,0.0,0.0,0.0,0.0,0.0,0.0,0.0,0.0,0.0,0.0,0.0,0.0,0.0,0.0,0.0,0.0,0.0,0.0,0.0,0.0,0.0,0.0,0.0,0.0,0.0,0.0,0.0,0.0,0.0,0.0,0.0,0.0,0.0,0.0,0.0,0.0,0.0,0.0,0.0,0.0,0.0,0.0,0.0,0.0,0.0,0.0,0.0,0.0,0.0,0.0,0.0,0.0,0.0,0.0,0.0,0.0,0.0,0.0,0.0,0.0,0.0,0.0,0.0,0.0,0.0,0.0,0.0,0.0,0.0,0.0,0.0,0.0,0.0,0.0,0.0,0.0,0.0,0.0,0.0,0.0,0.0,0.0,0.0,0.0,0.0,0.0,0.0,0.0,0.0,0.0,0.0,0.0,0.0,0.0,0.0,0.0,0.0,0.0,0.0,0.0,0.0,0.0,0.0,0.0,0.0,0.0,0.0,0.0,0.0,0.0,0.0,0.0,0.0,0.0,0.0,0.0,0.0,0.0,0.0,0.0,0.0,0.0,0.0,0.0,0.0,0.0,0.0,0.0,0.0,0.0,0.0,0.0,0.0,0.0,0.0,0.0,0.0,0.0,0.0,0.0,0.0,0.0,0.0,0.0,0.0,0.0,0.0,0.0,0.0,0.0,0.0,0.0,0.0,0.0,0.0,0.0,0.0,0.0,0.0,0.0,0.0,0.0,0.0,0.0,0.0,0.0,0.0,0.0,0.0,0.0,0.0,0.0,0.0,0.0,0.0,0.0,0.0,0.0,0.0,0.0,0.0,0.0,0.0,0.0,0.0,0.0,0.0,0.0,0.0,0.0,0.0,0.0,0.0,0.0,0.0,0.0,0.0,0.0,0.0,0.0,0.0,0.0,0.0,0.0,0.0,0.0,0.0,0.0,0.0,0.0,0.0,0.0,0.0,0.0,0.0,0.0,0.0,0.0,0.0,0.0,0.0,0.0,0.0,0.0,0.0,0.0,0.0,0.0,0.0,0.0,0.0,0.0,0.0,0.0,0.0,0.0,0.0,0.0,0.0,0.0,0.0,0.0,0.0,0.0,0.0,0.0,0.0,0.0,0.0,0.0,0.0,0.0,0.0,0.0,0.0,0.0,0.0,0.0,0.0,0.0,0.0,0.0,0.0,0.0,0.0,0.0,0.0,0.0,0.0,0.0,0.0,0.0,0.0,0.0,0.0,0.0,0.0,0.0,0.0,0.0,0.0,0.0,0.0,0.0,0.0,0.0,0.0,0.0,0.0,0.0,0.0,0.0,0.0,0.0,0.0,0.0,0.0,0.0,0.0,0.0,0.0,0.0,0.0,0.0,0.0,0.0,0.0,0.0,0.0,0.0,0.0,0.0,0.0,0.0,0.0,0.0,0.0,0.0,0.0,0.0,0.0,0.0,0.0,0.0,0.0,0.0,0.0,0.0,0.0,0.0,0.0,0.0,0.0,0.0,0.0,0.0,0.0,0.0,0.0,0.0,0.0,0.0,0.0,0.0,0.0,0.0,0.0,0.0,0.0,0.0,0.0,0.0,0.0,0.0,0.0,0.0,0.0,0.0,0.0,0.0,0.0,0.0,0.0,0.0,0.0,0.0,0.0,0.0,0.0,0.0,0.0,0.0,0.0,0.0,0.0,0.0,0.0,0.0,0.0,0.0,0.0,0.0,0.0,0.0,0.0,0.0,0.0,0.0,0.0,0.0,0.0,0.0,0.0,0.0,0.0,0.0,0.0,0.0,0.0,0.0,0.0,0.0,0.0,0.0,0.0,0.0,0.0,0.0,0.0,0.0,0.0,0.0,0.0,0.0,0.0,0.0,0.0,0.0,0.0,0.0,0.0,0.0,0.0,0.0,0.0,0.0,0.0,0.0,0.0,0.0,-1.678,0.0,0.0,0.0,0.0,0.0,0.0,0.0,0.0,0.0,0.0,0.0,0.0,0.0,0.0,0.0,0.0,0.0,0.0,0.0,0.0,0.0,0.0,0.0,0.0,0.0,0.0,0.0,-0.932,-0.9519,-1.0265,-0.9924,-0.9822,-1.0062,-1.0296,-1.042,-1.0442,-1.0935,-1.0844,-1.0241,-1.0218,-0.9869,-0.9292,-0.9285,-1.0088,-1.1568,0.0,0.0,0.0,0.0,0.0,0.0,0.0,0.0,0.0,0.0,0.0,0.0,0.0,0.0,0.0,0.0,0.0,0.0,0.0,0.0,0.0,0.0,0.0,0.0,0.0,0.0,0.0,0.0,0.0,0.0,0.0,0.0,0.0,0.0,0.0,0.0,0.0,0.0,0.0,0.0,0.0,0.0,0.0,0.0,0.0,0.0,0.0,0.0,0.0,0.0,0.0,0.0,0.0,0.0,0.0,0.0,0.0,0.0,0.0,0.0,0.0,0.0,0.0,0.0,0.0,0.0,0.0,0.0,0.0,0.0,0.0,-1.7488,0.0,0.0,0.0,0.0,0.0,0.0,0.0,0.0,0.0,0.0,0.0,0.0,0.0,0.0,0.0,0.0,0.0,0.0,0.0,0.0,0.0,0.0,0.0,-0.907,-0.9091,-0.9624,-0.9744,-0.9957,-1.0347,-1.0224,-1.0158,-1.0147,-0.9902,-1.0279,-1.1509,-1.0421,-1.017,-1.0891,-0.9962,-0.9446,-0.9214,-0.9244,-1.0065,0.0,0.0,0.0,0.0,0.0,0.0,0.0,0.0,0.0,0.0,0.0,0.0,0.0,0.0,0.0,0.0,0.0,0.0,0.0,0.0,0.0,0.0,0.0,0.0,0.0,0.0,0.0,0.0,0.0,0.0,0.0,0.0,0.0,0.0,0.0,0.0,0.0,0.0,0.0,0.0,0.0,0.0,0.0,0.0,0.0,0.0,0.0,0.0,0.0,0.0,0.0,0.0,0.0,0.0,0.0,0.0,0.0,0.0,0.0,0.0,0.0,0.0,0.0,0.0,0.0,-1.9239,-1.972,-1.9813,-2.016,-2.0187,-1.992,-1.9185,-1.837,-1.7635,-1.8116,0.0,0.0,0.0,0.0,0.0,0.0,0.0,0.0,0.0,0.0,0.0,0.0,0.0,0.0,0.0,0.0,0.0,0.0,0.0,0.0,0.0,-0.914,-0.9164,-0.9869,-0.9746,-0.9721,-0.9894,-0.9666,-0.9507,-0.9495,-0.9452,-0.9731,-1.0288,-1.0152,-1.0062,-1.0036,-0.9544,-0.9292,-0.935,-0.9391,-0.96,-1.0067,0.0,0.0,0.0,0.0,0.0,0.0,0.0,0.0,0.0,0.0,0.0,0.0,0.0,0.0,0.0,0.0,0.0,0.0,0.0,0.0,0.0,0.0,0.0,0.0,0.0,0.0,0.0,0.0,0.0,0.0,0.0,0.0,0.0,0.0,0.0,0.0,0.0,0.0,0.0,0.0,0.0,0.0,0.0,0.0,-1.6951,-1.6727,0.0,0.0,0.0,0.0,0.0,0.0,0.0,0.0,0.0,0.0,0.0,0.0,0.0,-1.9172,-1.9386,-2.0013,-2.008,-1.9573,-2.0454,-2.0508,-1.9813,-2.0374,-2.0601,-2.0561,-2.0441,0.0,-1.9055,-1.8076,0.0,0.0,0.0,0.0,0.0,0.0,0.0,0.0,0.0,0.0,0.0,0.0,0.0,0.0,0.0,0.0,0.0,0.0,0.0,0.0,0.0,-0.9804,-0.9591,-0.9957,-1.0727,-1.0904,-1.0349,-1.0735,-1.0689,-0.9949,-1.0036,-1.0075,-0.9928,-1.0162,-1.0123,-0.9816,-0.966,-0.9552,-0.9632,-0.9808,-0.9958,-1.0066,-0.9808,-0.9794,-1.0002,-1.0092,0.0,0.0,0.0,0.0,0.0,0.0,0.0,0.0,0.0,0.0,0.0,0.0,0.0,0.0,0.0,0.0,0.0,0.0,0.0,0.0,0.0,0.0,0.0,0.0,0.0,0.0,0.0,0.0,0.0,0.0,0.0,0.0,0.0,0.0,0.0,0.0,0.0,0.0,0.0,-1.7275,-1.7729,-1.6593,-1.7542,-1.7822,0.0,0.0,0.0,0.0,0.0,0.0,0.0,0.0,0.0,-1.9466,-1.972,-1.992,-2.004,-2.0628,-2.0882,-2.0802,-2.167,-2.1991,-2.179,-2.2044,-2.2164,-2.2151,-2.1804,-2.1256,-2.0569,-1.9319,-1.8597,-1.8196,0.0,0.0,0.0,0.0,-1.7542,-1.7662,0.0,0.0,0.0,0.0,0.0,0.0,0.0,0.0,0.0,0.0,0.0,0.0,-1.0899,-1.0372,-1.0135,-1.0441,-1.1478,-1.1726,-1.0777,-1.1308,-1.1264,-1.0364,-1.0469,-1.0421,-1.0036,-1.0233,-1.0225,-1.0129,-0.9958,-0.9917,-0.9998,-1.031,-1.0453,-1.0453,-1.0493,-1.0297,-0.9917,-0.9655,-1.0114,0.0,0.0,0.0,0.0,0.0,0.0,0.0,0.0,0.0,0.0,0.0,0.0,0.0,0.0,0.0,0.0,0.0,0.0,0.0,0.0,0.0,0.0,0.0,0.0,0.0,0.0,0.0,0.0,0.0,0.0,0.0,0.0,0.0,0.0,0.0,0.0,0.0,0.0,-1.7716,-1.809,-1.646,-1.7782,-1.8237,0.0,0.0,0.0,0.0,0.0,0.0,-1.9345,-1.9933,-2.0388,-2.0668,-2.0828,-2.0949,-2.0966,-2.1456,-2.179,-2.2017,-2.2592,-2.2979,-2.3207,-2.3207,-2.3207,-2.318,-2.2645,-2.2124,-2.1641,-2.0388,-1.9345,-1.8422,-1.8275,-1.817,-1.8063,-1.821,-1.8209,-1.8275,0.0,0.0,0.0,0.0,0.0,0.0,0.0,0.0,0.0,0.0,0.0,-0.9807,-1.0946,-1.0642,-1.0726,-1.1564,-1.1404,-1.1102,-1.0742,-1.031,-1.0174,-1.0271,-1.0316,-1.0421,-1.0633,-1.0245,-1.0295,-1.0917,-1.0273,-1.0118,-1.0466,-1.0772,-1.0847,-1.0853,-1.1056,-1.1029,-1.0745,-0.9802,-0.9849,-1.053,0.0,0.0,0.0,0.0,0.0,0.0,0.0,0.0,0.0,0.0,0.0,0.0,0.0,0.0,0.0,0.0,0.0,0.0,0.0,0.0,0.0,0.0,0.0,0.0,0.0,0.0,0.0,0.0,0.0,0.0,0.0,0.0,0.0,0.0,0.0,0.0,0.0,0.0,0.0,-1.642,-1.8317,0.0,0.0,0.0,0.0,-1.8437,-1.9479,-2.0254,-2.0575,-2.1212,-2.1603,-2.1884,-2.2445,-2.2873,-2.3166,-2.3193,-2.322,-2.3233,-2.2979,-2.2941,-2.2886,-2.2886,-2.2886,-2.2873,-2.2552,-2.2245,-2.1871,-2.0695,-2.0013,-1.9653,-1.9105,-1.9038,-1.9252,-1.8971,-1.8821,-1.8838,0.0,0.0,0.0,0.0,0.0,0.0,0.0,0.0,-1.1124,-1.2438,-1.2545,-1.2833,-1.3803,-1.3492,-1.3053,-1.2801,-1.3021,-1.2765,-1.1821,-1.1577,-1.1248,-1.0629,-1.0719,-1.0867,-1.1029,-1.0351,-1.0361,-1.0977,-1.0657,-1.0588,-1.0785,-1.0833,-1.0995,-1.109,-1.1246,-1.1226,-1.1036,-1.0283,-0.9944,-0.9894,-0.9658,-0.9563,0.0,0.0,0.0,0.0,0.0,0.0,0.0,0.0,0.0,0.0,0.0,0.0,0.0,0.0,0.0,0.0,0.0,0.0,0.0,0.0,0.0,0.0,0.0,0.0,0.0,0.0,0.0,0.0,0.0,0.0,0.0,0.0,0.0,0.0,0.0,0.0,0.0,-1.8865,-2.0067,0.0,-1.8958,-1.9225,-1.9519,-1.9599,-2.0521,-2.1296,-2.1777,-2.2365,-2.2913,-2.3394,-2.3434,-2.3594,-2.3888,-2.3888,-2.3794,-2.3607,-2.3688,-2.3634,-2.3434,-2.3247,-2.3166,-2.314,-2.2832,-2.2539,-2.2231,-2.1804,-2.1029,-2.004,-1.9639,-1.9439,-1.943,-1.9452,-1.9492,-1.9466,0.0,0.0,0.0,0.0,0.0,0.0,0.0,0.0,-1.1401,-1.3278,-1.3875,-1.4378,-1.5094,-1.5177,-1.4675,-1.3543,-1.3578,-1.3197,-1.2256,-1.1863,-1.1393,-1.0763,-1.0841,-1.0932,-1.1043,-1.0569,-1.0598,-1.1102,-1.0885,-1.0779,-1.088,-1.0995,-1.107,-1.1241,-1.1321,-1.1335,-1.1212,-1.0819,-1.0337,-0.9788,-0.9293,-0.915,-0.9228,0.0,0.0,0.0,0.0,0.0,0.0,0.0,0.0,0.0,0.0,0.0,0.0,0.0,0.0,0.0,0.0,0.0,0.0,0.0,0.0,0.0,0.0,0.0,0.0,0.0,0.0,0.0,0.0,0.0,0.0,0.0,0.0,0.0,0.0,0.0,-2.0494,-2.0401,-2.1336,-2.1563,-2.0481,-2.0655,-2.0909,-2.1109,-2.1951,-2.2659,-2.314,-2.3554,-2.3941,-2.4342,-2.4168,-2.4115,-2.4209,-2.4102,-2.3915,-2.3621,-2.3714,-2.3647,-2.346,-2.326,-2.3166,-2.3153,-2.2953,-2.2632,-2.2271,-2.2271,-2.1577,-2.0521,-2.0428,-2.0214,-1.9973,-2.0174,-2.0174,-2.0067,0.0,0.0,0.0,0.0,0.0,0.0,0.0,-0.9823,-1.1159,-1.1769,-1.3133,-1.4209,-1.4642,-1.5519,-1.5345,-1.371,-1.2904,-1.2352,-1.1973,-1.1024,-1.0523,-1.0713,-1.0659,-1.0715,-1.0744,-1.0929,-1.1038,-1.1195,-1.1015,-1.088,-1.0887,-1.109,-1.1158,-1.1234,-1.1321,-1.1389,-1.1389,-1.1389,-1.0975,-1.0263,-0.9652,-0.9571,-0.9754,0.0,0.0,0.0,0.0,0.0,0.0,0.0,0.0,0.0,0.0,0.0,0.0,0.0,0.0,0.0,0.0,0.0,0.0,0.0,0.0,0.0,0.0,0.0,0.0,0.0,0.0,0.0,0.0,0.0,0.0,0.0,0.0,0.0,-1.8544,-2.0067,-2.1069,-2.0828,-2.211,-2.2418,-2.0949,-2.2084,-2.2913,-2.2913,-2.3728,-2.4342,-2.4623,-2.4636,-2.4636,-2.4636,-2.4636,-2.4489,-2.4209,-2.3928,-2.3634,-2.3327,-2.302,-2.2941,-2.2928,-2.2928,-2.2928,-2.2928,-2.2914,-2.2525,-2.2004,-2.1991,-2.1643,-2.1149,-2.143,-2.1363,-2.1109,-2.1096,-2.0909,-2.0561,0.0,0.0,0.0,0.0,0.0,0.0,0.0,-0.9971,-1.1716,-1.326,-1.5834,-1.7375,-1.6919,-1.8041,-1.7769,-1.519,-1.3662,-1.2666,-1.2396,-1.0805,-1.0111,-1.0763,-1.039,0.0,-1.1861,-1.1143,-1.107,-1.1582,-1.1118,-1.088,-1.088,-1.0989,-1.1009,-1.1016,-1.1274,-1.1389,-1.1389,-1.1389,-1.1274,-1.1023,-1.0317,-0.989,-0.9639,0.0,0.0,0.0,0.0,0.0,0.0,0.0,0.0,0.0,0.0,0.0,0.0,0.0,0.0,0.0,0.0,0.0,0.0,0.0,0.0,0.0,0.0,0.0,0.0,0.0,0.0,0.0,0.0,0.0,0.0,0.0,-1.8918,-2.0134,-2.0641,-2.1496,-2.2432,-2.3434,-2.3714,-2.3848,-2.3875,-2.4035,-2.4142,-2.4142,-2.4583,-2.4783,-2.4649,-2.4636,-2.4636,-2.4636,-2.4636,-2.4489,-2.4209,-2.4128,-2.3834,-2.3327,-2.3247,-2.3086,-2.2928,-2.2928,-2.2928,-2.2914,-2.2632,-2.2445,-2.2285,-2.2071,-2.1764,-2.148,-2.1283,-2.1176,-2.1082,-2.0869,-2.0481,-2.0013,0.0,0.0,0.0,0.0,0.0,0.0,0.0,-1.0466,-1.2003,-1.3944,-1.6541,-1.8001,-1.7454,-1.8379,-1.7875,-1.4996,-1.3699,-1.268,-1.2037,-1.0662,0.0,0.0,0.0,-1.0828,-1.1625,-1.1264,-1.1249,-1.1538,-1.1241,-1.1131,-1.1138,-1.1199,-1.1157,-1.117,-1.147,-1.1613,-1.1674,-1.189,-1.1743,-1.1457,-1.1289,-1.0895,-1.031,-0.991,-0.9727,-0.9646,-0.9374,-0.9374,-0.9449,-0.9035,0.0,0.0,0.0,0.0,0.0,0.0,0.0,0.0,0.0,0.0,0.0,0.0,0.0,0.0,0.0,0.0,0.0,0.0,0.0,0.0,0.0,0.0,0.0,0.0,-2.012,-2.1563,-2.2525,-2.2953,-2.3621,-2.485,-2.4743,-2.4756,-2.5211,-2.5211,-2.5144,-2.501,-2.517,-2.513,-2.4836,-2.4703,-2.4636,-2.4636,-2.4636,-2.4436,-2.4022,-2.4022,-2.3728,-2.314,-2.314,-2.3033,-2.2928,-2.2928,-2.2928,-2.2846,-2.2552,-2.2352,-2.2218,-2.1924,-2.163,0.0,0.0,0.0,0.0,0.0,-2.0281,-1.9947,0.0,0.0,0.0,0.0,0.0,0.0,0.0,-1.1322,-1.236,-1.4223,-1.6171,-1.7312,-1.699,-1.7321,-1.659,-1.403,-1.3278,-1.239,-1.1084,0.0,0.0,-1.0067,-1.0804,-1.1119,-1.0849,-1.1408,-1.1629,-1.1416,-1.1402,-1.1402,-1.1416,-1.1538,-1.1613,-1.1647,-1.1775,-1.1918,-1.2135,-1.2508,-1.2279,-1.1753,-1.2247,-1.2021,-1.1294,-1.0629,-1.0521,-1.0663,-1.0236,-0.9856,-0.953,-0.9378,0.0,0.0,0.0,0.0,0.0,0.0,0.0,0.0,0.0,0.0,0.0,0.0,0.0,0.0,0.0,0.0,0.0,0.0,0.0,0.0,0.0,0.0,0.0,0.0,-2.1403,-2.2726,-2.4102,-2.4356,-2.4676,-2.5424,-2.5291,-2.5237,-2.5531,-2.5772,-2.5798,-2.5531,-2.5478,-2.5331,-2.505,0.0,0.0,0.0,0.0,-2.4329,-2.3768,-2.3741,-2.3434,-2.2928,-2.2928,-2.2928,-2.2928,-2.2832,-2.2806,-2.2792,-2.2458,-2.2178,-2.1911,-2.1695,-2.1349,-2.1136,-2.1403,-2.1296,-2.0949,-2.0428,-2.0127,-2.0067,0.0,0.0,0.0,0.0,0.0,0.0,0.0,-1.3214,-1.4629,-1.5541,-1.735,-1.8113,-1.6848,-1.6946,-1.6196,-1.3847,-1.2556,-1.1251,0.0,0.0,0.0,0.0,-1.1005,-1.1407,-1.1648,-1.1621,-1.1616,-1.1572,-1.145,-1.1457,-1.1572,-1.1477,-1.1558,-1.1789,-1.1816,-1.1918,-1.2135,-1.221,-1.2324,-1.2497,-1.2229,-1.1766,-1.1192,-1.1043,-1.088,-1.0677,-1.0351,-1.0412,-1.0503,-1.0053,-0.9978,-1.0012,-0.9569,0.0,0.0,0.0,0.0,0.0,0.0,0.0,0.0,0.0,0.0,0.0,0.0,0.0,0.0,0.0,0.0,0.0,0.0,0.0,0.0,-2.0775,-2.2539,-2.4035,-2.481,-2.5317,-2.5585,-2.5518,-2.5464,-2.5545,-2.5838,-2.5705,-2.5571,-2.5518,-2.5291,-2.5037,-2.4743,-2.4663,-2.4636,-2.4636,-2.4409,-2.4115,-2.3768,-2.3527,-2.3233,-2.2928,0.0,0.0,-2.2928,-2.2619,-2.2498,-2.2472,-2.1951,-2.1762,-2.1681,-2.1309,-2.1162,-2.1122,-2.1176,-2.0869,-2.0388,-2.0207,-1.9933,-1.9519,0.0,0.0,0.0,0.0,0.0,0.0,0.0,-1.3874,-1.4931,-1.5825,-1.661,-1.689,-1.6202,-1.55,-1.4475,-1.2955,-1.1611,0.0,0.0,-0.9987,0.0,0.0,0.0,0.0,0.0,0.0,0.0,0.0,0.0,0.0,0.0,-1.1843,-1.1918,-1.2067,-1.2135,-1.2285,-1.2588,-1.2816,-1.2993,-1.3079,-1.3242,-1.2806,-1.1997,-1.1784,-1.143,-1.1151,-1.1002,-1.09,-1.0712,-1.0399,-1.027,-1.0209,-0.9836,-0.9462,-0.9103,0.0,0.0,0.0,0.0,0.0,0.0,0.0,0.0,0.0,0.0,0.0,0.0,0.0,0.0,-1.7996,-1.8584,0.0,-2.1069,-2.2245,-2.3434,-2.4409,-2.4997,-2.5464,-2.5785,-2.5932,-2.5825,-2.5798,-2.5945,-2.5825,-2.5611,-2.5317,-2.5157,-2.4957,-2.4649,-2.4636,-2.4636,-2.4636,-2.4356,-2.4062,-2.3768,-2.3474,-2.3166,-2.2928,-2.2928,-2.2928,-2.2859,-2.2712,-2.2645,-2.2605,-2.2017,-2.1764,-2.1737,-2.1296,-2.1109,-2.1109,-2.1109,-2.0935,-2.0628,-2.0286,-2.0054,-1.976,0.0,0.0,0.0,0.0,0.0,0.0,0.0,-1.3908,-1.4544,-1.5328,-1.5113,-1.492,-1.5119,-1.3753,-1.258,-1.1808,-1.0813,0.0,0.0,0.0,0.0,0.0,0.0,0.0,0.0,0.0,0.0,0.0,0.0,0.0,0.0,0.0,0.0,0.0,-1.242,-1.2706,-1.312,-1.3428,-1.3586,-1.3702,-1.4076,-1.3815,-1.3141,-1.2456,-1.2012,-1.1694,-1.1606,-1.1185,-1.0663,-1.0602,-1.0365,-1.0017,-1.0019,-0.9876,-0.9659,-0.9232,-0.9178,0.0,0.0,0.0,0.0,0.0,0.0,0.0,0.0,0.0,-1.7221,-1.7568,-1.833,-1.9265,-2.016,-2.1189,-2.2285,-2.3487,-2.4075,-2.4543,-2.501,-2.5331,-2.5692,-2.6159,-2.6066,-2.6037,-2.6037,-2.5852,-2.5585,-2.5117,-2.5024,-2.489,-2.4649,-2.4636,-2.4609,-2.4556,-2.4275,-2.3981,-2.3688,-2.3394,-2.3113,-2.2928,-2.2928,-2.2928,-2.2928,-2.2806,-2.2739,-2.2659,-2.2071,-2.1817,-2.1777,-2.1309,-2.1109,-2.1109,-2.1109,-2.1109,-2.1042,-2.0454,-2.0167,-2.0147,0.0,0.0,0.0,0.0,0.0,0.0,0.0,0.0,-1.4276,-1.3912,-1.3487,-1.3241,-1.3228,-1.2462,-1.1639,-1.088,0.0,0.0,0.0,0.0,0.0,0.0,0.0,0.0,0.0,0.0,0.0,0.0,0.0,0.0,0.0,0.0,0.0,0.0,0.0,-1.2616,-1.312,-1.312,-1.3575,-1.426,-1.3891,-1.396,-1.416,-1.3148,-1.2524,-1.1959,-1.1558,-1.1029,-1.0555,-1.0812,-1.0609,-1.0297,-1.0541,-1.0432,-1.0141,-0.9815,0.0,-0.8737,-0.8499,-0.8429,-0.906,-1.1693,-1.2751,-1.3972,0.0,0.0,-1.8758,-1.9052,-2.0027,-2.0775,-2.0655,-2.2004,-2.318,-2.3354,-2.4275,-2.4997,-2.5064,-2.5331,-2.5545,-2.5598,-2.5812,-2.6037,-2.6037,-2.5491,-2.5144,-2.509,-2.4836,-2.4676,-2.4636,-2.4636,-2.4516,-2.4262,-2.3968,-2.3674,-2.338,-2.3073,-2.2899,-2.2928,-2.2928,-2.2928,-2.2928,-2.2592,-2.2325,-2.2058,-2.1456,-2.1203,-2.1203,-2.1136,-2.1109,-2.1109,-2.1109,-2.1109,-2.1042,-2.0454,-2.0167,-2.0147,0.0,0.0,0.0,0.0,0.0,0.0,0.0,0.0,0.0,-1.2909,-1.2379,-1.2007,-1.2084,-1.1345,-1.0714,0.0,0.0,0.0,0.0,0.0,0.0,0.0,0.0,0.0,0.0,0.0,0.0,0.0,0.0,0.0,0.0,0.0,0.0,0.0,0.0,0.0,0.0,-1.4185,-1.4499,-1.5049,-1.4704,-1.4586,-1.4377,-1.3379,-1.2554,-1.1874,-1.1468,-1.0873,0.0,0.0,-1.0229,-1.0168,-1.029,-1.0243,-1.0066,-0.968,-0.934,0.0,-0.8918,-0.9131,-1.0033,0.0,-1.3954,-1.5444,-1.8013,-1.9301,-1.9973,-2.0107,-2.1056,-2.1937,-2.2178,-2.2966,-2.3754,0.0,-2.4609,-2.489,-2.505,-2.5037,-2.4877,-2.4543,-2.4609,-2.489,-2.5398,-2.5224,-2.501,-2.4836,-2.4703,-2.4636,-2.4636,-2.4636,-2.4502,-2.4209,-2.3928,-2.3714,-2.3581,-2.3287,-2.314,-2.314,-2.314,-2.3033,-2.2914,-2.2552,-2.2164,-2.1724,-2.147,-2.1269,-2.1109,-2.1109,-2.1109,-2.1109,-2.1109,-2.1109,-2.1056,-2.0641,-2.0494,-2.0414,0.0,0.0,0.0,0.0,0.0,0.0,0.0,0.0,0.0,0.0,-1.1171,-1.0965,-1.1122,-1.0661,0.0,0.0,0.0,0.0,0.0,0.0,0.0,0.0,0.0,0.0,0.0,0.0,0.0,0.0,0.0,0.0,0.0,0.0,0.0,0.0,0.0,0.0,0.0,0.0,-1.5897,-1.635,-1.6494,-1.5793,-1.4546,-1.3864,-1.2873,-1.1786,-1.1199,-1.0521,0.0,0.0,-0.9694,-0.9707,-0.9829,-0.9869,-0.9795,-0.949,-0.9266,-0.9118,-0.8946,-0.9648,0.0,-1.3133,-1.5011,-1.6805,-1.8946,-2.0247,-2.1082,-2.1243,-2.1951,-2.2645,-2.3006,-2.3394,-2.3861,-2.4489,-2.4556,-2.4596,-2.481,-2.4583,-2.4182,-2.3594,-2.3447,-2.3647,-2.4289,-2.4502,-2.4569,-2.4516,-2.4516,-2.4556,-2.4636,-2.4556,-2.4422,-2.4209,-2.3928,-2.3768,-2.3768,-2.3554,-2.3447,-2.3447,-2.3367,-2.3207,-2.2979,-2.2512,-2.2031,-2.1614,-2.1534,-2.1309,-2.1109,-2.1109,-2.1109,-2.1109,-2.1109,-2.1109,-2.1082,-2.0869,-2.0802,-2.0695,0.0,0.0,0.0,0.0,0.0,0.0,0.0,0.0,0.0,0.0,0.0,0.0,0.0,0.0,0.0,0.0,0.0,0.0,0.0,0.0,0.0,0.0,0.0,0.0,0.0,0.0,0.0,0.0,0.0,0.0,0.0,0.0,0.0,0.0,0.0,0.0,0.0,0.0,0.0,0.0,-1.9652,-1.7922,-1.4702,-1.4763,-1.3553,-1.1776,-1.083,0.0,0.0,0.0,-0.9327,-0.8993,-0.9483,-0.9625,0.0,-0.9429,-0.8967,-0.8506,-0.8545,0.0,-1.128,-1.3311,-1.5529,-1.7828,-2.014,-2.1316,-2.2111,-2.2686,-2.2887,-2.2766,-2.2498,-2.2939,-2.3354,-2.338,-2.3848,-2.4222,-2.4235,-2.3981,-2.3567,-2.3035,-2.2632,-2.2472,0.0,-2.3033,-2.3607,-2.4168,-2.4222,-2.4342,-2.4623,-2.4369,-2.4209,-2.4209,-2.3928,-2.3768,-2.3768,-2.3768,-2.3754,-2.3754,-2.346,-2.3327,-2.3287,-2.2405,-2.183,-2.1601,-2.1256,-2.1122,-2.1109,-2.1109,-2.1109,-2.1109,-2.1109,-2.1109,-2.1109,-2.1096,-2.1096,-2.0975,0.0,0.0,0.0,0.0,0.0,0.0,0.0,0.0,0.0,0.0,0.0,0.0,0.0,0.0,0.0,0.0,0.0,0.0,0.0,0.0,0.0,0.0,0.0,0.0,0.0,0.0,0.0,0.0,0.0,0.0,0.0,0.0,0.0,0.0,0.0,0.0,0.0,0.0,0.0,0.0,0.0,0.0,-1.5662,-1.3722,-1.2857,-1.237,0.0,0.0,0.0,0.0,0.0,0.0,-0.8811,-0.8859,-0.8811,-0.8567,-0.856,-0.8916,-1.02,0.0,-1.4065,-1.6625,-1.8843,-2.0746,-2.1885,-2.2671,-2.306,-2.2645,-2.2418,-2.2191,-2.1897,-2.1844,-2.2044,-2.2632,-2.3233,-2.3688,-2.3888,-2.3995,-2.3541,-2.2217,-2.2245,0.0,0.0,0.0,0.0,-2.3861,-2.3915,-2.4128,-2.4609,-2.4543,-2.4396,-2.4209,-2.3928,-2.3861,-2.4062,-2.3875,-2.3768,-2.3768,-2.326,-2.2819,-2.2432,-2.2124,-2.1724,-2.1256,-2.1149,-2.1109,-2.1109,-2.1109,-2.1109,-2.1109,-2.1109,-2.1109,-2.1109,-2.1109,-2.0989,-2.0748,0.0,0.0,0.0,0.0,0.0,0.0,0.0,0.0,0.0,0.0,0.0,0.0,0.0,0.0,0.0,0.0,0.0,0.0,0.0,0.0,0.0,0.0,0.0,0.0,0.0,0.0,0.0,0.0,0.0,0.0,0.0,0.0,0.0,0.0,0.0,0.0,0.0,0.0,0.0,0.0,0.0,0.0,-1.625,-1.3879,-1.2803,0.0,0.0,0.0,0.0,0.0,0.0,0.0,-0.8323,-0.8323,-0.8309,-0.8221,-0.8479,-0.9249,-1.1538,-1.3608,-1.5836,-1.8788,-2.0948,-2.2477,-2.3057,-2.3313,-2.3193,-2.2298,-2.171,-2.1203,-2.0708,-2.0374,-2.0535,-2.1617,-2.2124,-2.2672,-2.35,-2.35,-2.302,-2.1991,-2.1911,-2.1697,0.0,0.0,0.0,-2.3367,-2.3647,-2.3981,-2.4449,-2.4476,-2.4449,-2.4369,-2.4075,-2.4062,-2.4356,-2.4075,-2.3821,-2.3607,-2.322,-2.2659,-2.1991,-2.1991,-2.167,-2.1109,-2.1109,-2.1109,-2.1109,-2.1109,-2.1109,-2.1109,-2.1109,-2.1109,-2.1109,-2.1109,-2.0989,-2.0775,0.0,0.0,0.0,0.0,0.0,0.0,0.0,0.0,0.0,0.0,0.0,0.0,0.0,0.0,0.0,0.0,0.0,0.0,0.0,0.0,0.0,0.0,0.0,0.0,0.0,0.0,0.0,0.0,0.0,0.0,0.0,0.0,0.0,0.0,0.0,0.0,0.0,0.0,0.0,0.0,0.0,0.0,-1.6317,-1.4965,0.0,0.0,0.0,0.0,0.0,0.0,0.0,0.0,0.0,-0.8002,-0.8069,-0.8425,-0.875,-0.961,-1.2483,-1.456,-1.6699,-1.9875,-2.1735,-2.2999,-2.3617,-2.3247,-2.2619,-2.1735,-2.0762,-1.9807,0.0,0.0,-1.8945,-2.0401,-2.0695,-2.1349,-2.3086,-2.2632,-2.2205,0.0,0.0,0.0,0.0,0.0,0.0,-2.2806,0.0,-2.3888,-2.4209,-2.4235,-2.4369,-2.4549,-2.4356,-2.4342,-2.4636,-2.4329,-2.3901,-2.3354,-2.3313,-2.2846,-2.1991,-2.1991,-2.167,-2.1109,-2.1109,-2.1109,-2.1109,-2.1109,-2.1109,-2.1109,-2.1109,-2.1109,-2.1109,-2.1109,-2.1096,-2.1002,0.0,0.0,0.0,0.0,0.0,0.0,0.0,0.0,0.0,0.0,0.0,0.0,0.0,0.0,0.0,0.0,0.0,0.0,0.0,0.0,0.0,0.0,0.0,0.0,0.0,0.0,0.0,0.0,0.0,0.0,0.0,0.0,0.0,0.0,0.0,0.0,0.0,0.0,0.0,0.0,0.0,0.0,-1.5729,0.0,0.0,0.0,0.0,0.0,0.0,0.0,0.0,0.0,0.0,-0.8194,-0.8452,-0.8914,-0.9435,-1.0729,-1.4428,-1.6448,-1.8283,-2.1558,-2.3112,-2.366,-2.309,-2.2428,-2.1695,-2.0748,-1.9461,-1.8408,0.0,0.0,0.0,-1.9826,-2.0935,0.0,-2.3166,-2.3688,0.0,-2.2846,0.0,-2.2859,-2.2258,-2.2539,0.0,0.0,-2.3354,-2.3754,-2.4489,-2.473,-2.4796,-2.4636,-2.4356,-2.4342,-2.4636,-2.4142,-2.3808,-2.3647,-2.3193,-2.2632,-2.1991,-2.1991,-2.167,-2.1109,-2.1109,-2.1109,-2.1109,-2.1109,-2.1109,-2.1109,-2.1109,-2.1109,-2.1109,-2.1109,-2.0975,-2.0735,0.0,0.0,0.0,0.0,0.0,0.0,0.0,0.0,0.0,0.0,0.0,0.0,0.0,0.0,0.0,0.0,0.0,0.0,0.0,0.0,0.0,0.0,0.0,0.0,0.0,0.0,0.0,0.0,0.0,0.0,0.0,0.0,0.0,0.0,0.0,0.0,0.0,0.0,0.0,0.0,0.0,0.0,0.0,0.0,0.0,0.0,0.0,0.0,0.0,0.0,0.0,-0.8269,-0.8465,-0.8737,-0.9076,-0.9591,0.0,-1.2382,-1.5749,-1.7936,-1.9881,-2.2534,-2.3614,-2.3652,-2.225,-2.1595,-2.0775,-1.9198,-1.8207,0.0,-1.6914,-1.7061,0.0,0.0,0.0,0.0,-2.2913,-2.3434,-2.3607,0.0,-2.3527,0.0,-2.3046,-2.3207,-2.3487,0.0,-2.3901,-2.4062,-2.4422,-2.485,-2.4943,-2.4649,-2.4356,-2.4222,-2.4262,-2.3928,-2.3701,-2.3567,-2.3086,-2.2619,-2.2178,-2.2178,-2.1857,-2.1309,0.0,-2.1229,-2.1109,-2.1109,-2.1109,-2.1109,-2.1109,-2.1109,-2.1109,-2.1109,-2.1002,-2.0842,0.0,0.0,0.0,0.0,0.0,0.0,0.0,0.0,0.0,0.0,0.0,0.0,0.0,0.0,0.0,0.0,0.0,0.0,0.0,0.0,0.0,0.0,0.0,0.0,0.0,0.0,0.0,0.0,0.0,0.0,0.0,0.0,0.0,0.0,0.0,0.0,0.0,0.0,0.0,0.0,0.0,0.0,0.0,0.0,0.0,0.0,0.0,0.0,0.0,0.0,-0.891,-0.8934,-0.9237,-0.9799,-1.0443,-1.0791,-1.2347,-1.449,-1.7033,-1.926,-2.1254,-2.2905,-2.3489,-2.3113,-2.1232,-2.0602,-1.9721,-1.7607,0.0,-1.679,-1.5965,-1.6099,-1.682,-1.8303,0.0,-2.0281,-2.2605,-2.2739,-2.3006,-2.4128,-2.3808,-2.3607,-2.3861,-2.3688,-2.3861,-2.4583,-2.4629,-2.4623,-2.4329,-2.481,-2.4943,-2.4649,-2.4396,-2.4142,-2.3888,-2.3808,-2.3647,-2.338,-2.3033,-2.2712,-2.2418,-2.2418,-2.2098,-2.1614,-2.1614,-2.139,-2.1109,-2.1109,-2.1109,-2.1109,-2.1109,-2.1109,-2.1109,-2.1109,-2.1109,-2.1096,0.0,0.0,0.0,0.0,0.0,0.0,0.0,0.0,0.0,0.0,-0.8298,0.0,0.0,0.0,0.0,0.0,0.0,0.0,0.0,0.0,0.0,0.0,0.0,0.0,0.0,0.0,0.0,0.0,0.0,0.0,0.0,0.0,0.0,0.0,0.0,0.0,0.0,0.0,0.0,0.0,0.0,0.0,0.0,0.0,0.0,0.0,0.0,0.0,0.0,0.0,-0.9719,-1.0625,-1.0135,-1.1902,-1.407,-1.3303,-1.464,-1.6981,-1.9511,-2.0639,-2.1425,-2.2731,-2.2747,-2.2038,-2.0278,-1.9111,0.0,0.0,-1.6407,-1.6005,-1.5811,-1.6273,-1.7114,-1.8611,0.0,0.0,-2.2953,-2.342,-2.3794,0.0,-2.4476,-2.4436,-2.4476,-2.4663,0.0,0.0,-2.509,-2.5237,-2.4943,-2.5024,-2.4943,-2.4649,-2.4583,-2.4529,-2.4489,-2.4008,-2.3741,-2.3688,-2.3126,-2.2712,-2.2418,-2.2418,-2.2098,-2.1614,-2.1614,0.0,-2.1109,-2.1109,-2.1109,-2.1109,-2.1109,-2.1109,-2.1109,-2.1109,-2.1109,-2.1069,0.0,0.0,0.0,0.0,0.0,0.0,0.0,0.0,0.0,0.0,-0.9208,-0.8885,0.0,0.0,0.0,0.0,0.0,0.0,0.0,0.0,0.0,0.0,0.0,0.0,0.0,0.0,0.0,0.0,0.0,0.0,0.0,0.0,0.0,0.0,0.0,0.0,0.0,0.0,0.0,0.0,0.0,0.0,0.0,0.0,0.0,0.0,0.0,0.0,0.0,0.0,-1.1583,-1.3259,-1.2178,-1.3564,-1.5567,-1.5551,-1.688,-1.8759,-2.0389,-2.1608,-2.2555,-2.2893,-2.2355,-2.1234,-1.8988,0.0,0.0,0.0,-1.566,-1.5605,-1.5605,0.0,0.0,0.0,0.0,0.0,0.0,0.0,0.0,-2.4062,-2.4449,-2.4636,0.0,-2.477,-2.485,-2.4863,-2.4983,-2.4997,-2.4863,-2.485,-2.4716,-2.4422,-2.4556,-2.4569,-2.4409,-2.3981,-2.3848,-2.3981,-2.322,-2.2873,-2.2886,-2.2726,-2.2338,-2.1842,-2.1842,-2.1523,-2.1109,-2.1109,-2.1109,-2.1109,-2.1109,-2.1109,-2.1109,-2.1109,-2.1109,-2.1082,0.0,0.0,0.0,0.0,0.0,0.0,0.0,-0.9035,-0.9164,-1.0154,-1.0112,-0.9802,-0.9188,-0.8615,-0.8197,0.0,0.0,0.0,0.0,0.0,0.0,0.0,0.0,0.0,0.0,0.0,0.0,0.0,0.0,0.0,0.0,0.0,0.0,0.0,0.0,0.0,0.0,0.0,0.0,0.0,0.0,0.0,0.0,0.0,0.0,0.0,0.0,0.0,0.0,0.0,-1.3146,-1.5355,-1.4394,-1.5365,-1.6896,-1.7278,-1.8799,-2.0437,-2.1208,-2.2584,-2.3664,-2.3005,-2.2024,-2.0479,-1.7757,-1.6758,0.0,0.0,-1.4838,-1.5297,-1.5297,0.0,0.0,0.0,0.0,0.0,0.0,0.0,0.0,0.0,0.0,0.0,-2.4649,-2.4743,0.0,-2.497,-2.477,-2.4636,-2.4636,-2.4636,-2.4529,-2.4302,-2.4516,-2.4489,-2.4209,-2.3915,-2.3848,-2.4008,-2.3233,-2.2993,-2.322,-2.2979,-2.2539,-2.1991,-2.1991,-2.1657,-2.1109,-2.1109,-2.1109,-2.1109,-2.1109,-2.1109,-2.1109,-2.1109,-2.1109,-2.1109,0.0,0.0,0.0,0.0,0.0,0.0,0.0,-0.9193,-0.9637,-1.0887,-1.0595,-1.0181,-0.9909,-0.9537,-0.8927,0.0,0.0,0.0,0.0,0.0,0.0,0.0,0.0,0.0,0.0,0.0,0.0,0.0,0.0,0.0,0.0,0.0,0.0,0.0,0.0,0.0,0.0,0.0,0.0,0.0,0.0,0.0,0.0,0.0,0.0,0.0,0.0,0.0,0.0,0.0,0.0,-1.558,-1.592,-1.7836,-1.959,-1.8206,0.0,0.0,-2.3092,-2.3896,-2.4238,-2.2892,-2.1525,-1.9723,-1.6571,0.0,0.0,-1.332,-1.4076,-1.5048,-1.5048,0.0,0.0,0.0,0.0,0.0,0.0,0.0,0.0,0.0,0.0,0.0,0.0,-2.5117,0.0,-2.4716,-2.4649,-2.4636,-2.4636,-2.4636,-2.4623,-2.4596,-2.4623,-2.4489,-2.4209,-2.3915,-2.3647,-2.3407,-2.3033,-2.2873,-2.2968,-2.2873,-2.2539,-2.1991,-2.1991,-2.1657,0.0,-2.1109,-2.1109,-2.1109,-2.1109,-2.1109,-2.1109,-2.1109,-2.1109,-2.1109,0.0,0.0,0.0,0.0,0.0,0.0,0.0,-0.9178,-0.9469,-1.109,-1.1016,-1.0717,-1.048,-1.0209,-0.951,0.0,0.0,0.0,0.0,0.0,0.0,0.0,0.0,0.0,0.0,0.0,0.0,0.0,0.0,0.0,0.0,0.0,0.0,0.0,0.0,0.0,0.0,0.0,0.0,0.0,0.0,0.0,0.0,0.0,0.0,0.0,0.0,0.0,0.0,0.0,0.0,0.0,-1.5856,-1.7017,0.0,0.0,-2.0873,-2.2422,-2.3699,-2.4342,-2.4418,-2.3385,-2.1584,-1.932,-1.6518,0.0,0.0,-1.3226,-1.3912,-1.4696,-1.4696,0.0,0.0,0.0,0.0,0.0,0.0,0.0,0.0,0.0,0.0,0.0,0.0,0.0,-2.5344,-2.493,-2.473,-2.4556,-2.4382,-2.4543,-2.4636,-2.4636,-2.4636,-2.4489,-2.4209,-2.3915,-2.3714,-2.3594,-2.31,-2.2953,-2.3126,-2.2766,-2.2365,-2.1977,-2.1804,-2.1496,0.0,-2.1109,-2.1109,-2.1109,-2.1109,-2.1109,-2.1109,-2.1109,-2.1109,-2.1109,0.0,0.0,0.0,0.0,0.0,0.0,-0.9462,-0.9252,-0.951,-1.0995,-1.1097,-1.0968,-1.0806,-1.0371,-0.9646,-0.8533,0.0,0.0,0.0,0.0,0.0,0.0,0.0,0.0,0.0,0.0,-0.8533,-0.8642,-0.8893,-0.932,0.0,0.0,0.0,0.0,0.0,0.0,0.0,0.0,0.0,0.0,0.0,0.0,0.0,0.0,0.0,0.0,0.0,0.0,0.0,0.0,0.0,0.0,0.0,0.0,0.0,0.0,-2.0606,-2.1726,-2.3248,-2.4104,-2.4226,-2.2974,-2.0959,-1.8642,0.0,0.0,0.0,-1.3282,-1.3869,-1.4522,-1.4522,0.0,0.0,0.0,0.0,0.0,0.0,0.0,0.0,0.0,0.0,-2.3354,0.0,-2.5064,-2.5304,-2.509,-2.4796,-2.4516,-2.4222,-2.4396,-2.4476,-2.4382,-2.4382,-2.4235,-2.3955,-2.3741,-2.3594,-2.35,-2.306,-2.2979,-2.3166,-2.2659,-2.2258,-2.1977,-2.1748,-2.139,0.0,-2.1109,-2.1109,-2.1109,-2.1109,-2.1109,-2.1109,-2.1109,-2.1109,-2.1109,0.0,0.0,0.0,0.0,0.0,0.0,0.0,-0.9408,-0.9869,-1.0629,-1.0724,-1.0778,-1.086,-0.9883,-0.9275,-0.9354,0.0,0.0,0.0,0.0,0.0,0.0,0.0,0.0,0.0,0.0,-0.8479,-0.8486,-0.911,-0.9541,-0.9816,-1.0147,-1.0421,0.0,0.0,0.0,0.0,0.0,0.0,0.0,0.0,0.0,0.0,0.0,0.0,0.0,0.0,0.0,0.0,0.0,0.0,0.0,0.0,0.0,0.0,0.0,-1.8848,-2.0771,-2.1628,-2.2977,-2.3635,-2.1161,-1.9378,-1.7563,0.0,0.0,0.0,-1.3225,-1.3913,-1.4522,-1.4522,0.0,0.0,0.0,0.0,0.0,0.0,0.0,0.0,0.0,0.0,0.0,-2.326,-2.4396,-2.5077,-2.5077,-2.4796,0.0,-2.4222,-2.4209,-2.4075,-2.3794,-2.3781,-2.3634,-2.334,-2.334,-2.318,-2.2941,-2.2928,-2.2928,-2.2859,-2.2552,-2.2258,-2.1977,-2.1748,-2.139,0.0,-2.1109,-2.1109,-2.1109,-2.1109,-2.1109,-2.1109,-2.1109,-2.1109,-2.1109,0.0,0.0,0.0,0.0,0.0,0.0,0.0,-0.8608,-0.8845,-0.9693,-0.9713,-0.9822,-1.022,-0.9625,-0.9228,-0.9275,0.0,0.0,0.0,0.0,0.0,0.0,0.0,0.0,0.0,0.0,-0.8682,-0.9096,-0.9532,-0.9925,-1.0258,-1.0375,-1.0603,-1.0922,-1.1004,0.0,0.0,0.0,0.0,0.0,0.0,0.0,0.0,0.0,0.0,0.0,0.0,0.0,0.0,0.0,0.0,0.0,0.0,0.0,0.0,-1.5853,-1.7477,-1.9332,-2.0183,-2.0553,-2.0356,-1.8994,-1.7146,-1.5411,-1.4321,0.0,0.0,-1.354,-1.3932,-1.4282,0.0,0.0,0.0,0.0,0.0,0.0,0.0,0.0,0.0,0.0,0.0,0.0,0.0,0.0,-2.4997,-2.4796,-2.4502,-2.4128,-2.3634,-2.3607,-2.3661,-2.3768,-2.3768,-2.3621,-2.3327,-2.3327,-2.3166,-2.2928,-2.2928,-2.2928,-2.2914,-2.2352,-2.2071,-2.1951,-2.147,-2.1203,-2.1109,-2.1109,-2.1109,-2.1109,-2.1109,-2.1109,-2.1109,-2.1109,-2.1109,-2.1109,0.0,0.0,0.0,0.0,0.0,0.0,0.0,-0.8255,-0.8404,-0.8967,-0.9016,-0.9171,-0.9822,-0.9225,-0.8872,-0.9268,0.0,0.0,0.0,0.0,0.0,0.0,0.0,0.0,0.0,-0.8513,-0.9003,-0.9787,-1.0021,-1.0463,-1.1103,-1.114,-1.1099,-1.1062,-1.0907,0.0,0.0,0.0,0.0,0.0,0.0,0.0,-1.5381,0.0,0.0,0.0,0.0,0.0,0.0,0.0,0.0,0.0,0.0,0.0,0.0,0.0,-1.6196,-1.745,0.0,-1.8998,-1.8671,-1.7362,-1.575,0.0,0.0,0.0,0.0,0.0,0.0,0.0,0.0,0.0,0.0,0.0,0.0,0.0,0.0,0.0,0.0,0.0,0.0,0.0,0.0,-2.517,-2.4957,-2.4663,-2.4369,-2.3955,-2.3354,-2.3327,-2.3354,-2.342,-2.3434,-2.334,-2.3153,-2.3153,-2.306,-2.2928,-2.2928,-2.2806,-2.2672,-2.2205,-2.1924,-2.179,-2.1323,-2.1109,0.0,-2.1109,-2.1109,-2.1109,-2.1109,-2.1109,-2.1109,-2.1109,-2.1109,-2.1109,0.0,0.0,0.0,0.0,0.0,0.0,0.0,0.0,0.0,0.0,-0.8452,-0.8764,-0.9605,-0.8649,-0.8377,0.0,0.0,0.0,0.0,0.0,0.0,0.0,0.0,0.0,-0.8354,-0.8581,-0.9314,-1.049,-1.0555,-1.1114,-1.2151,-1.2192,-1.1925,-1.1305,-1.1393,-1.1208,-1.0962,-1.3166,-1.462,-1.55,-1.6736,-1.6511,0.0,0.0,0.0,0.0,0.0,0.0,0.0,0.0,0.0,0.0,0.0,0.0,0.0,0.0,0.0,0.0,0.0,-1.7834,-1.7948,-1.5918,-1.4755,-1.3942,-1.3192,0.0,0.0,0.0,0.0,0.0,0.0,0.0,0.0,0.0,0.0,0.0,0.0,0.0,0.0,0.0,-2.3166,0.0,-2.4182,-2.4716,-2.4917,-2.4596,-2.4329,-2.3915,-2.3327,-2.33,-2.3166,-2.2941,-2.2928,-2.2928,-2.2928,-2.2928,-2.2928,-2.2928,-2.2928,-2.2712,-2.2405,-2.2124,-2.183,0.0,-2.1243,-2.1109,-2.1109,-2.1109,-2.1109,-2.1109,-2.1109,-2.1109,-2.1109,-2.1109,-2.1109,-2.1109,0.0,0.0,0.0,0.0,0.0,0.0,0.0,0.0,0.0,0.0,0.0,-0.817,-0.8379,-0.8157,0.0,0.0,0.0,0.0,0.0,0.0,0.0,0.0,0.0,0.0,-0.8601,-0.8791,-0.9362,-1.0429,-1.1021,-1.1713,-1.2504,-1.2616,-1.2421,-1.2044,-1.1445,-1.1496,-1.2091,-1.3491,-1.462,-1.55,-1.6948,-1.7082,0.0,0.0,0.0,0.0,-1.3902,-1.3622,0.0,0.0,0.0,0.0,0.0,0.0,0.0,0.0,-1.4596,-1.4139,-1.445,0.0,-1.3463,-1.2752,-1.157,-1.0877,0.0,0.0,0.0,0.0,0.0,0.0,0.0,0.0,0.0,0.0,0.0,0.0,0.0,0.0,0.0,-2.318,-2.4382,-2.4863,-2.4262,-2.4529,-2.4529,-2.4008,-2.3915,-2.3607,-2.3006,-2.2966,-2.2939,-2.2928,-2.2928,-2.2928,-2.2928,-2.2928,-2.2928,-2.2928,-2.2928,-2.2712,-2.2405,-2.2124,-2.183,-2.1601,-2.1243,-2.1109,-2.1109,-2.1109,-2.1109,-2.1109,-2.1109,-2.1109,-2.1109,-2.1109,-2.1109,-2.1109,0.0,0.0,0.0,0.0,0.0,0.0,0.0,0.0,0.0,0.0,0.0,0.0,0.0,0.0,0.0,0.0,0.0,0.0,0.0,0.0,0.0,0.0,0.0,0.0,-0.871,-0.8927,-0.9685,-1.101,-1.1285,-1.2022,-1.3189,-1.3075,-1.2736,-1.228,-1.1431,-1.1911,-1.3372,-1.3856,-1.4778,-1.5903,-1.686,0.0,0.0,0.0,0.0,0.0,-1.3909,-1.3734,0.0,-1.4643,-1.4751,-1.4569,0.0,0.0,0.0,0.0,-1.4412,-1.3659,-1.3713,-1.2825,-1.1832,-1.1385,-1.0679,-1.0425,-1.1812,0.0,0.0,0.0,0.0,0.0,0.0,0.0,0.0,0.0,-1.6697,0.0,0.0,0.0,0.0,-2.3808,-2.4529,-2.4836,0.0,-2.4502,-2.4249,-2.3808,-2.3647,-2.3367,-2.2886,-2.2928,-2.2928,-2.2928,-2.2928,-2.2928,-2.2928,-2.2928,-2.2928,-2.2928,-2.2726,-2.2498,-2.2205,-2.1924,-2.163,-2.1336,-2.1176,-2.1109,-2.1109,-2.1109,-2.1109,-2.1109,-2.1109,-2.1109,-2.1109,-2.1109,-2.1109,-2.1109,0.0,0.0,0.0,0.0,0.0,0.0,0.0,0.0,0.0,0.0,0.0,0.0,0.0,0.0,0.0,0.0,0.0,0.0,0.0,0.0,0.0,0.0,0.0,-0.875,-0.89,-0.9161,-1.0044,-1.1649,-1.1549,-1.2323,-1.3904,-1.3561,-1.2959,-1.2163,-1.1473,-1.226,-1.4098,-1.4029,-1.4771,-1.6058,-1.6497,0.0,0.0,0.0,0.0,0.0,0.0,0.0,0.0,-1.4521,-1.4546,-1.4437,-1.4631,0.0,0.0,0.0,0.0,0.0,-1.3555,-1.2589,-1.1411,-1.0896,-1.0789,-1.1075,-1.1994,0.0,0.0,0.0,0.0,0.0,0.0,-1.5899,0.0,0.0,0.0,0.0,0.0,0.0,-2.2686,-2.4048,-2.4329,0.0,-2.4783,-2.4449,-2.4062,-2.3728,-2.3474,-2.3166,-2.2819,-2.2832,-2.2887,-2.2794,-2.2887,-2.2887,-2.2726,-2.2779,-2.2792,-2.2792,-2.2498,-2.2205,-2.1911,-2.1735,-2.139,-2.1109,0.0,0.0,-2.1109,-2.1109,-2.1109,-2.1109,-2.1109,-2.1109,-2.1109,-2.1109,-2.1109,-2.1109,0.0,0.0,0.0,0.0,0.0,0.0,0.0,0.0,0.0,0.0,0.0,0.0,0.0,0.0,0.0,0.0,0.0,0.0,0.0,0.0,0.0,0.0,-0.8872,-0.9113,-0.993,-0.966,-1.023,-1.1619,-1.2456,-1.3232,-1.392,-1.4068,-1.3252,-1.1745,-1.198,-1.2353,-1.2718,-1.3209,-1.3993,-1.4943,-1.5757,0.0,0.0,0.0,0.0,0.0,0.0,0.0,0.0,-1.4099,-1.4629,-1.4939,-1.4737,0.0,0.0,0.0,0.0,0.0,-1.2576,-1.1255,-0.9937,-1.018,-1.0575,-1.1048,0.0,0.0,0.0,0.0,0.0,0.0,0.0,0.0,-1.658,0.0,0.0,-1.9492,0.0,0.0,-2.3394,-2.4115,0.0,-2.4863,-2.3701,-2.3968,-2.3981,-2.3434,-2.3354,-2.3086,-2.2512,-2.2726,-2.2632,-2.2138,-2.2605,-2.2619,-2.2124,-2.2365,-2.2485,-2.2485,-2.2191,-2.1897,-2.1681,-2.1641,-2.139,-2.1109,0.0,-2.1109,-2.1109,-2.1109,-2.1109,-2.1109,-2.1109,-2.1109,-2.1109,-2.1109,-2.1109,-2.1109,0.0,0.0,0.0,0.0,0.0,0.0,0.0,0.0,0.0,0.0,0.0,0.0,0.0,0.0,0.0,0.0,0.0,0.0,0.0,0.0,0.0,-0.9924,-0.9702,-0.971,-1.0003,-1.0196,-1.0853,-1.2038,-1.299,-1.3881,-1.4619,-1.4015,-1.2993,-1.1808,-1.2242,-1.2485,-1.2633,-1.3879,-1.4425,-1.4487,0.0,0.0,0.0,0.0,0.0,0.0,0.0,0.0,0.0,0.0,-1.4667,-1.4917,-1.491,0.0,0.0,0.0,0.0,0.0,-1.2353,-1.1384,-1.056,-1.0348,-1.0683,-1.1346,0.0,0.0,0.0,0.0,0.0,0.0,0.0,0.0,-1.7315,-1.8424,0.0,-2.0882,-2.2405,-2.2886,-2.33,0.0,0.0,-2.4195,-2.3834,-2.3754,-2.3554,-2.3113,-2.2926,-2.2645,-2.2205,-2.2311,-2.2258,-2.1991,-2.2245,-2.2258,-2.1991,-2.1964,-2.2031,-2.2178,-2.1897,-2.1748,-2.1614,-2.139,-2.1243,-2.1109,0.0,-2.1109,-2.1109,-2.1109,-2.1109,-2.1109,-2.1109,-2.1109,-2.1109,-2.1109,-2.1109,-2.1109,0.0,0.0,0.0,0.0,0.0,0.0,0.0,0.0,0.0,0.0,0.0,0.0,0.0,0.0,0.0,0.0,0.0,0.0,0.0,0.0,-0.9723,-1.0361,-1.0428,-1.0421,-1.0451,-1.1014,-1.1762,-1.271,-1.3694,-1.4433,-1.509,-1.3984,-1.3006,-1.22,-1.2526,-1.2735,-1.2921,-1.4169,-1.4462,-1.4163,0.0,0.0,0.0,0.0,0.0,0.0,0.0,0.0,0.0,0.0,0.0,0.0,0.0,0.0,0.0,-1.5035,-1.4253,-1.3251,-1.2552,-1.1968,-1.1517,-1.1362,0.0,0.0,0.0,0.0,0.0,0.0,0.0,0.0,0.0,-1.7125,0.0,-2.0214,-2.1229,-2.2031,-2.2832,-2.314,-2.3447,-2.3915,-2.3768,-2.3701,-2.3875,-2.3487,-2.306,-2.2686,-2.2445,-2.2191,-2.1897,-2.1951,-2.1924,-2.179,-2.1911,-2.1924,-2.1777,-2.163,-2.1735,-2.1884,-2.159,-2.1443,-2.1443,-2.1216,-2.1109,-2.1109,-2.1109,-2.1109,-2.1109,-2.1109,-2.1109,-2.1109,-2.1109,-2.1109,-2.1109,-2.1109,-2.1109,-2.1109,0.0,0.0,0.0,0.0,0.0,0.0,0.0,0.0,0.0,0.0,0.0,0.0,0.0,0.0,0.0,0.0,0.0,0.0,0.0,0.0,-0.9739,-1.0447,-1.0642,-1.1255,-1.2335,-1.2358,-1.2764,-1.3703,-1.4841,-1.5209,-1.4818,-1.4441,-1.3714,-1.2849,-1.302,-1.3127,-1.3231,-1.2693,-1.2956,-1.3762,-1.3161,0.0,0.0,0.0,0.0,0.0,0.0,0.0,0.0,0.0,0.0,0.0,0.0,0.0,-1.5356,-1.4879,-1.3969,-1.3144,-1.3191,-1.2507,-1.2094,-1.3515,-1.3577,0.0,-1.4867,-1.6112,0.0,-1.7716,0.0,0.0,0.0,-1.8023,-1.9386,-2.1162,-2.1964,-2.2846,-2.4275,0.0,-2.4529,-2.4569,-2.4556,-2.4128,-2.306,-2.2926,-2.2659,-2.2098,-2.2031,-2.1897,-2.1668,-2.1844,-2.1737,-2.1189,-2.1697,-2.1724,-2.1176,-2.143,-2.1628,-2.1641,-2.1283,-2.1149,-2.1136,-2.1122,-2.1109,-2.1109,-2.1109,-2.1109,-2.1109,-2.1109,-2.1109,-2.1109,-2.1109,-2.1109,-2.1109,-2.1109,-2.1109,-2.1109,0.0,0.0,0.0,0.0,0.0,0.0,0.0,0.0,0.0,0.0,0.0,0.0,0.0,0.0,0.0,0.0,0.0,0.0,0.0,0.0,-1.0025,-1.0965,-1.1295,-1.1752,-1.2536,-1.3091,-1.3843,-1.4884,-1.5333,-1.5085,-1.4069,-1.3227,-1.2322,-1.1569,-1.2655,-1.2954,-1.2832,-1.3986,-1.4439,-1.4267,-1.4213,-1.434,0.0,0.0,0.0,0.0,0.0,0.0,0.0,0.0,-1.4484,0.0,0.0,0.0,0.0,0.0,-1.4395,-1.3882,-1.3159,-1.3415,-1.3835,-1.3809,-1.4417,0.0,0.0,-1.7069,-1.7822,-1.8237,-1.8611,0.0,0.0,0.0,-2.0201,-2.159,-2.2472,-2.33,-2.4235,-2.4369,-2.4369,-2.4369,-2.4048,-2.3567,-2.2995,-2.2699,-2.2352,-2.1764,-2.1775,-2.159,-2.1296,-2.1376,-2.1336,-2.1122,-2.1323,-2.1336,-2.1109,-2.1216,-2.1269,-2.1269,-2.1162,-2.1109,-2.1109,-2.1109,-2.1109,-2.1096,-2.0922,-2.0842,-2.0828,-2.0641,-2.0561,-2.0588,-2.0762,-2.0722,-2.0615,-2.0975,-2.0989,-2.0869,0.0,0.0,0.0,0.0,0.0,0.0,0.0,0.0,0.0,0.0,0.0,0.0,0.0,0.0,0.0,0.0,0.0,0.0,0.0,-0.9508,-1.0096,-1.1012,-1.1383,-1.1923,-1.2602,-1.3595,-1.4528,-1.5307,-1.5523,-1.4871,-1.3354,-1.2365,-1.1722,-1.1504,-1.2773,-1.3384,-1.3594,-1.4843,-1.5194,-1.4847,-1.4483,-1.4461,0.0,0.0,0.0,0.0,0.0,0.0,0.0,0.0,0.0,0.0,0.0,0.0,0.0,0.0,0.0,-1.421,-1.3544,-1.4068,-1.4676,0.0,0.0,0.0,-1.7368,-1.8103,-1.8758,-1.9345,-1.9479,0.0,-1.9867,0.0,0.0,0.0,-2.2739,-2.35,-2.3995,-2.4062,-2.3995,-2.3808,-2.342,-2.2993,-2.2498,-2.2271,-2.1937,-2.1443,-2.1416,-2.1323,-2.1122,-2.1109,-2.1109,-2.1109,-2.1109,-2.1109,-2.1109,-2.1109,-2.1069,-2.0975,-2.0975,-2.0975,-2.0975,-2.0975,-2.0922,-2.0828,-2.0722,-2.0628,-2.0521,-2.0321,-2.0167,-2.0207,-2.0561,-2.0494,-2.0247,-2.0895,-2.0869,-2.0588,0.0,0.0,0.0,0.0,0.0,0.0,0.0,0.0,0.0,0.0,0.0,0.0,0.0,0.0,0.0,0.0,0.0,0.0,-0.9194,-0.9344,-0.9724,-1.0449,-1.0899,-1.1608,-1.2734,-1.38,-1.4546,-1.4875,-1.5294,-1.4518,-1.2799,-1.2118,-1.223,-1.3068,-1.3625,-1.4628,-1.5814,-1.4735,-1.4764,-1.5323,-1.3474,-1.3366,-1.434,0.0,0.0,0.0,0.0,0.0,0.0,0.0,-1.4782,0.0,0.0,0.0,0.0,0.0,-1.4549,-1.403,-1.4469,-1.444,-1.434,0.0,0.0,0.0,0.0,0.0,-2.0134,-2.1387,0.0,-2.008,-2.0949,0.0,0.0,-2.179,-2.2739,-2.342,-2.3728,-2.3768,-2.3541,-2.3008,-2.2859,-2.2579,-2.1695,-2.1614,-2.143,-2.1136,-2.1109,-2.1109,-2.1109,-2.1109,-2.1109,-2.1109,-2.1109,-2.1109,-2.1109,-2.1109,-2.0962,-2.0681,-2.0668,-2.0668,-2.0668,-2.0668,-2.0508,-2.0254,-2.0535,-2.0494,-2.0227,-2.0167,-2.0167,-2.0254,-2.0548,-2.0494,-2.0294,-2.0882,-2.0735,-2.0247,0.0,0.0,0.0,0.0,0.0,0.0,0.0,0.0,0.0,0.0,0.0,0.0,0.0,0.0,0.0,0.0,0.0,0.0,-0.9201,-0.9344,-0.9673,-1.0334,-1.0719,-1.1134,-1.1635,-1.2562,-1.3457,-1.4468,-1.429,-1.333,-1.1635,-1.1241,-1.0912,-1.0848,-1.2966,-1.3859,-1.3908,-1.4767,-1.5298,-1.5439,-1.4474,-1.4279,-1.4617,0.0,0.0,0.0,0.0,0.0,0.0,0.0,0.0,0.0,0.0,0.0,0.0,0.0,-1.4921,-1.4744,-1.4851,-1.5265,0.0,0.0,0.0,0.0,0.0,0.0,0.0,0.0,0.0,-2.1042,-2.1096,0.0,0.0,-2.1695,-2.2418,-2.3113,-2.342,-2.3273,-2.306,-2.2954,-2.2498,-2.2058,-2.1655,-2.1614,-2.143,-2.1136,-2.1109,-2.1109,-2.1109,-2.1109,-2.1015,-2.0815,-2.1002,-2.1015,-2.0802,-2.0802,-2.0762,-2.0668,-2.0254,-2.0174,-2.0361,-2.0361,-2.0321,-2.0227,-2.0107,-2.0013,-1.9907,-1.9706,-1.9626,-1.9653,-1.9947,-1.988,-1.9693,-2.0281,-2.0254,-1.9987,0.0,0.0,0.0,0.0,0.0,0.0,0.0,0.0,0.0,0.0,-0.8248,-0.8397,0.0,0.0,0.0,0.0,0.0,0.0,0.0,0.0,-0.968,-1.0358,-1.0552,-1.0941,-1.1467,-1.2178,-1.2681,-1.2985,-1.2956,-1.2235,-1.0724,-1.09,-1.0853,-1.0761,-1.3863,-1.466,-1.3905,-1.5805,-1.6235,-1.5608,-1.5077,-1.4874,-1.4839,0.0,0.0,0.0,0.0,0.0,0.0,0.0,0.0,0.0,0.0,0.0,0.0,-1.5149,-1.5141,-1.5029,-1.5022,0.0,0.0,0.0,0.0,0.0,0.0,0.0,0.0,0.0,0.0,-2.1737,-2.179,-2.167,0.0,-2.1857,-2.2445,-2.2886,-2.2953,-2.2806,-2.2605,-2.2432,-2.2031,-2.1657,-2.1306,-2.1266,-2.1082,-2.0788,-2.0762,-2.0762,-2.0762,-2.0762,-2.0681,-2.0508,-2.0668,-2.0681,-2.0508,-2.0494,-2.0441,-2.0321,-1.9973,-1.9826,-1.9893,-2.0013,-2.0,-1.988,-1.9706,-1.9626,-1.9613,-1.9497,-1.943,-1.9457,-1.9693,-1.9626,-1.9439,-2.0013,-1.9973,-1.9679,0.0,0.0,-0.7988,-0.7988,0.0,0.0,0.0,0.0,0.0,0.0,-0.8174,-0.8327,0.0,0.0,0.0,0.0,0.0,0.0,0.0,0.0,-0.978,-1.0457,-1.056,-1.1016,-1.1807,-1.2261,-1.1919,-1.0811,-1.1445,-1.1167,-0.9963,-1.0914,-1.1534,-1.2084,-1.548,-1.6218,-1.506,-1.7063,-1.7038,-1.5546,-1.5013,-1.4773,-1.4725,-1.4038,0.0,0.0,0.0,0.0,0.0,0.0,0.0,0.0,0.0,0.0,0.0,-1.5338,-1.5246,-1.5054,0.0,0.0,0.0,0.0,0.0,0.0,0.0,0.0,-2.2995,-2.346,0.0,-2.2178,-2.2727,-2.2177,-2.1815,-2.2258,-2.2592,-2.2686,-2.2418,-2.2352,-2.2151,-2.1681,-2.1601,-2.136,-2.0735,-2.0681,-2.0548,-2.0254,-2.0167,-2.0167,-2.0167,-2.0167,-2.0167,-2.0127,-2.0214,-2.0214,-2.0127,-2.0127,-2.0054,-1.98,-1.9746,-1.9599,-1.943,-1.9639,-1.9613,-1.943,-1.943,-1.943,-1.943,-1.943,-1.943,-1.9399,-1.9653,-1.9599,-1.9439,-1.996,-1.9826,-1.9439,0.0,0.0,-0.7988,-0.7988,0.0,0.0,0.0,0.0,0.0,0.0,0.0,0.0,0.0,0.0,0.0,0.0,0.0,0.0,0.0,0.0,-0.9946,-1.0457,-1.1145,-1.1455,-1.1332,-1.1126,-1.0695,-1.0044,-1.0736,-1.0592,-0.972,-1.05,-1.1495,-1.2773,-1.4499,-1.5252,-1.5102,-1.493,-1.4256,-1.3358,-1.2771,-1.2466,-1.2389,-1.274,-1.2886,0.0,0.0,0.0,0.0,0.0,0.0,0.0,-1.5324,-1.5206,-1.5107,-1.5577,-1.5549,-1.5481,0.0,-1.6469,0.0,0.0,0.0,0.0,0.0,0.0,0.0,-2.211,-2.2191,-2.2218,-2.1963,-2.1871,-2.1857,-2.1815,-2.1977,-2.2151,-2.2084,-2.1884,-2.1762,-2.1628,-2.1349,-2.1069,-2.0708,-2.0681,-2.0548,-2.0254,-2.0167,-2.0167,-2.0167,-2.0167,-2.0134,-1.9907,-2.0107,-2.012,-1.9893,-1.9893,-1.9867,0.0,-1.9332,-1.9199,-1.943,-1.9439,-1.9426,-1.943,-1.943,-1.943,-1.943,-1.943,-1.943,-1.943,-1.9439,-1.9426,-1.9386,-1.9506,-1.9479,-1.9444,0.0,0.0,0.0,0.0,0.0,0.0,0.0,0.0,0.0,0.0,0.0,0.0,0.0,0.0,0.0,0.0,-0.9277,0.0,0.0,0.0,-1.0237,-1.0747,-1.1355,-1.1331,-1.0688,-1.0599,-1.0222,-0.9391,-0.968,-0.9676,-0.9517,-1.0263,-1.1425,-1.3013,-1.4105,-1.4875,-1.5209,-1.4333,-1.3614,-1.2993,-1.222,-1.1875,-1.1752,-1.1616,-1.1791,-1.2193,-1.2387,0.0,0.0,0.0,0.0,0.0,0.0,0.0,-1.5233,-1.5531,-1.5631,-1.5689,0.0,0.0,0.0,0.0,0.0,0.0,0.0,0.0,0.0,0.0,-2.1804,-2.2124,-2.1817,-2.1884,-2.1937,-2.1777,-2.1884,-2.1937,-2.1804,-2.1708,-2.1561,-2.1363,-2.1082,-2.0788,-2.0494,-2.0334,-2.0134,-1.984,-1.9813,-1.9813,-1.9813,-1.9813,-1.9746,-1.9599,-1.9733,-1.9746,-1.9599,-1.9599,-1.9519,-1.9372,-1.9065,-1.8931,-1.8958,-1.9296,-1.943,-1.943,-1.943,-1.943,-1.943,-1.943,-1.943,-1.943,-1.943,-1.943,-1.943,-1.943,-1.943,-1.943,0.0,0.0,0.0,0.0,0.0,0.0,0.0,0.0,0.0,0.0,0.0,0.0,0.0,0.0,-0.8687,0.0,0.0,0.0,0.0,-1.0288,-1.0506,-1.084,-1.1163,-1.0966,-1.0189,-1.0362,-0.9968,-0.8959,-0.8838,-0.8981,-0.9435,-1.0107,-1.1366,-1.3043,-1.3675,-1.4337,-1.4911,-1.379,-1.3113,-1.272,-1.1737,-1.1317,-1.1238,-1.0406,-1.0652,-1.1365,-1.0877,-1.2145,-1.41,-1.4436,0.0,0.0,0.0,0.0,-1.5425,-1.5471,-1.5645,-1.5744,0.0,0.0,0.0,0.0,0.0,0.0,0.0,0.0,0.0,0.0,0.0,-2.1897,-2.1844,-2.183,-2.183,-2.183,-2.183,-2.175,-2.151,-2.1494,-2.1309,-2.1069,-2.0775,-2.0481,-2.0187,-1.9947,-1.9679,-1.9444,-1.943,-1.9345,-1.9292,-1.9292,-1.9265,-1.9269,-1.9212,-1.9212,-1.9212,-1.9212,-1.9092,-1.8851,-1.8851,-1.8691,-1.8437,-1.8971,-1.9239,-1.9292,-1.9292,-1.9377,-1.943,-1.943,-1.943,-1.943,-1.943,-1.943,-1.943,-1.943,-1.943,-1.943,0.0,0.0,0.0,0.0,0.0,0.0,0.0,0.0,0.0,0.0,-0.8472,-0.8635,0.0,0.0,0.0,-0.8948,-0.9203,0.0,-0.9871,0.0,0.0,-1.0381,-1.0576,-1.0606,-1.04,-1.0134,-0.9787,-0.932,-0.9042,-0.9137,-0.9585,-0.9944,-1.116,-1.3161,-1.2442,-1.2795,-1.3654,-1.1469,-1.0382,-1.0037,-0.915,-0.8671,-0.8564,-0.8802,-0.9039,-0.946,-1.1365,-1.2436,-1.3173,-1.501,-1.5568,0.0,0.0,0.0,-1.5528,-1.5684,-1.5758,0.0,0.0,0.0,0.0,0.0,0.0,0.0,0.0,0.0,0.0,0.0,0.0,0.0,-2.1269,-2.1229,-2.1229,-2.1229,-2.1229,-2.1216,-2.1176,-2.0949,-2.0775,-2.0735,-2.0468,-2.0174,-1.988,-1.9826,-1.9679,-1.9444,-1.943,-1.9252,-1.8998,-1.8985,-1.8865,-1.8611,-1.8611,-1.8611,-1.8611,-1.8611,-1.8584,-1.8544,-1.8544,-1.8397,-1.8062,-1.845,-1.8744,-1.8985,-1.8985,-1.9132,-1.943,-1.943,-1.943,-1.943,-1.943,-1.943,-1.943,-1.943,-1.943,-1.943,0.0,0.0,0.0,0.0,0.0,0.0,0.0,0.0,0.0,0.0,0.0,-0.8615,0.0,0.0,0.0,0.0,0.0,0.0,-0.9761,-0.9909,0.0,0.0,-1.0142,-1.0098,-0.9867,-0.9766,-0.9553,-0.913,0.0,0.0,0.0,-0.9889,-1.0995,-1.2759,-1.1164,-1.1476,-1.3098,-1.0132,-0.9134,-0.9517,-0.8507,-0.8099,-0.8045,-0.8213,-0.8392,-0.8775,-1.0435,-1.156,-1.2533,-1.3992,-1.4424,-1.4424,-1.4675,0.0,0.0,0.0,-1.5356,0.0,0.0,0.0,0.0,0.0,0.0,0.0,0.0,0.0,0.0,0.0,0.0,0.0,0.0,-2.1109,-2.1109,-2.1109,-2.1109,-2.1056,-2.0895,-2.0762,-2.0615,-2.0441,-2.0174,-1.9947,-1.9813,-1.9653,-1.9439,-1.9145,-1.9118,-1.8998,-1.8691,-1.8677,-1.8624,-1.849,-1.849,-1.849,-1.849,-1.849,-1.841,-1.8237,-1.8063,-1.7916,-1.7796,-1.7929,-1.8237,-1.8677,-1.8677,-1.8758,-1.8891,-1.9052,-1.9118,-1.9132,-1.9305,-1.943,-1.943,-1.943,-1.943,-1.943,0.0,0.0,0.0,0.0,0.0,0.0,0.0,0.0,0.0,0.0,0.0,0.0,0.0,0.0,0.0,0.0,0.0,0.0,-0.9541,0.0,0.0,0.0,0.0,-0.9552,-0.9266,-0.9384,-0.9266,0.0,0.0,0.0,-0.9822,-0.9876,-1.0692,0.0,-1.0329,-1.0507,-1.1872,-0.9265,-0.8621,-0.9299,-0.8378,-0.7988,-0.7988,-0.7988,-0.8187,-0.8528,-0.9608,-1.0681,-1.1755,-1.2727,-1.3125,-1.3221,-1.3752,-1.3884,0.0,0.0,0.0,0.0,0.0,0.0,0.0,0.0,0.0,0.0,0.0,0.0,0.0,0.0,0.0,0.0,0.0,0.0,0.0,-2.1015,-2.1002,-2.0895,-2.0601,-2.0494,-2.0374,-2.0147,-1.98,-1.9573,-1.9573,-1.9319,-1.9052,-1.8824,-1.8811,-1.8691,-1.8397,-1.8384,-1.8343,-1.8263,-1.8263,-1.8263,-1.8263,-1.8183,-1.8036,-1.7809,-1.7502,-1.7395,-1.7475,-1.7475,-1.7756,-1.8263,-1.8343,-1.8424,-1.8517,-1.8811,-1.8918,-1.8958,-1.9252,-1.943,-1.943,-1.943,-1.943,-1.943,0.0,0.0,0.0,0.0,0.0,0.0,0.0,0.0,0.0,0.0,0.0,0.0,0.0,0.0,-0.8871,-0.8927,0.0,0.0,0.0,0.0,0.0,0.0,0.0,0.0,0.0,-0.8954,0.0,0.0,0.0,0.0,-0.9822,-0.9829,-1.0148,-1.0749,-1.0222,-0.9753,-0.9356,-0.8709,-0.8593,-0.8688,-0.8214,-0.7988,-0.7988,-0.7988,-0.8187,-0.8528,-0.9608,-1.0199,-1.0632,-1.1658,-1.2047,-1.229,-1.3488,-1.3884,-1.4148,0.0,0.0,0.0,0.0,0.0,0.0,0.0,0.0,0.0,0.0,0.0,0.0,0.0,0.0,0.0,0.0,0.0,0.0,0.0,0.0,0.0,-2.0294,-2.0027,-1.984,-1.9826,-1.9319,-1.8971,0.0,0.0,0.0,0.0,-1.8517,-1.8384,-1.8035,-1.8009,-1.7929,-1.7635,-1.7635,-1.7635,-1.7635,-1.7407,-1.7259,-1.7246,-1.6901,-1.6901,-1.7219,-1.7219,-1.7393,-1.7649,-1.7943,-1.8237,-1.8517,-1.8811,-1.8918,-1.8958,-1.9252,-1.943,-1.943,-1.943,-1.943,-1.943,0.0,0.0,0.0,0.0,0.0,0.0,0.0,0.0,0.0,0.0,0.0,0.0,0.0,-0.8885,-0.8885,-0.8885,-0.8885,0.0,0.0,0.0,0.0,0.0,0.0,0.0,0.0,0.0,0.0,0.0,0.0,-0.8993,-0.9202,-0.9551,-0.9693,-0.9713,-0.9646,-0.9503,-0.9252,-0.8513,-0.8228,-0.8217,-0.8056,-0.7988,-0.7988,-0.7988,-0.8038,-0.8287,-0.9361,-0.9805,-1.0051,-1.1121,-1.156,-1.1853,-1.2484,-1.3258,-1.4124,-1.5439,-1.5784,0.0,0.0,0.0,0.0,0.0,0.0,0.0,0.0,0.0,0.0,0.0,0.0,0.0,0.0,0.0,0.0,0.0,0.0,0.0,0.0,0.0,0.0,0.0,0.0,0.0,0.0,0.0,0.0,0.0,0.0,-1.805,-1.7769,-1.7756,-1.7702,-1.7582,-1.7447,-1.7259,-1.7021,-1.6914,-1.686,-1.686,-1.6754,-1.686,-1.7206,-1.7206,-1.7367,-1.7595,-1.7702,-1.7809,-1.7929,-1.8237,-1.8477,-1.8677,-1.8971,-1.9199,-1.943,-1.943,-1.943,-1.943,0.0,0.0,0.0,0.0,0.0,0.0,0.0,0.0,0.0,0.0,0.0,0.0,0.0,0.0,-0.8885,-0.8885,-0.8885,-0.8885,-0.8885,-0.8885,0.0,0.0,0.0,0.0,0.0,0.0,0.0,0.0,0.0,0.0,0.0,-0.9245,-0.9327,-0.9282,-0.9178,-0.9211,0.0,0.0,-0.8292,-0.8271,-0.8069,-0.8049,-0.8194,-0.819,-0.8235,-0.8245,-0.9048,-0.9249,-0.9257,-0.9995,-1.0349,-1.065,-1.1304,-1.245,-1.374,-1.4819,-1.4914,0.0,-1.5432,0.0,0.0,0.0,0.0,0.0,0.0,0.0,0.0,0.0,0.0,0.0,0.0,0.0,0.0,0.0,0.0,0.0,0.0,0.0,0.0,0.0,0.0,0.0,0.0,0.0,0.0,0.0,0.0,0.0,-1.7501,-1.7487,-1.7395,-1.7288,-1.7152,-1.6901,-1.6714,-1.6607,-1.6567,-1.6553,-1.646,-1.662,-1.7058,-1.7058,-1.7259,-1.7582,-1.7582,-1.7582,-1.7609,-1.7862,-1.8102,-1.8384,-1.8771,-1.9052,-1.9225,-1.939,-1.943,-1.943,0.0,0.0,0.0,0.0,0.0,0.0,0.0,0.0,0.0,0.0,0.0,0.0,0.0,0.0,0.0,-0.8898,-0.8898,-0.8892,-0.8885,-0.8885,0.0,0.0,0.0,0.0,0.0,0.0,0.0,0.0,0.0,0.0,0.0,0.0,-0.9076,-0.9334,-0.8899,-0.8866,-0.918,0.0,-0.8871,-0.8824,-0.8238,-0.8228,-0.8506,-0.8642,-0.8608,-0.8499,-0.8648,-0.852,-0.8333,-0.8327,-0.8376,-0.8713,-1.0171,-1.1578,-1.2823,-1.3607,-1.3125,0.0,0.0,0.0,0.0,0.0,0.0,0.0,-1.7032,0.0,0.0,0.0,0.0,0.0,0.0,0.0,0.0,0.0,0.0,0.0,0.0,0.0,0.0,0.0,0.0,0.0,0.0,0.0,0.0,0.0,-1.7569,-1.7487,-1.7206,-1.7192,-1.7058,-1.67,-1.6687,-1.6687,-1.6673,-1.6393,-1.6308,-1.6259,-1.5965,-1.6139,-1.67,-1.67,-1.7021,-1.7582,-1.7582,-1.7582,-1.7609,-1.7849,-1.7995,-1.8062,-1.8691,-1.8918,-1.8971,-1.9265,-1.943,-1.943,0.0,0.0,0.0,0.0,0.0,0.0,0.0,0.0,0.0,0.0,0.0,0.0,-0.8878,-0.913,-0.9259,-0.9259,-0.9259,-0.9164,-0.8898,-0.8885,-0.8885,-0.8885,0.0,0.0,0.0,0.0,0.0,0.0,0.0,0.0,0.0,0.0,0.0,0.0,-0.8716,-0.8696,-0.8655,-0.8513,0.0,-0.875,-0.8472,-0.8472,-0.8628,-0.8459,-0.8431,-0.8486,-0.8526,-0.8567,-0.8574,-0.8459,-0.9057,-1.0051,-1.1182,-1.1805,-1.2193,-1.263,-1.2533,-1.2581,-1.3956,0.0,0.0,0.0,0.0,0.0,-1.6152,-1.6366,-1.667,0.0,0.0,0.0,0.0,0.0,0.0,0.0,0.0,0.0,0.0,0.0,0.0,0.0,0.0,0.0,0.0,0.0,0.0,0.0,-1.7326,-1.7192,-1.6847,-1.6834,-1.67,-1.6406,-1.6393,-1.6286,-1.6072,-1.5992,-1.5952,-1.5952,-1.5824,-1.6139,-1.67,-1.67,-1.7021,-1.7582,-1.7582,-1.7582,-1.7595,-1.7675,-1.7969,-1.8384,-1.8544,-1.8865,-1.9252,-1.939,-1.943,-1.943,0.0,0.0,0.0,0.0,0.0,0.0,0.0,0.0,0.0,0.0,0.0,0.0,-0.911,-0.9503,-0.968,-0.9496,-0.9476,-0.9347,-0.9049,-0.9028,-0.9001,-0.8885,0.0,0.0,0.0,0.0,0.0,0.0,0.0,0.0,0.0,0.0,0.0,0.0,-0.8391,-0.8418,-0.8391,0.0,0.0,0.0,-0.8671,-0.8755,-0.8886,-0.8777,-0.8784,-0.8866,-0.8927,-0.8967,-0.896,-0.8743,-0.9164,-0.994,-1.0756,-1.0842,-1.0779,-1.1755,-1.1755,-1.1901,-1.3655,-1.3811,0.0,0.0,0.0,0.0,-1.5896,-1.6046,-1.6166,0.0,0.0,0.0,0.0,0.0,0.0,0.0,0.0,0.0,0.0,0.0,0.0,0.0,0.0,0.0,0.0,-1.7288,-1.7141,-1.6981,-1.7018,-1.6834,-1.654,-1.6406,-1.6259,-1.6086,-1.6086,-1.6005,-1.5784,-1.5784,-1.5784,-1.5784,-1.5784,-1.6139,-1.67,-1.67,-1.7021,-1.7582,-1.7582,-1.7582,-1.7582,-1.7582,-1.7796,-1.813,-1.825,-1.8597,-1.9011,-1.9145,-1.9265,-1.943,0.0,0.0,-0.8089,-0.8452,0.0,0.0,0.0,0.0,0.0,0.0,0.0,0.0,0.0,-1.0012,-1.0141,-0.972,-0.9652,-0.9503,-0.9255,-0.9234,0.0,0.0,0.0,0.0,0.0,0.0,0.0,0.0,0.0,0.0,0.0,0.0,0.0,0.0,-0.8038,-0.8176,-0.8333,-0.8529,0.0,-0.8538,-0.8783,-0.9008,-0.9248,-0.9293,-0.9354,-0.9401,-0.9537,-0.951,-0.9361,-0.9062,-0.8926,-0.8965,-0.9512,-0.9249,-0.9118,-1.0775,-1.0864,-1.0855,-1.298,-1.292,-1.2926,-1.546,-1.5177,0.0,-1.5972,-1.6046,-1.5939,-1.6179,0.0,0.0,0.0,0.0,0.0,0.0,0.0,0.0,0.0,0.0,0.0,0.0,0.0,0.0,-1.7152,-1.686,-1.6687,-1.666,-1.662,-1.65,-1.6233,-1.5979,-1.5784,-1.5784,-1.5784,-1.5784,-1.5784,-1.5784,-1.5784,-1.5784,-1.5784,-1.6126,-1.666,-1.6687,-1.7007,-1.7542,-1.7569,-1.7582,-1.7582,-1.7582,-1.7609,-1.7662,-1.7889,-1.8195,-1.8571,-1.8824,-1.9118,-1.943,-0.7988,-0.7988,-0.8123,-0.8594,0.0,0.0,0.0,0.0,0.0,0.0,0.0,0.0,0.0,0.0,0.0,0.0,-0.9924,-0.9652,-0.9354,-0.934,0.0,0.0,0.0,0.0,0.0,0.0,0.0,0.0,0.0,0.0,0.0,0.0,0.0,0.0,-0.8336,-0.8421,-0.8634,0.0,0.0,-0.8506,-0.8804,-0.9098,-0.9313,-0.9103,-0.9171,-0.9388,-0.9415,-0.949,-0.9517,-0.9211,-0.8968,-0.8749,-0.8748,-0.8678,-0.8629,-0.9114,-0.9726,-1.0388,-1.1168,-1.1853,-1.2689,-1.4304,-1.4643,0.0,-1.5713,-1.6059,-1.6139,0.0,0.0,0.0,0.0,0.0,0.0,0.0,0.0,0.0,0.0,0.0,0.0,0.0,0.0,0.0,-1.6794,-1.674,-1.6607,-1.638,-1.6139,-1.5931,-1.5912,-1.5858,-1.5784,-1.5784,-1.5784,-1.5784,-1.5784,-1.5784,-1.5784,-1.5784,-1.5784,-1.6019,-1.6366,-1.6593,-1.6901,-1.73,-1.7527,-1.7582,-1.7582,-1.7582,-1.7729,-1.7902,-1.7969,-1.8315,-1.8838,-1.8905,-1.9118,-1.943,-0.8008,-0.8099,-0.8316,-0.8838,0.0,0.0,0.0,0.0,0.0,0.0,0.0,0.0,0.0,0.0,0.0,0.0,0.0,0.0,0.0,0.0,0.0,0.0,0.0,0.0,0.0,0.0,0.0,0.0,0.0,0.0,0.0,0.0,0.0,0.0,0.0,0.0,0.0,0.0,-0.9026,-0.8615,-0.9009,0.0,-0.9316,-0.9184,-0.934,-0.9598,-0.9598,-0.9605,-0.9585,-0.9435,-0.9178,-0.8906,-0.8757,-0.8762,-0.8938,-0.9294,-1.0255,-1.1194,-1.1178,-1.2227,-1.3449,-1.4133,-1.4484,0.0,0.0,-1.6046,-1.6005,-1.5811,0.0,0.0,0.0,0.0,0.0,0.0,0.0,0.0,0.0,0.0,0.0,0.0,0.0,0.0,-1.6486,-1.6353,-1.6206,-1.6059,-1.5912,-1.5784,-1.5784,-1.5784,-1.5784,-1.5784,-1.5784,-1.5784,-1.5784,-1.5784,-1.5784,-1.5784,-1.5784,-1.5979,-1.6273,-1.642,-1.6777,-1.7206,-1.7353,-1.7501,-1.7582,-1.7582,-1.7675,-1.7822,-1.7929,-1.8262,-1.8731,-1.8865,-1.9118,-1.943,-0.8022,-0.814,-0.8411,-0.9064,0.0,0.0,0.0,0.0,0.0,0.0,0.0,0.0,0.0,-1.1023,-1.0934,-1.0568,0.0,0.0,-0.9869,-0.9707,0.0,0.0,0.0,-0.9296,0.0,0.0,0.0,0.0,0.0,0.0,0.0,0.0,0.0,0.0,0.0,0.0,0.0,0.0,0.0,-0.8723,0.0,-0.9245,-0.9228,-0.932,-0.9544,-0.9781,-0.9808,-0.9747,-0.9639,-0.9585,-0.9401,-0.9228,-0.9028,-0.9058,0.0,-0.9808,-1.0863,-1.1824,-1.1525,-1.2554,-1.3819,-1.4266,-1.4474,-1.4871,0.0,0.0,0.0,0.0,0.0,0.0,0.0,0.0,0.0,0.0,0.0,0.0,0.0,0.0,0.0,0.0,0.0,0.0,-1.6192,-1.5965,-1.5784,-1.5784,-1.5784,-1.5784,-1.5784,-1.5784,-1.5784,-1.5784,-1.5784,-1.5784,-1.5784,-1.5784,-1.5784,-1.5784,-1.5784,-1.5952,-1.6192,-1.6246,-1.6576,-1.7045,-1.7152,-1.734,-1.7554,-1.7555,-1.7582,-1.7609,-1.7929,-1.8169,-1.8531,-1.8811,-1.9118,-1.943,-0.8022,-0.8002,-0.8204,-0.8804,0.0,0.0,0.0,0.0,0.0,0.0,0.0,0.0,-1.1681,-1.1145,-1.0962,-1.143,-1.0358,-0.9985,-1.0678,-1.0053,0.0,0.0,0.0,0.0,-0.9234,0.0,0.0,0.0,0.0,0.0,0.0,0.0,0.0,0.0,-0.8897,0.0,0.0,0.0,-0.886,0.0,-0.8879,-0.9084,0.0,-0.932,-0.949,-0.9652,-0.9774,-0.9808,-0.9754,0.0,-0.9388,-0.9327,0.0,-0.9173,-0.9209,-0.9307,0.0,0.0,0.0,0.0,0.0,0.0,-1.4383,-1.4541,-1.5989,0.0,-1.646,-1.5891,0.0,0.0,0.0,0.0,0.0,0.0,0.0,0.0,0.0,0.0,0.0,0.0,0.0,0.0,0.0,-1.5798,-1.5784,-1.5784,-1.5784,-1.5784,-1.5784,-1.5784,-1.5784,-1.5784,-1.5784,-1.5784,-1.5784,-1.5784,-1.5784,-1.5784,-1.5784,-1.5798,-1.5885,-1.6152,-1.6362,-1.6455,-1.6978,-1.7219,-1.7273,-1.7475,-1.7582,-1.7609,-1.7929,-1.8169,-1.8531,-1.8811,-1.9118,-1.943,-0.8002,-0.8113,-0.8336,-0.8797,0.0,0.0,0.0,0.0,0.0,0.0,0.0,0.0,-1.2196,-1.1633,-1.1341,-1.1599,-1.086,-1.0473,-1.067,-1.0168,0.0,0.0,0.0,-0.9395,0.0,0.0,0.0,0.0,-0.8852,0.0,0.0,0.0,0.0,0.0,-0.932,0.0,-0.907,0.0,-0.9056,0.0,0.0,0.0,0.0,-0.9282,-0.9401,-0.9632,-0.9768,-0.9822,-0.9788,0.0,-0.9564,0.0,0.0,0.0,0.0,-0.9291,0.0,0.0,0.0,0.0,0.0,0.0,0.0,0.0,-1.6737,0.0,-1.6584,0.0,0.0,0.0,0.0,0.0,0.0,0.0,-1.5296,0.0,0.0,0.0,0.0,0.0,0.0,0.0,0.0,0.0,0.0,0.0,-1.5784,-1.5784,-1.5784,-1.5784,-1.5784,-1.5784,-1.5784,-1.5784,-1.5784,-1.5784,-1.5784,-1.5784,-1.6005,-1.5992,-1.5798,-1.6139,-1.6321,-1.6348,-1.6714,-1.7045,-1.7219,-1.7514,-1.7582,-1.7609,-1.7929,-1.8075,-1.829,-1.8758,-1.8998,-1.9132,-0.8106,-0.8194,-0.8397,0.0,0.0,0.0,0.0,0.0,0.0,0.0,0.0,-1.1945,-1.2338,-1.1891,-1.1708,-1.2074,-1.147,-1.1029,-1.0928,-1.0453,-1.008,-0.9815,-0.9632,-0.9496,-0.9483,0.0,0.0,0.0,0.0,0.0,0.0,0.0,0.0,0.0,0.0,-0.9444,-0.8984,0.0,-0.9182,-0.9001,-0.9069,-0.9096,-0.9096,-0.9193,-0.9313,-0.9557,-0.9666,-0.9727,-0.9741,-0.9598,-0.9646,0.0,-0.9639,-0.9648,-0.9713,0.0,0.0,0.0,-0.937,0.0,0.0,0.0,0.0,0.0,0.0,0.0,0.0,0.0,0.0,0.0,0.0,0.0,0.0,0.0,0.0,-1.4899,0.0,0.0,0.0,0.0,0.0,0.0,0.0,0.0,0.0,-1.5784,-1.5784,-1.5784,-1.5784,-1.5784,-1.5784,-1.5784,-1.5784,-1.5784,-1.5784,-1.5784,-1.5872,-1.5952,-1.6086,-1.6086,-1.5952,-1.6086,-1.6192,-1.6286,-1.658,-1.6874,-1.7219,-1.7514,-1.7582,-1.7609,-1.7836,-1.7862,-1.7942,-1.8677,-1.8918,-1.8971,-0.8313,-0.832,0.0,0.0,0.0,0.0,0.0,0.0,0.0,-1.069,-1.0629,-1.0941,-1.1965,-1.1667,-1.1925,-1.3227,-1.2135,-1.1558,-1.1986,-1.105,-1.0154,-0.9435,-0.9659,-0.9605,-0.9234,-0.9207,0.0,0.0,0.0,0.0,0.0,0.0,0.0,0.0,0.0,-0.9341,-0.9086,-0.8982,-0.9022,-0.9193,-0.9001,-0.8892,-0.8905,0.0,-0.9309,-0.9388,-0.9395,0.0,0.0,-0.9442,-0.949,0.0,0.0,0.0,0.0,0.0,0.0,0.0,0.0,0.0,0.0,-1.4201,0.0,0.0,0.0,0.0,-1.7069,0.0,0.0,0.0,0.0,0.0,0.0,0.0,0.0,0.0,0.0,0.0,0.0,0.0,0.0,0.0,0.0,0.0,-1.5784,-1.5784,-1.5784,-1.5784,-1.5784,-1.5784,-1.5784,-1.5784,-1.5784,-1.5784,-1.5784,-1.5784,-1.5979,-1.6308,-1.5979,-1.5992,-1.6246,-1.5965,-1.6005,-1.6286,-1.658,-1.6874,-1.7219,-1.7514,-1.7582,-1.7582,-1.7595,-1.7595,-1.7702,-1.8597,-1.8918,-1.8971,-0.8391,-0.8492,0.0,-0.8696,-0.875,-0.9001,0.0,-1.0175,-1.0758,-1.1511,-1.1653,-1.2081,-1.3125,-1.2929,-1.2949,-1.3505,-1.2949,-1.2427,-1.2088,-1.145,-1.0839,-1.029,-1.008,-0.9808,-0.9462,-0.9354,-0.9184,0.0,0.0,0.0,0.0,0.0,0.0,0.0,0.0,-0.9248,0.0,0.0,0.0,0.0,0.0,-0.9232,-0.9225,0.0,-0.9241,-0.9303,-0.9347,-0.9415,0.0,-0.9517,-0.9564,-0.9625,-0.972,-0.9686,-0.9612,-0.9612,-0.9571,0.0,0.0,0.0,-1.1584,-1.2366,0.0,0.0,0.0,0.0,0.0,0.0,0.0,0.0,0.0,0.0,0.0,0.0,0.0,0.0,0.0,0.0,0.0,0.0,0.0,0.0,0.0,0.0,0.0,-1.5784,-1.5784,-1.5784,-1.5784,-1.5784,-1.5784,-1.5784,-1.5784,-1.5925,-1.6126,-1.6126,-1.6273,-1.6553,-1.646,-1.6366,-1.6273,-1.6366,-1.6366,-1.6348,-1.6831,-1.7112,-1.7219,-1.7514,-1.7582,-1.7609,-1.7809,-1.7769,-1.7662,-1.8384,-1.8637,-1.8704,-0.8635,-0.8723,-0.8791,-0.8791,-0.8879,-0.913,-0.9666,-1.0344,-1.1029,-1.166,-1.206,-1.2644,-1.358,-1.3512,-1.3526,-1.3844,-1.3539,-1.2996,-1.2196,-1.1918,-1.1423,-1.0602,-1.0487,-1.0181,-0.9618,-0.9612,-0.9395,-0.8885,0.0,-0.9123,0.0,0.0,0.0,0.0,0.0,-0.9275,-0.9077,-0.9064,-0.9117,0.0,0.0,-0.93,0.0,0.0,-0.9144,-0.9289,0.0,-0.9259,-0.9313,-0.9415,-0.9483,-0.9544,-0.9639,-0.9639,-0.9598,-0.9544,-0.953,-0.9517,-0.9408,-1.0259,0.0,-1.1469,-1.3356,0.0,-1.5074,0.0,-1.663,0.0,0.0,0.0,0.0,0.0,0.0,0.0,0.0,0.0,0.0,-1.5551,0.0,0.0,0.0,0.0,0.0,0.0,-1.5784,-1.5784,-1.5784,-1.5784,0.0,0.0,-1.5784,-1.5784,-1.5784,-1.5979,-1.6321,-1.6321,-1.6473,-1.686,-1.6754,-1.666,-1.6643,-1.6673,-1.666,-1.6656,-1.7032,-1.7259,-1.7367,-1.7502,-1.7649,-1.7756,-1.7849,-1.7889,-1.7969,-1.8464,-1.8718,-1.8851,-0.8967,-0.8898,-0.8905,-0.8912,-0.9205,-0.9442,-0.9598,-1.0314,-1.1016,-1.1192,-1.187,-1.2617,-1.3363,-1.3444,-1.3675,-1.4251,-1.3912,-1.3288,-1.2406,-1.2467,-1.1884,-1.0432,-1.0894,-1.0711,-0.9686,-0.9862,-0.9647,-0.8919,0.0,0.0,0.0,0.0,0.0,0.0,-0.949,0.0,-0.8912,-0.9245,-0.9273,-0.92,-0.9214,-0.9221,-0.9207,-0.8994,-0.9123,-0.934,-0.9042,-0.9028,-0.92,-0.9207,-0.9309,-0.9367,-0.9381,-0.949,-0.9585,-0.9435,-0.9598,-0.9761,-0.9483,-0.9686,-1.034,-1.1611,-1.2192,0.0,0.0,0.0,-1.6074,0.0,0.0,0.0,0.0,0.0,0.0,0.0,0.0,0.0,0.0,0.0,-1.5784,0.0,0.0,0.0,0.0,-1.5784,-1.5784,-1.5784,-1.5784,0.0,0.0,0.0,-1.5784,-1.5784,-1.5798,-1.5992,-1.6335,-1.6362,-1.6656,-1.7219,-1.6874,-1.6874,-1.7192,-1.686,-1.6887,-1.7206,-1.7219,-1.738,-1.7582,-1.7582,-1.7769,-1.7969,-1.7716,-1.7983,-1.8544,-1.8824,-1.9118,-1.9444,-0.8892,-0.9117,-0.93,-0.9415,-0.9503,-0.9598,-0.9747,-1.0375,-1.1199,-1.1904,-1.2556,-1.3234,-1.3987,-1.4068,-1.4129,-1.4285,-1.4197,-1.3838,-1.3159,-1.3044,-1.2583,-1.1647,-1.1538,-1.1165,-1.0453,-1.0297,-0.9964,-0.9435,-0.9442,0.0,-0.932,0.0,0.0,0.0,0.0,0.0,-0.9096,-0.9062,-0.9028,-0.9015,-0.9232,-0.932,-0.9293,0.0,-0.9123,-0.934,-0.9042,-0.8905,-0.9008,-0.9173,-0.9234,-0.9289,-0.9347,-0.949,-0.9605,-0.9564,-0.968,-0.9802,-0.9727,-0.9975,-1.0268,-1.0524,-1.1803,-1.2989,0.0,0.0,0.0,0.0,0.0,0.0,0.0,0.0,0.0,0.0,0.0,0.0,0.0,0.0,0.0,-1.5784,0.0,-1.5784,-1.5784,-1.5784,-1.5784,-1.5784,-1.5784,0.0,0.0,0.0,0.0,-1.5784,-1.6046,-1.6299,-1.6593,-1.682,-1.7166,-1.7462,-1.7233,-1.7125,-1.7192,-1.7125,-1.7125,-1.7206,-1.7434,-1.7515,-1.7582,-1.7582,-1.7769,-1.7982,-1.7902,-1.829,-1.8824,-1.8891,-1.9252,-1.9693,-0.9245,-0.9523,-0.9761,-0.9707,-1.008,-1.0371,-1.0324,-1.0785,-1.1396,-1.2101,-1.282,-1.341,-1.377,-1.4102,-1.4299,-1.4299,-1.4238,-1.3946,-1.3342,-1.3349,-1.2983,-1.2176,-1.1965,-1.1572,-1.0766,-1.0527,-1.0154,-0.97,-0.9551,0.0,-0.9476,0.0,0.0,0.0,0.0,-0.9062,0.0,-0.9042,-0.9144,-0.9327,-0.9367,-0.9422,0.0,-0.9144,-0.9137,-0.9252,-0.9022,-0.8885,-0.8898,-0.9028,-0.9062,-0.9076,-0.9157,-0.9293,-0.9422,-0.949,-0.9612,-0.9741,-0.9802,-0.9943,-1.0105,-1.0321,-1.1319,-1.2149,-1.2095,-1.2678,-1.3426,0.0,-1.3846,-1.3595,0.0,0.0,0.0,0.0,0.0,0.0,0.0,0.0,0.0,0.0,-1.5784,-1.5784,-1.5784,-1.5784,-1.5784,-1.5784,-1.5784,0.0,0.0,0.0,0.0,-1.6019,-1.6313,-1.6607,-1.6901,-1.7246,-1.7474,-1.7582,-1.7474,-1.7393,-1.7393,-1.7393,-1.7393,-1.7393,-1.7515,-1.7582,-1.7582,-1.7582,-1.7836,-1.8263,-1.8531,-1.8744,-1.8945,-1.9065,-1.9412,-1.98,-0.9632,-0.9985,-1.0209,-0.9903,-1.069,-1.1307,-1.1076,-1.1409,-1.1762,-1.2155,-1.2976,-1.3471,-1.3336,-1.3905,-1.4299,-1.4299,-1.4156,-1.3838,-1.3295,-1.3471,-1.3173,-1.2299,-1.225,-1.1898,-1.0988,-1.0697,-1.031,-0.9883,-0.972,0.0,0.0,0.0,0.0,0.0,0.0,0.0,0.0,-0.9164,-0.9429,-0.9713,-0.9496,-0.9483,-0.9551,-0.9316,-0.9221,-0.9221,-0.8994,-0.8885,-0.8885,-0.8885,-0.8898,-0.8912,-0.8912,-0.9069,-0.9268,-0.9367,-0.9503,-0.9639,-0.9781,-1.0004,-1.0301,-1.0642,-1.0952,-1.1222,-1.1449,-1.2119,-1.2867,-1.3045,-1.3554,-1.374,0.0,0.0,0.0,0.0,0.0,0.0,0.0,0.0,-1.5878,-1.5885,0.0,0.0,-1.5784,-1.5784,-1.5784,-1.5784,0.0,0.0,0.0,0.0,0.0,-1.6308,-1.6553,-1.6874,-1.7259,0.0,-1.7609,-1.7649,-1.7595,-1.7582,-1.7582,-1.7582,-1.7582,-1.7582,-1.7582,-1.7582,-1.7582,-1.7582,-1.7916,-1.849,-1.9118,-1.9185,-1.8958,-1.9305,-1.9613,-1.9853,-0.9612,-1.0066,-1.0358,-0.9997,-1.067,-1.1396,-1.1965,-1.2515,-1.2888,-1.2969,-1.3661,-1.4129,-1.4109,-1.4217,-1.4299,-1.4299,-1.4156,-1.3973,-1.3736,-1.3546,-1.3247,-1.282,-1.2474,-1.204,-1.1511,-1.0962,-1.0521,-1.0202,0.0,0.0,0.0,0.0,0.0,0.0,0.0,0.0,-0.92,-0.9537,0.0,-0.9344,-0.949,-0.951,-0.9401,-0.9275,-0.9289,-0.9306,-0.9035,-0.8885,-0.8885,-0.8885,-0.9015,-0.9173,-0.9173,-0.9275,-0.9367,-0.9523,-0.9591,-0.9639,-0.9781,-1.0959,-1.1943,-1.08,-1.1877,-1.2857,-1.1579,-1.1417,-1.1581,-1.1612,-1.157,-1.1777,-1.2345,0.0,0.0,0.0,0.0,0.0,0.0,0.0,-1.646,-1.6219,-1.6192,-1.6099,-1.5845,-1.5784,-1.5784,0.0,0.0,0.0,0.0,0.0,0.0,0.0,-1.6553,0.0,0.0,0.0,-1.7716,-1.7902,-1.7702,-1.7582,-1.7582,-1.7582,-1.7582,-1.7582,-1.7582,-1.7582,-1.7582,-1.7582,-1.7796,-1.8155,-1.9038,-1.9185,-1.8985,-1.9533,-1.9907,-2.016,-1.0053,-1.0297,-1.0548,-1.0717,-1.1362,-1.206,-1.2657,-1.3322,-1.3614,-1.322,-1.3559,-1.3804,-1.3722,-1.4068,-1.4299,-1.4299,-1.4156,-1.4007,-1.3851,-1.3566,-1.3234,-1.2861,-1.2488,-1.2081,-1.1633,-1.0948,-1.0568,-1.0507,0.0,0.0,0.0,0.0,0.0,0.0,0.0,-0.9456,0.0,0.0,0.0,-0.951,-0.9659,-0.9673,-0.9591,-0.9449,-0.9435,-0.9462,-0.9157,-0.9103,-0.9157,-0.9076,-0.9096,-0.9221,-0.9303,-0.932,-0.9408,-0.9564,-0.9612,-0.9639,-0.9781,-1.0604,-1.1306,-1.0816,-1.1567,-1.2303,-1.1667,-1.1446,-1.1395,-1.1344,-1.1245,-1.1553,-1.3121,-1.3898,0.0,0.0,0.0,0.0,0.0,0.0,-1.6938,-1.679,-1.6509,-1.6219,-1.6072,0.0,0.0,0.0,0.0,0.0,0.0,0.0,0.0,0.0,0.0,0.0,0.0,0.0,0.0,-1.7995,-1.805,-1.7889,-1.7582,-1.7756,-1.7729,-1.7582,-1.7582,-1.7582,-1.7609,-1.7929,-1.8237,-1.8502,-1.9145,-1.9279,-1.9185,-1.9466,-1.976,-2.0027,-1.0602,-1.0711,-1.0948,-1.1491,-1.2196,-1.2813,-1.3166,-1.3804,-1.4041,-1.3444,-1.3498,-1.3532,-1.3383,-1.3926,-1.4299,-1.4299,-1.4129,-1.396,-1.3804,-1.3492,-1.3132,-1.2745,-1.242,-1.206,-1.1674,-1.0962,-1.0616,-1.067,-0.993,0.0,0.0,0.0,0.0,0.0,0.0,0.0,0.0,0.0,-0.97,-0.9781,-0.9808,-0.9822,-0.9802,-0.9666,-0.9612,-0.9571,-0.93,-0.9337,-0.9367,-0.9337,-0.9309,-0.933,-0.9395,-0.9429,-0.9456,-0.9612,-0.9632,-0.9639,-0.9842,-1.0361,-1.0838,-1.0868,-1.1306,-1.1796,-1.1671,-1.1573,-1.1476,-1.1403,-1.1356,-1.1968,-1.3964,-1.4168,0.0,0.0,0.0,0.0,0.0,0.0,-1.7273,0.0,-1.6737,-1.6313,-1.6192,0.0,0.0,0.0,0.0,0.0,-1.5784,0.0,0.0,0.0,0.0,-1.7435,-1.7982,0.0,-1.8343,-1.8182,-1.8343,-1.8183,-1.7782,-1.8023,-1.8009,-1.7769,-1.7769,-1.7769,-1.7822,-1.8357,-1.8718,-1.8958,-1.9319,-1.9466,-1.9479,-1.9658,-1.9746,-1.9933,-1.1043,-1.1423,-1.1809,-1.2149,0.0,-1.3329,-1.337,-1.3783,-1.4068,-1.4,-1.4122,-1.4156,-1.4007,-1.4177,-1.4299,-1.4299,-1.4034,-1.3804,-1.3661,-1.3241,-1.2922,-1.2739,-1.2318,-1.1999,-1.1816,-1.115,-1.0778,-1.0514,0.0,-0.9998,0.0,0.0,0.0,0.0,0.0,0.0,0.0,-0.9747,-0.9734,-0.9639,-0.9768,-0.9822,-0.9802,-0.9666,-0.9612,-0.9591,-0.9422,-0.9367,-0.9401,-0.9523,-0.9564,-0.9571,-0.9585,-0.9591,-0.9618,-0.9761,-0.9707,-0.9698,-1.0144,-1.1322,-1.2243,-1.1201,-1.2226,-1.3095,-1.1579,-1.1386,-1.1411,-1.1086,-1.1535,-1.2374,-1.3856,-1.475,-1.5851,0.0,0.0,0.0,0.0,0.0,-1.7448,-1.7233,0.0,0.0,-1.5925,-1.5798,0.0,0.0,-1.5784,0.0,0.0,0.0,0.0,-1.6348,0.0,-1.7435,-1.7982,-1.8022,-1.8288,-1.8838,-1.8275,-1.8196,-1.841,-1.8437,-1.8437,-1.841,-1.841,-1.841,-1.8424,-1.8744,-1.8905,-1.8985,-1.9546,-1.976,-1.9826,-2.0361,-2.0401,-2.0227,-1.1796,0.0,0.0,0.0,0.0,0.0,0.0,-1.3878,-1.3905,-1.3817,-1.4014,-1.4102,-1.3946,-1.4068,-1.4122,-1.4034,-1.3831,-1.3688,-1.3634,-1.3288,-1.2942,-1.261,-1.2338,-1.204,-1.1708,-1.1136,-1.082,0.0,0.0,0.0,0.0,0.0,0.0,0.0,0.0,-0.9788,-0.9741,-0.9795,-0.9788,-0.9741,-0.9795,-0.9822,-0.9815,-0.9754,-0.9734,-0.972,-0.9571,-0.9571,-0.9639,-0.9618,-0.9612,-0.9625,-0.9707,-0.9734,-0.9747,-0.9802,-0.9781,-0.9808,-1.0165,-1.0906,-1.1487,-1.1251,-1.1883,-1.2389,-1.1708,-1.1614,-1.1565,-1.1191,-1.1449,-1.2055,-1.2906,-1.3767,-1.5042,-1.6974,0.0,0.0,0.0,0.0,0.0,-1.7702,0.0,-1.654,-1.6139,-1.5939,0.0,0.0,0.0,0.0,0.0,0.0,0.0,-1.6526,0.0,-1.7702,-1.8303,-1.849,-1.8635,-1.8918,-1.8865,-1.8718,-1.8504,-1.8677,-1.8651,-1.849,-1.849,-1.8584,-1.8758,-1.8878,-1.9025,-1.9225,-1.9639,-1.98,-1.9853,-2.0254,-2.0334,-2.0281,-1.2488,0.0,-1.2657,0.0,-1.3458,-1.3464,-1.3994,-1.3905,-1.3743,-1.3641,-1.3851,-1.3946,-1.3797,-1.3953,-1.4007,-1.3858,-1.3709,-1.3607,-1.3566,-1.3315,-1.299,-1.2583,-1.2427,0.0,-1.1762,-1.1355,-1.1015,-1.088,-1.0588,0.0,0.0,0.0,0.0,0.0,-0.9876,-0.9863,-0.9822,-0.9822,-0.9822,-0.9822,-0.9822,-0.9822,-0.9822,-0.9822,-0.9795,-0.9747,-0.9693,-0.9707,-0.9754,-0.9741,-0.9707,-0.9686,-0.9788,-0.9822,-0.9822,-0.9822,-0.9822,-0.9883,-1.0186,-1.0543,-1.0906,-1.1216,-1.1526,-1.1776,-1.1776,-1.1736,-1.1589,-1.1224,-1.1187,-1.1564,-1.258,-1.3357,-1.4469,-1.6594,0.0,0.0,0.0,-1.8624,0.0,-1.7809,-1.7141,-1.6593,-1.6348,-1.6086,0.0,0.0,0.0,0.0,0.0,0.0,0.0,0.0,0.0,0.0,0.0,-1.8784,-1.8971,-1.9052,-1.9185,-1.9065,-1.8758,-1.8958,-1.8945,-1.8744,-1.8744,-1.8865,-1.9065,-1.9145,-1.9305,-1.9533,-1.9907,-2.0054,-2.0094,-2.0388,-2.0441,-2.0401,-1.3017,-1.3159,-1.3397,-1.4156,-1.4163,-1.4061,-1.4068,-1.3824,-1.3634,-1.3627,-1.3756,-1.379,-1.3648,-1.3892,-1.4007,-1.3858,-1.3709,-1.3566,-1.341,-1.3261,-1.3037,0.0,0.0,-1.2359,-1.206,-1.1762,-1.1396,-1.088,0.0,0.0,-0.999,0.0,-0.999,-0.9984,-0.9984,-0.9903,-0.9822,-0.9822,-0.9822,-0.9822,-0.9822,-0.9822,-0.9822,-0.9822,-0.9734,-0.9632,-0.9768,-0.9727,-0.9659,-0.9883,-0.9883,-0.9822,-0.9822,-0.9822,-0.9822,-0.9822,-0.9822,-0.9883,-1.0186,-1.0543,-1.0906,-1.1216,-1.1526,-1.1776,-1.1776,-1.163,-1.1403,-1.1045,-1.0659,-1.1017,-1.3295,-1.3894,-1.479,-1.6853,0.0,0.0,0.0,-1.8009,0.0,-1.7286,-1.6887,-1.6593,-1.6348,-1.6321,0.0,0.0,0.0,0.0,0.0,0.0,0.0,-1.7192,-1.8063,0.0,-1.849,-1.8784,-1.9078,-1.9417,-1.9065,-1.9078,-1.9417,-1.9417,-1.9417,-1.9417,-1.9417,-1.9417,-1.9386,-1.9666,-1.9786,-1.9853,-2.0441,-2.0668,-2.0695,-2.0989,-2.0922,-2.0708,-1.3559,-1.3715,-1.3892,-1.4238,-1.4089,-1.3912,-1.3912,-1.3661,-1.3471,-1.3471,-1.36,-1.3641,-1.3492,-1.3736,-1.3858,0.0,-1.3559,-1.3451,0.0,-1.3356,-1.3146,-1.2745,-1.2684,-1.242,-1.1918,-1.1714,-1.145,-1.1097,0.0,0.0,0.0,-1.0399,-1.0351,-1.0344,-1.0249,-1.012,-0.9916,-0.9916,-0.9856,-0.9822,-0.9822,-0.9822,-0.9822,-0.9822,-0.9795,-0.9761,-0.9802,-0.9795,-0.9768,-0.9863,-0.9863,-0.9836,-0.9883,-0.9916,-0.9936,-1.01,-1.0184,-1.0341,-1.0718,-1.0936,-1.1239,-1.167,-1.1885,-1.1947,-1.1947,-1.1614,-1.1313,-1.133,-1.0695,-1.0747,-1.288,-1.3855,-1.4891,-1.6631,-1.7961,0.0,-1.8384,0.0,-1.7903,-1.7488,-1.7233,-1.6938,-1.6593,-1.6567,0.0,0.0,0.0,0.0,0.0,0.0,0.0,0.0,-1.8317,0.0,-1.8784,-1.9078,-1.9279,-1.943,-1.9479,-1.9573,-1.9653,-1.9452,-1.943,-1.943,-1.943,-1.943,-1.9444,-1.9679,-1.98,-1.9853,-2.0441,-2.0681,-2.0708,-2.1002,-2.1056,-2.0989,-1.3736,-1.3838,-1.3953,-1.4102,-1.3926,-1.3763,-1.3763,-1.3607,-1.3485,-1.3485,-1.3614,-1.3675,-1.358,-1.3682,0.0,-1.3553,-1.3458,-1.3403,-1.3403,-1.3349,-1.3166,-1.2834,-1.2705,-1.2413,-1.1932,-1.1775,0.0,-1.1246,-1.0989,-1.0785,-1.0629,-1.048,-1.0439,-1.0487,-1.0344,-1.0229,-1.0134,-1.0134,-1.008,-0.9992,-0.993,-0.9849,-0.9897,-0.9842,-0.9822,-0.9822,-0.9822,-0.9822,-0.9829,-0.989,-0.9869,-0.9856,-1.0066,-1.0197,-1.0343,-1.0439,-1.0482,-1.0543,-1.0791,-1.1087,-1.1394,-1.1634,-1.1899,-1.2117,-1.2044,-1.1719,-1.1443,-1.1492,-1.1265,-1.1541,-1.3297,-1.4515,-1.5658,-1.6919,-1.8091,-1.8744,-1.8223,0.0,-1.7836,0.0,0.0,0.0,0.0,-1.7034,-1.6954,0.0,0.0,0.0,0.0,0.0,0.0,-1.8237,-1.8905,0.0,-1.9252,-1.9439,-1.9533,-1.9533,-1.972,-1.98,-1.9786,-1.9613,-1.9533,-1.9533,-1.9533,-1.9586,-1.9706,-1.988,-2.0027,-2.0174,-2.0655,-2.0842,-2.0855,-2.1042,-2.1109,-2.1109,-1.3614,-1.3641,-1.3688,0.0,-1.3729,0.0,-1.3627,-1.362,-1.3614,-1.3614,-1.3729,-1.381,-1.381,-1.3695,-1.3553,-1.341,0.0,0.0,0.0,-1.3254,-1.3112,-1.305,-1.2678,-1.2372,-1.2142,-1.1925,-1.1694,-1.1375,-1.0948,-1.0656,-1.0507,-1.0371,-1.0378,-1.05,-1.0371,-1.0304,-1.0297,-1.0297,-1.029,-1.027,-1.0127,-0.9997,-0.997,-0.9903,-0.9842,-0.9822,-0.9842,-0.9842,-0.9863,-0.995,-0.9909,-0.9903,-1.0188,-1.0538,-1.0799,-1.0799,-1.0685,-1.0626,-1.0626,-1.1046,-1.1472,-1.1178,-1.1744,-1.2264,-1.2085,-1.1898,-1.1771,-1.1684,-1.2244,-1.3127,-1.4401,-1.5761,-1.6944,-1.7557,-1.8351,-1.8571,-1.7702,-1.7809,-1.7796,0.0,0.0,0.0,-1.7649,-1.7649,-1.7635,0.0,0.0,0.0,0.0,0.0,-1.8517,-1.9345,-1.9666,-1.9826,-1.9826,-1.9826,-1.9826,-1.9826,-1.9813,-1.9813,-1.9826,-1.9813,-1.9813,-1.9826,-1.9813,-1.996,-2.0167,-2.0167,-2.0401,-2.0708,-2.1002,-2.1109,-2.1109,-2.1109,-2.1109,-2.1109,0.0,0.0,-1.3838,-1.3987,-1.3804,-1.3627,-1.3627,-1.3532,-1.3458,-1.3458,-1.3485,-1.3505,-1.3505,-1.3478,-1.3437,-1.3403,-1.3403,-1.3403,-1.3403,-1.3254,-1.3112,-1.305,-1.2779,-1.2481,-1.2149,-1.2026,-1.1748,-1.1219,-1.1002,-1.0752,-1.0663,-1.0629,-1.0636,-1.0663,-1.0629,-1.0555,-1.0439,-1.0439,-1.0378,-1.0276,-1.0243,-1.0154,-0.9997,-1.0141,-1.0025,-0.9849,-1.0086,-1.0093,-0.9957,-1.0175,-1.0202,-1.0188,-1.0256,-1.0614,-1.0955,-1.0955,-1.1232,-1.1421,-1.1169,-1.151,-1.1813,-1.1705,-1.1957,-1.2296,-1.2247,-1.189,-1.192,-1.3235,-1.3177,-1.3713,-1.6537,-1.6973,-1.7235,-1.8131,-1.8262,-1.8103,-1.7649,-1.7462,-1.7475,0.0,-1.7889,-1.8023,-1.825,-1.8277,-1.809,0.0,0.0,0.0,0.0,-1.8651,-1.9145,-1.9417,-1.9867,-2.0134,-2.0134,-2.0134,-2.0134,-2.0134,-1.9907,-1.992,-2.012,-1.9907,-1.992,-2.012,-1.9893,-1.996,-2.0167,-2.0167,-2.0401,-2.0708,-2.1002,-2.1109,-2.1109,-2.1109,-2.1109,-2.1109,-1.3824,-1.379,-1.377,-1.3851,-1.3682,-1.3526,-1.3526,-1.3512,-1.3505,-1.3505,-1.3505,-1.3505,-1.3505,-1.3444,-1.3403,-1.3403,-1.3403,-1.3403,-1.3403,-1.32,-1.3044,-1.2963,-1.2684,-1.2379,-1.2142,-1.1993,-1.1728,-1.1267,-1.1056,-1.084,-1.0759,-1.0751,-1.0717,-1.0717,-1.0717,-1.0677,-1.0595,-1.0595,-1.0555,-1.0473,-1.0405,-1.0331,-1.0256,-1.027,-1.0175,-1.0053,-1.0222,-1.0229,-1.0168,-1.0249,-1.0283,-1.0283,-1.0283,-1.0763,-1.1272,-1.1272,-1.1592,-1.1851,-1.1724,-1.1972,-1.2257,-1.2242,-1.2355,-1.2426,-1.2426,-1.2069,-1.1974,-1.2961,-1.3652,-1.4675,-1.6484,-1.7551,-1.8166,-1.8473,-1.8357,-1.809,-1.7649,-1.7569,-1.7675,-1.7996,-1.8222,-1.8462,-1.8677,-1.8691,-1.8557,-1.8223,-1.8504,0.0,-1.8651,-1.9359,-1.976,-1.976,-2.0201,-2.0441,-2.0441,-2.0441,-2.0441,-2.0428,-2.0281,-2.0281,-2.0428,-2.0267,-2.0294,-2.0428,-2.0267,-2.0361,-2.0628,-2.0494,-2.0615,-2.0895,-2.1042,-2.1109,-2.1109,-2.1109,-2.1109,-2.1109,-1.3804,-1.3695,-1.36,-1.3627,-1.3505,-1.3403,-1.3403,-1.3512,-1.36,-1.3627,-1.3627,-1.3627,-1.3627,-1.3532,-1.3458,-1.3437,-1.3437,-1.3424,-1.3403,-1.3125,-1.2963,-1.2963,-1.2549,-1.2244,-1.2067,-1.1891,-1.1667,-1.1389,-1.1138,-1.1002,-1.0907,-1.0826,-1.0758,-1.0751,-1.0731,-1.0717,-1.0717,-1.0717,-1.0717,-1.0711,-1.0575,-1.0514,-1.048,-1.0385,-1.0317,-1.0283,-1.0331,-1.0331,-1.0317,-1.0337,-1.0344,-1.0344,-1.0317,-1.0927,-1.1625,-1.1603,-1.1869,-1.2144,-1.212,-1.2306,-1.254,-1.2726,-1.2702,-1.2628,-1.2628,-1.2312,-1.2131,-1.2555,-1.4217,-1.5742,-1.6157,-1.7972,-1.9172,-1.8584,-1.845,-1.8223,-1.7662,0.0,-1.7955,-1.8049,-1.8542,-1.8945,-1.8985,-1.8985,-1.8971,-1.8931,-1.9011,-1.9145,-1.9417,-1.996,-2.0294,-2.0294,-2.0588,-2.0735,-2.0735,-2.0735,-2.0722,-2.0681,-2.0681,-2.0681,-2.0681,-2.0681,-2.0695,-2.0735,-2.0695,-2.0842,-2.1082,-2.0802,-2.0842,-2.1109,-2.1109,-2.1109,-2.1109,-2.1109,-2.1109,-2.1109,-1.3634,-1.3539,-1.3478,-1.3607,-1.3505,-1.3403,-1.3403,-1.3417,-1.3485,-1.3614,-1.3627,-1.3627,-1.3627,-1.3715,-1.3722,-1.3607,-1.3593,-1.3539,-1.341,-1.3125,-1.2963,-1.2963,-1.2644,-1.2338,-1.2142,-1.1796,-1.1565,-1.1389,-1.1348,-1.126,-1.1124,-1.0982,-1.0847,-1.084,-1.0778,-1.0717,-1.0717,-1.0717,-1.0717,-1.0717,-1.0697,-1.0609,-1.0507,-1.0609,-1.0493,-1.0317,-1.0561,-1.0568,-1.048,-1.0609,-1.0649,-1.0629,-1.05,-1.1084,-1.1775,-1.164,-1.2084,-1.2562,-1.2216,-1.2112,-1.2281,-1.2726,-1.2702,-1.2628,-1.2628,-1.241,-1.2884,-1.5164,-1.5716,-1.6462,-1.8699,-1.9298,-1.9172,-1.8584,-1.8277,-1.7996,-1.7635,0.0,-1.7849,-1.8357,-1.8718,-1.9025,-1.9279,-1.9292,-1.9199,-1.8945,-1.9386,-1.9573,-1.943,-2.016,-2.0601,-2.0601,-2.0882,-2.1042,-2.1042,-2.1042,-2.0922,-2.0681,-2.0681,-2.0681,-2.0681,-2.0681,-2.0815,-2.1029,-2.0788,-2.0842,-2.1082,-2.0802,-2.0842,-2.1109,-2.1109,-2.1109,-2.1109,-2.1109,-2.1109,-2.1109,-1.3838,-1.3743,-1.3688,-1.3838,-1.3675,-1.3526,-1.3526,-1.3451,-1.3458,-1.3607,-1.3627,-1.3661,-1.3736,-1.3804,-1.3817,-1.3749,-1.3675,-1.36,-1.3532,-1.3173,-1.2963,-1.2963,-1.2664,-1.2366,-1.2142,-1.1694,-1.1504,-1.1511,-1.1348,-1.1274,-1.128,-1.1131,-1.1023,-1.088,-1.0955,-1.0873,-1.0731,-1.0887,-1.0867,-1.0724,-1.0812,-1.0751,-1.0622,-1.0697,-1.0636,-1.0534,-1.067,-1.0677,-1.0622,-1.0697,-1.0717,-1.0711,-1.0636,-1.0993,-1.1497,-1.1687,-1.2242,-1.275,-1.2538,-1.2449,-1.2538,-1.275,-1.2702,-1.2588,-1.2686,-1.2499,-1.2897,-1.4988,-1.5607,-1.6386,-1.8391,-1.9135,-1.9225,-1.8798,-1.8611,0.0,0.0,-1.821,-1.841,-1.8691,-1.8985,-1.9212,-1.9359,-1.943,-1.9319,-1.9172,-1.9559,-1.9813,-1.9826,-2.0374,-2.0748,-2.0909,-2.1042,-2.1109,-2.1109,-2.1109,-2.1042,-2.0909,-2.0909,-2.0909,-2.0909,-2.0909,-2.0989,-2.1096,-2.0962,-2.0989,-2.1096,-2.0962,-2.0989,-2.1109,-2.1109,-2.1109,-2.1109,-2.1109,-2.1109,-2.1109,-1.3994,-1.3926,-1.3865,-1.3953,-1.3777,-1.3627,-1.3627,-1.3532,-1.3519,-1.3709,-1.3729,-1.3777,-1.3878,-1.3926,-1.3933,-1.3899,-1.3763,-1.3682,-1.3682,-1.3261,-1.2996,-1.2963,-1.2637,-1.2345,-1.2121,-1.1742,-1.1586,-1.1667,-1.1436,-1.1362,-1.1443,-1.1287,-1.1158,-1.105,-1.1097,-1.1002,-1.0833,-1.1029,-1.1002,-1.0833,-1.0847,-1.0813,-1.0772,-1.0731,-1.0717,-1.0717,-1.0717,-1.0717,-1.0717,-1.0717,-1.0717,-1.0717,-1.0717,-1.0916,-1.1247,-1.1644,-1.2246,-1.2708,-1.2766,-1.2774,-1.2774,-1.2774,-1.2735,-1.2661,-1.2808,-1.288,-1.3335,-1.4754,-1.5763,-1.6835,-1.8117,-1.8952,-1.9345,-1.8985,0.0,0.0,0.0,-1.8798,-1.8998,-1.8931,-1.9185,-1.943,-1.943,-1.9484,-1.9466,-1.9466,-1.98,-2.0107,-2.0321,-2.0615,-2.0882,-2.1096,-2.1109,-2.1109,-2.1109,-2.1109,-2.1109,-2.1109,-2.1109,-2.1109,-2.1109,-2.1109,-2.1109,-2.1109,-2.1109,-2.1109,-2.1109,-2.1109,-2.1109,-2.1109,-2.1109,-2.1149,-2.1216,-2.1216,-2.1256,-2.1309,-1.3858,-1.3844,-1.3804,-1.3682,-1.3641,-1.3627,-1.3627,-1.362,-1.3715,-1.4,-1.4041,-1.4041,-1.4055,-1.4183,-1.4211,-1.4068,-1.3912,-1.3824,-1.3824,-1.3403,-1.3098,-1.305,-1.2542,-1.2298,-1.2277,-1.2101,-1.1945,-1.1816,-1.1789,-1.1721,-1.1599,-1.1443,-1.1369,-1.1348,-1.1084,-1.1023,-1.1124,-1.1009,-1.1029,-1.1118,-1.0995,-1.0873,-1.0847,-1.0772,-1.0717,-1.0717,-1.0717,-1.0717,-1.0717,-1.0717,-1.0717,-1.0717,-1.0717,-1.0916,-1.1247,-1.1644,-1.2041,-1.2371,-1.2708,-1.2774,-1.2774,-1.2774,-1.2758,-1.2824,-1.2766,-1.3792,-1.5003,-1.616,-1.7411,-1.863,-1.9475,-1.9727,-1.9586,-1.9011,0.0,0.0,-1.8571,-1.8971,-1.9239,-1.8958,-1.9185,-1.943,-1.943,-1.9613,-1.9773,-1.9773,-2.0294,-2.0615,-2.0641,-2.0922,-2.1082,-2.1109,-2.1109,-2.1109,-2.1109,-2.1109,-2.1109,-2.1109,-2.1109,-2.1109,-2.1109,-2.1109,-2.1109,-2.1109,-2.1109,-2.1109,-2.1109,-2.1109,-2.1109,-2.1109,-2.1109,-2.1283,-2.1588,-2.1588,-2.1683,-2.1924,-1.3824,-1.3838,-1.3885,-1.4021,-1.3966,-1.3905,-1.3905,-1.3824,-1.3838,-1.4048,-1.4075,-1.4109,-1.4204,-1.4265,-1.4278,-1.4217,-1.4075,-1.3946,-1.3844,-1.36,-1.3268,-1.2834,-1.2481,-1.2291,-1.2291,-1.2142,-1.2033,-1.1972,-1.1877,-1.1803,-1.1748,-1.1599,-1.1484,-1.1389,-1.1375,-1.1287,-1.1241,-1.1307,-1.1287,-1.1158,-1.1104,-1.1029,-1.0873,-1.0813,-1.0806,-1.0731,-1.0759,-1.0799,-1.0717,-1.0717,-1.0717,-1.0738,-1.0833,-1.0927,-1.1082,-1.1578,-1.194,-1.2134,-1.2268,-1.239,-1.2503,-1.2503,-1.2642,-1.2774,-1.2774,-1.3875,-1.5274,-1.654,-1.7748,-1.8963,-2.013,-2.0187,-1.9987,-1.9714,0.0,-1.9826,-1.9599,-1.976,-1.9867,-1.9746,-1.984,-1.9907,-1.9907,-2.0,-2.0067,-2.0067,-2.0441,-2.0681,-2.0681,-2.0949,-2.1109,-2.1109,-2.1109,-2.1109,-2.1109,-2.1109,-2.1109,-2.1109,-2.1109,-2.1109,-2.1109,-2.1109,-2.1109,-2.1109,-2.1109,-2.1109,-2.1109,-2.1109,-2.1109,-2.1122,-2.1309,-2.1521,-2.1641,-2.1815,-2.1897,-2.1991,-1.3966,-1.3987,-1.4034,-1.4197,-1.4143,-1.4075,-1.4075,-1.398,-1.3966,-1.4122,-1.4143,-1.4183,-1.4285,-1.4299,-1.4299,-1.4299,-1.4156,-1.4027,-1.3919,-1.3688,-1.3329,-1.2827,-1.2515,-1.2359,-1.2359,-1.225,-1.2176,-1.2135,-1.2026,-1.1952,-1.1904,-1.1803,-1.1701,-1.1606,-1.1613,-1.1531,-1.1382,-1.1497,-1.1457,-1.1301,-1.1253,-1.1179,-1.1084,-1.1036,-1.0948,-1.0873,-1.0975,-1.0948,-1.086,-1.086,-1.086,-1.088,-1.0982,-1.1084,-1.1173,-1.1475,-1.1707,-1.1901,-1.1901,-1.209,-1.2311,-1.227,-1.2576,-1.2774,-1.2774,-1.4259,-1.5814,-1.6786,-1.8256,-1.9638,-2.0571,-2.0508,-2.0334,-2.0254,-2.0307,-2.0334,-2.018,-2.0307,-2.0334,-2.018,-2.0167,-2.0167,-2.0167,-2.0321,-2.0374,-2.0374,-2.0641,-2.0815,-2.0815,-2.1002,-2.1109,-2.1109,-2.1109,-2.1109,-2.1109,-2.1109,-2.1109,-2.1109,-2.1203,-2.1203,-2.1122,-2.1296,-2.1336,-2.1256,-2.1349,-2.1376,-2.1376,-2.1376,-2.1376,-2.1403,-2.1603,-2.1815,-2.1844,-2.2044,-2.2245,-2.2338,-1.4299,-1.4299,-1.4251,-1.4102,-1.4075,-1.4075,-1.4075,-1.4075,-1.4129,-1.4278,-1.4299,-1.4299,-1.4299,-1.4299,-1.4299,-1.4299,-1.4163,-1.4075,-1.4068,-1.3648,-1.3268,-1.2976,-1.2671,-1.2501,-1.2501,-1.2501,-1.2433,-1.2291,-1.2291,-1.221,-1.206,-1.2135,-1.2135,-1.2121,-1.1755,-1.1701,-1.1816,-1.1518,-1.1484,-1.1606,-1.145,-1.1389,-1.1375,-1.1219,-1.1234,-1.1234,-1.1165,-1.1234,-1.1234,-1.1234,-1.1234,-1.1234,-1.1234,-1.1441,-1.1648,-1.1303,-1.1441,-1.1717,-1.1717,-1.1993,-1.2323,-1.2332,-1.2576,-1.2774,-1.2774,-1.4977,-1.698,-1.698,-1.9164,-2.1015,-2.0735,-2.0681,-2.0588,-2.0294,-2.0494,-2.0575,-2.0281,-2.0494,-2.0575,-2.0267,-2.0241,-2.0241,-2.0241,-2.0508,-2.0681,-2.0681,-2.0949,-2.1109,-2.1109,-2.1109,-2.1109,-2.1109,-2.1109,-2.1109,-2.1109,-2.1109,-2.1109,-2.1109,-2.1416,-2.1403,-2.1136,-2.1724,-2.183,-2.1577,-2.1857,-2.1991,-2.1991,-2.1991,-2.1991,-2.1991,-2.1991,-2.2164,-2.2418,-2.2432,-2.2806,-2.3047,-1.4143,-1.4143,-1.4156,-1.4224,-1.4231,-1.4231,-1.4231,-1.4231,-1.4251,-1.4292,-1.4299,-1.4299,-1.4299,-1.4299,-1.4299,-1.4299,-1.4258,-1.4143,-1.3926,-1.3492,-1.32,-1.3112,-1.282,-1.2664,-1.2664,-1.2556,-1.2481,-1.244,-1.2338,-1.2271,-1.2223,-1.2115,-1.2135,-1.2135,-1.1972,-1.1952,-1.1979,-1.1782,-1.1728,-1.1748,-1.1491,-1.1389,-1.1389,-1.1341,-1.1253,-1.1192,-1.1409,-1.1348,-1.1179,-1.1287,-1.1253,-1.1255,-1.1287,-1.1534,-1.1756,-1.1511,-1.1768,-1.2023,-1.1916,-1.2288,-1.265,-1.2618,-1.2934,-1.3173,-1.3043,-1.44,-1.5994,-1.6818,-1.8396,-1.9916,-2.08,-2.0975,-2.0949,-2.0855,-2.0922,-2.0949,-2.0855,-2.0922,-2.0949,-2.0855,-2.0842,-2.0842,-2.0842,-2.0922,-2.0975,-2.0975,-2.1056,-2.1203,-2.1403,-2.1229,-2.1203,-2.1416,-2.1416,-2.1323,-2.1109,-2.1109,-2.1109,-2.1109,-2.1416,-2.1574,-2.143,-2.1817,-2.1411,-2.0397,-2.1542,-2.1384,-2.0522,-2.1582,-2.1991,-2.2004,-2.2205,-2.2472,-2.2752,-2.2979,-2.2517,-2.1818,-1.4163,-1.4163,-1.419,-1.4285,-1.4299,-1.4299,-1.4299,-1.4299,-1.4299,-1.4299,-1.4299,-1.4299,-1.4299,-1.4299,-1.4299,-1.4299,-1.4299,-1.417,-1.3858,-1.3648,-1.3451,-1.3268,-1.3091,-1.2915,-1.2732,-1.2637,-1.2562,-1.2501,-1.2413,-1.2372,-1.2372,-1.2338,-1.2291,-1.2237,-1.2237,-1.2203,-1.2142,-1.1986,-1.1925,-1.1904,-1.1728,-1.1619,-1.1572,-1.1633,-1.1558,-1.1457,-1.1708,-1.1674,-1.1596,-1.1552,-1.1504,-1.1457,-1.1606,-1.1782,-1.1904,-1.1816,-1.1942,-1.2198,-1.2323,-1.2634,-1.2966,-1.3177,-1.3335,-1.3344,-1.323,-1.427,-1.55,-1.6227,-1.7915,-1.952,-2.0272,-2.09,-2.1243,-2.1122,-2.1109,-2.1109,-2.1109,-2.1109,-2.1109,-2.1109,-2.1109,-2.1109,-2.1109,-2.1109,-2.1162,-2.1269,-2.1283,-2.1416,-2.171,-2.1443,-2.1416,-2.1775,-2.1681,-2.1523,-2.1456,-2.1456,-2.1403,-2.1283,-2.1577,-2.1789,-2.1802,-2.2151,-2.152,-2.0146,-2.1722,-2.1584,-2.0371,-2.1761,-2.2405,-2.2539,-2.2712,-2.2953,-2.3177,-2.2717,-2.2082,-2.1293,-1.4299,-1.4299,-1.4299,-1.4299,-1.4299,-1.4299,-1.4299,-1.4299,-1.4299,-1.4299,-1.4299,-1.4299,-1.4299,-1.4299,-1.4299,-1.4299,-1.4285,-1.4163,-1.3878,-1.398,-1.3871,-1.3458,-1.3424,-1.322,-1.28,-1.2766,-1.2684,-1.2542,-1.2528,-1.2528,-1.2549,-1.2671,-1.2664,-1.2542,-1.2542,-1.2461,-1.2318,-1.2169,-1.2094,-1.2155,-1.2067,-1.1979,-1.1864,-1.2006,-1.1972,-1.187,-1.2026,-1.2074,-1.204,-1.1898,-1.185,-1.1877,-1.202,-1.2149,-1.2155,-1.2067,-1.2149,-1.227,-1.2831,-1.3014,-1.3202,-1.3754,-1.3693,-1.3457,-1.3409,-1.4336,-1.5282,-1.5526,-1.7758,-1.9573,-1.9531,-2.0669,-2.1574,-2.1229,-2.1162,-2.1149,-2.1149,-2.1122,-2.1109,-2.1109,-2.1136,-2.1149,-2.1149,-2.1176,-2.1296,-2.1641,-2.1655,-2.1724,-2.2004,-2.175,-2.1789,-2.2017,-2.1764,-2.1815,-2.1977,-2.2004,-2.1884,-2.1655,-2.1884,-2.2031,-2.2084,-2.251,-2.1867,-2.0481,-2.203,-2.1963,-2.0886,-2.2341,-2.3113,-2.3367,-2.3367,-2.347,-2.3437,-2.1906,-2.134,-2.0978,-1.4299,-1.4299,-1.4299,-1.4299,-1.4299,-1.4299,-1.4299,-1.4299,-1.4299,-1.4299,-1.4299,-1.4299,-1.4299,-1.4299,-1.4299,-1.4299,-1.419,-1.4095,-1.4027,-1.3939,-1.3851,-1.3749,-1.3641,-1.3478,-1.3261,-1.303,-1.2895,-1.2861,-1.2739,-1.2745,-1.2861,-1.2773,-1.2779,-1.2861,-1.2861,-1.2779,-1.2623,-1.2474,-1.2338,-1.223,-1.2108,-1.204,-1.2013,-1.2047,-1.204,-1.2033,-1.2189,-1.2162,-1.2054,-1.202,-1.2013,-1.202,-1.2128,-1.2142,-1.2216,-1.2094,-1.2367,-1.2771,-1.2934,-1.3324,-1.3679,-1.4019,-1.4164,-1.4091,-1.3677,-1.3788,-1.457,-1.6787,-1.769,-1.882,-2.1029,-2.1687,-2.1871,-2.1804,-2.1603,-2.1521,-2.1521,-2.1256,-2.1109,-2.1109,-2.1309,-2.1521,-2.1521,-2.1657,-2.1817,-2.1884,-2.1897,-2.2017,-2.2311,-2.2044,-2.2031,-2.2311,-2.2258,-2.2151,-2.1991,-2.2205,-2.2178,-2.1897,-2.2191,-2.2445,-2.2686,-2.1761,-2.0615,-1.9515,-2.0971,-2.0852,-1.9665,-2.2434,-2.3621,-2.3674,-2.3674,-2.3119,-2.219,-2.1825,-2.0273,-1.824,-1.4299,-1.4299,-1.4299,-1.4299,-1.4299,-1.4299,-1.4299,-1.4299,-1.4299,-1.4299,-1.4299,-1.4299,-1.4299,-1.4299,-1.4299,-1.4299,-1.4224,-1.415,-1.4075,-1.4061,-1.3994,-1.3844,-1.3844,-1.377,-1.3614,-1.3397,-1.3173,-1.2963,-1.2881,-1.284,-1.2854,-1.2915,-1.2908,-1.2854,-1.2996,-1.2983,-1.2834,-1.2752,-1.2637,-1.2494,-1.2413,-1.2298,-1.2176,-1.2244,-1.223,-1.2196,-1.242,-1.24,-1.2271,-1.2271,-1.223,-1.2182,-1.225,-1.2325,-1.2386,-1.2379,-1.2587,-1.2825,-1.2971,-1.3416,-1.3808,-1.4006,-1.4219,-1.4359,-1.4083,-1.3961,-1.4315,-1.5849,-1.7135,-1.8503,-1.9935,-2.1267,-2.2151,-2.2004,-2.1857,-2.1764,-2.1764,-2.163,-2.1523,-2.1523,-2.167,-2.1764,-2.1764,-2.1897,-2.2044,-2.2178,-2.2325,-2.2472,-2.2619,-2.2485,-2.2472,-2.2619,-2.2485,-2.2418,-2.2405,-2.2552,-2.2632,-2.2632,-2.1871,-2.1671,-2.1881,-2.058,-1.9242,-1.815,-1.9508,-1.9821,-1.9409,-2.1703,-2.3119,-2.3981,-2.3981,-2.3186,-2.187,-2.1117,-1.9414,-1.7312,-1.4299,-1.4299,-1.4299,-1.4299,-1.4299,-1.4299,-1.4299,-1.4299,-1.4299,-1.4299,-1.4299,-1.4299,-1.4299,-1.4299,-1.4299,-1.4299,-1.4299,-1.4245,-1.4122,-1.4231,-1.419,-1.3933,-1.4014,-1.4014,-1.3885,-1.3736,-1.3471,-1.3078,-1.3024,-1.2942,-1.2847,-1.3071,-1.3057,-1.2854,-1.3098,-1.3132,-1.2996,-1.2996,-1.2908,-1.2766,-1.2766,-1.2623,-1.242,-1.2535,-1.2508,-1.2433,-1.2684,-1.2691,-1.2583,-1.2583,-1.2501,-1.2427,-1.2542,-1.2583,-1.2603,-1.2732,-1.2766,-1.2811,-1.3021,-1.345,-1.3784,-1.3829,-1.4207,-1.4596,-1.4819,-1.4588,-1.4408,-1.5055,-1.6995,-1.8579,-1.872,-2.0857,-2.2552,-2.2258,-2.2218,-2.2178,-2.2071,-2.2058,-2.2044,-2.1991,-2.2071,-2.2138,-2.2138,-2.2231,-2.2352,-2.2485,-2.2819,-2.2993,-2.2939,-2.2993,-2.302,-2.302,-2.2779,-2.2766,-2.3088,-2.302,-2.3001,-2.2972,-2.1178,-2.0556,-2.1018,-1.9348,-1.795,-1.7039,-1.8191,-1.8812,-1.9213,-2.0781,-2.2431,-2.3825,-2.3825,-2.3001,-2.1625,-1.9962,-1.8537,-1.7227,-1.4299,-1.4299,-1.4299,-1.4299,-1.4299,-1.4299,-1.4299,-1.4299,-1.4299,-1.4299,-1.4299,-1.4299,-1.4299,-1.4299,-1.4299,-1.4299,-1.4299,-1.4292,-1.4272,-1.4285,-1.4278,-1.4238,-1.4129,-1.4061,-1.4041,-1.3892,-1.3722,-1.3539,-1.3275,-1.32,-1.3308,-1.3214,-1.322,-1.3315,-1.3349,-1.3288,-1.3146,-1.3146,-1.3064,-1.2929,-1.2929,-1.2908,-1.2874,-1.2895,-1.2888,-1.2874,-1.2915,-1.2915,-1.2901,-1.2901,-1.2888,-1.2874,-1.2895,-1.2901,-1.2901,-1.2922,-1.2929,-1.2947,-1.3049,-1.3538,-1.3956,-1.4075,-1.4478,-1.5269,-1.6715,-1.5601,-1.5129,-1.7925,-1.8757,-1.9365,-2.0672,-2.2375,-2.3487,-2.3193,-2.314,-2.2966,-2.2432,-2.2365,-2.2271,-2.2017,-2.2432,-2.2807,-2.2807,-2.322,-2.3327,-2.2846,-2.3327,-2.3541,-2.3273,-2.35,-2.3647,-2.3647,-2.3607,-2.3607,-2.3647,-2.3647,-2.2937,-2.1533,-2.032,-2.041,-2.157,-1.8568,-1.7217,-1.735,-1.7549,-1.7635,-1.7891,-2.086,-2.2212,-2.2472,-2.2472,-2.1515,-1.9962,-1.8309,-1.7559,-1.7778,-1.4299,-1.4299,-1.4299,-1.4299,-1.4299,-1.4299,-1.4299,-1.4299,-1.4299,-1.4299,-1.4299,-1.4299,-1.4299,-1.4299,-1.4299,-1.4299,-1.4299,-1.4299,-1.4299,-1.4299,-1.4299,-1.4299,-1.4238,-1.4197,-1.4197,-1.4048,-1.3939,-1.3878,-1.3654,-1.3498,-1.3403,-1.3498,-1.3539,-1.3532,-1.3614,-1.3607,-1.3539,-1.3458,-1.3342,-1.32,-1.3112,-1.303,-1.2963,-1.2963,-1.2963,-1.2963,-1.2963,-1.301,-1.3064,-1.307,-1.2963,-1.2963,-1.2963,-1.2963,-1.2976,-1.3057,-1.324,-1.3374,-1.3235,-1.3728,-1.4286,-1.4203,-1.4508,-1.5392,-1.7134,-1.6136,-1.5759,-1.8851,-1.9284,-1.958,-2.1256,-2.2785,-2.3728,-2.3594,-2.3581,-2.3487,-2.3207,-2.318,-2.3126,-2.2993,-2.3207,-2.3367,-2.3367,-2.3621,-2.3661,-2.3394,-2.3768,-2.3888,-2.3594,-2.3848,-2.3941,-2.3768,-2.3768,-2.3768,-2.3768,-2.3768,-2.3047,-2.1583,-2.0236,-1.9446,-1.9137,-1.7042,-1.6199,-1.6364,-1.6364,-1.6823,-1.7825,-2.0276,-2.1807,-2.2645,-2.3493,-2.2214,-1.9624,-1.7106,-1.673,-1.7663]}]]